[[{"header":{"parameterUnit":"m.s-1","parameterCategory":1,"la1":31.0,"la2":29.5877,"lo1":-88.7671,"lo2":-86.6584,"dy":0.0162,"dx":0.0185,"nx":115,"ny":88,"refTime":"2024-07-24T06:00:00:Z","depth":0,"parameterNumber":2,"parameterNumberName":"U-component_of_WINDS"},"data":[0.0,0.0,0.0,0.0,0.0,0.0,0.0,0.0,0.0,0.0,0.0,0.0,0.0,0.0,0.0,0.0,0.0,0.0,0.0,0.0,0.0,0.0,0.0,0.0,0.0,0.0,0.0,0.0,0.0,0.0,0.0,0.0,0.0,0.0,0.0,0.0,0.0,0.0,0.0,0.0,0.0,0.0,0.0,0.0,0.0,0.0,0.0,0.0,0.0,0.0,0.0,0.0,0.0,0.0,0.0,0.0,0.0,0.0,0.0,0.0,0.0,0.0,0.0,0.0,0.0,0.0,0.0,0.0,0.0,0.0,0.0,0.0,0.0,0.0,0.0,0.0,0.0,0.0,0.0,0.0,0.0,0.0,0.0,0.0,0.0,0.0,0.0,0.0,0.0,0.0,0.0,0.0,0.0,0.0,0.0,0.0,0.0,0.0,0.0,0.0,0.0,0.0,0.0,0.0,0.0,0.0,0.0,0.0,0.0,0.0,0.0,0.0,0.0,0.0,0.0,0.0,0.0,0.0,0.0,0.0,0.0,0.0,0.0,0.0,0.0,0.0,0.0,0.0,0.0,0.0,0.0,0.0,0.0,0.0,0.0,0.0,0.0,0.0,0.0,0.0,0.0,0.0,0.0,0.0,0.0,0.0,0.0,0.0,0.0,0.0,0.0,0.0,0.0,0.0,0.0,0.0,0.0,0.0,0.0,0.0,0.0,0.0,0.0,0.0,0.0,0.0,0.0,0.0,0.0,0.0,0.0,0.0,0.0,0.0,0.0,0.0,0.0,0.0,0.0,0.0,0.0,0.0,0.0,0.0,0.0,0.0,0.0,0.0,0.0,0.0,0.0,0.0,0.0,0.0,0.0,0.0,0.0,0.0,0.0,0.0,0.0,0.0,0.0,0.0,0.0,0.0,0.0,0.0,0.0,0.0,0.0,0.0,0.0,0.0,0.0,0.0,0.0,0.0,0.0,0.0,0.0,0.0,0.0,0.0,0.0,0.0,0.0,0.0,0.0,0.0,0.0,0.0,0.0,0.0,0.0,0.0,0.0,0.0,0.0,0.0,0.0,0.0,0.0,0.0,0.0,0.0,0.0,0.0,0.0,0.0,0.0,0.0,0.0,0.0,0.0,0.0,0.0,0.0,0.0,0.0,0.0,0.0,0.0,0.0,0.0,0.0,0.0,0.0,0.0,0.0,0.0,0.0,0.0,0.0,0.0,0.0,0.0,0.0,0.0,0.0,0.0,0.0,0.0,0.0,0.0,0.0,0.0,0.0,0.0,0.0,0.0,0.0,0.0,0.0,0.0,0.0,0.0,0.0,0.0,0.0,0.0,0.0,0.0,0.0,0.0,0.0,0.0,0.0,0.0,0.0,0.0,0.0,0.0,0.0,0.0,0.0,0.0,0.0,0.0,0.0,0.0,0.0,0.0,0.0,0.0,0.0,0.0,0.0,0.0,0.0,0.0,0.0,0.0,0.0,0.0,0.0,0.0,0.0,0.0,0.0,0.0,0.0,0.0,0.0,0.0,0.0,0.0,0.0,0.0,0.0,0.0,0.0,0.0,0.0,0.0,0.0,0.0,0.0,0.0,0.0,0.0,0.0,0.0,0.0,0.0,0.0,0.0,0.0,0.0,0.0,0.0,0.0,0.0,0.0,0.0,0.0,0.0,0.0,0.0,0.0,0.0,0.0,0.0,0.0,0.0,0.0,0.0,0.0,0.0,0.0,0.0,0.0,0.0,0.0,0.0,0.0,0.0,0.0,0.0,0.0,0.0,0.0,0.0,0.0,0.0,0.0,0.0,0.0,0.0,0.0,0.0,0.0,0.0,0.0,0.0,0.0,0.0,0.0,0.0,0.0,0.0,0.0,0.0,0.0,0.0,0.0,0.0,0.0,0.0,0.0,0.0,0.0,0.0,0.0,0.0,0.0,0.0,0.0,0.0,0.0,0.0,0.0,0.0,0.0,0.0,0.0,0.0,0.0,0.0,0.0,0.0,0.0,0.0,0.0,0.0,0.0,0.0,0.0,0.0,0.0,0.0,0.0,0.0,0.0,0.0,0.0,0.0,0.0,0.0,0.0,0.0,0.0,0.0,0.0,0.0,0.0,0.0,0.0,0.0,0.0,0.0,0.0,0.0,0.0,0.0,0.0,0.0,0.0,0.0,0.0,0.0,0.0,0.0,0.0,0.0,0.0,0.0,0.0,0.0,0.0,0.0,0.0,0.0,0.0,0.0,0.0,0.0,0.0,0.0,0.0,0.0,0.0,0.0,0.0,0.0,0.0,0.0,0.0,0.0,0.0,0.0,0.0,0.0,0.0,0.0,0.0,0.0,0.0,0.0,0.0,0.0,0.0,0.0,0.0,0.0,0.0,0.0,0.0,0.0,0.0,0.0,0.0,0.0,0.0,0.0,0.0,0.0,0.0,0.0,0.0,0.0,0.0,0.0,0.0,0.0,0.0,0.0,0.0,0.0,0.0,0.0,0.0,0.0,0.0,0.0,0.0,0.0,0.0,0.0,0.0,0.0,0.0,0.0,0.0,0.0,0.0,0.0,0.0,0.0,0.0,0.0,0.0,0.0,0.0,0.0,0.0,0.0,0.0,0.0,0.0,0.0,0.0,0.0,0.0,0.0,0.0,0.0,0.0,0.0,0.0,0.0,0.0,0.0,0.0,0.0,0.0,0.0,0.0,0.0,0.0,0.0,0.0,0.0,0.0,0.0,0.0,0.0,0.0,0.0,0.0,0.0,0.0,0.0,0.0,0.0,0.0,0.0,0.0,0.0,0.0,0.0,0.0,0.0,0.0,0.0,0.0,0.0,0.0,0.0,0.0,0.0,0.0,0.0,0.0,0.0,0.0,0.0,0.0,0.0,0.0,0.0,0.0,0.0,0.0,0.0,0.0,0.0,0.0,0.0,0.0,0.0,0.0,0.0,0.0,0.0,0.0,0.0,0.0,0.0,0.0,0.0,0.0,0.0,0.0,0.0,0.0,0.0,0.0,0.0,0.0,0.0,0.0,0.0,0.0,0.0,0.0,0.0,0.0,0.0,0.0,0.0,0.0,0.0,0.0,0.0,0.0,0.0,0.0,0.0,0.0,0.0,0.0,0.0,0.0,0.0,0.0,0.0,0.0,0.0,0.0,0.0,0.0,0.0,0.0,0.0,0.0,0.0,0.0,0.0,0.0,0.0,0.0,0.0,0.0,0.0,0.0,0.0,0.0,0.0,0.0,0.0,0.0,0.0,0.0,0.0,0.0,0.0,0.0,0.0,0.0,0.0,0.0,0.0,0.0,0.0,0.0,0.0,0.0,0.0,0.0,0.0,0.0,0.0,0.0,0.0,0.0,0.0,0.0,0.0,0.0,0.0,0.0,0.0,0.0,0.0,0.0,0.0,0.0,0.0,0.0,0.0,0.0,0.0,0.0,0.0,0.0,0.0,0.0,0.0,0.0,0.0,0.0,0.0,0.0,0.0,0.0,0.0,0.0,0.0,0.0,0.0,0.0,0.0,0.0,0.0,0.0,0.0,0.0,0.0,0.0,0.0,0.0,0.0,0.0,0.0,0.0,0.0,0.0,0.0,0.0,0.0,0.0,0.0,0.0,0.0,0.0,0.0,0.0,0.0,0.0,0.0,0.0,0.0,0.0,0.0,0.0,0.0,0.0,0.0,0.0,0.0,0.0,0.0,0.0,0.0,0.0,0.0,0.0,0.0,0.0,0.0,0.0,0.0,0.0,0.0,0.0,0.0,0.0,0.0,0.0,0.0,0.0,0.0,0.0,0.0,0.0,0.0,0.0,0.0,0.0,0.0,0.0,0.0,0.0,0.0,0.0,0.0,0.0,0.0,0.0,0.0,0.0,0.0,0.0,0.0,0.0,0.0,0.0,0.0,0.0,0.0,0.0,0.0,0.0,0.0,0.0,0.0,0.0,0.0,0.0,0.0,0.0,0.0,0.0,0.0,0.0,0.0,0.0,0.0,0.0,0.0,0.0,0.0,0.0,0.0,0.0,0.0,0.0,0.0,0.0,0.0,0.0,0.0,0.0,0.0,0.0,0.0,0.0,0.0,0.0,0.0,0.0,0.0,0.0,0.0,0.0,0.0,0.0,0.0,0.0,0.0,0.0,0.0,0.0,0.0,0.0,0.0,0.0,0.0,0.0,0.0,0.0,0.0,0.0,0.0,0.0,0.0,0.0,0.0,0.0,0.0,0.0,0.0,0.0,0.0,0.0,0.0,0.0,0.0,0.0,0.0,0.0,0.0,0.0,0.0,0.0,-0.8327,0.0,0.0,0.0,0.0,0.0,0.0,0.0,0.0,0.0,0.0,0.0,0.0,0.0,0.0,0.0,0.0,0.0,0.0,0.0,0.0,0.0,0.0,0.0,0.0,0.0,0.0,0.0,0.0,0.0,0.0,0.0,0.0,0.0,0.0,0.0,0.0,0.0,0.0,0.0,0.0,0.0,0.0,0.0,0.0,0.0,0.0,0.0,0.0,0.0,0.0,0.0,0.0,0.0,0.0,0.0,0.0,0.0,0.0,0.0,0.0,0.0,0.0,0.0,0.0,0.0,0.0,0.0,0.0,0.0,0.0,0.0,0.0,0.0,0.0,0.0,0.0,0.0,0.0,0.0,0.0,0.0,0.0,0.0,0.0,0.0,0.0,0.0,0.0,0.0,0.0,0.0,0.0,0.0,0.0,0.0,0.0,0.0,0.0,0.0,0.0,0.0,0.0,0.0,0.0,0.0,0.0,0.0,0.0,0.0,0.0,-1.2627,-1.2028,-1.0637,-0.9617,-0.9065,0.0,0.0,0.0,0.0,0.0,0.0,0.0,0.0,0.0,0.0,0.0,0.0,0.0,0.0,0.0,0.0,0.0,0.0,0.0,0.0,0.0,0.0,0.0,0.0,0.0,0.0,0.0,0.0,0.0,0.0,0.0,0.0,0.0,0.0,0.0,0.0,0.0,0.0,0.0,0.0,0.0,0.0,0.0,0.0,0.0,0.0,0.0,0.0,0.0,0.0,0.0,0.0,0.0,0.0,0.0,0.0,0.0,0.0,0.0,0.0,0.0,0.0,0.0,0.0,0.0,0.0,0.0,0.0,0.0,0.0,0.0,0.0,0.0,0.0,0.0,0.0,0.0,0.0,0.0,0.0,0.0,0.0,0.0,0.0,0.0,0.0,0.0,0.0,0.0,0.0,0.0,0.0,0.0,0.0,0.0,0.0,0.0,0.0,0.0,0.0,0.0,0.0,0.0,0.0,0.0,0.0,0.0,0.0,0.0,0.0,0.0,0.0,-1.1251,-1.0236,-0.951,0.0,0.0,0.0,0.0,0.0,0.0,0.0,0.0,0.0,0.0,0.0,0.0,0.0,0.0,0.0,0.0,0.0,0.0,0.0,0.0,0.0,0.0,0.0,0.0,0.0,0.0,0.0,0.0,0.0,0.0,0.0,0.0,0.0,0.0,0.0,0.0,0.0,0.0,0.0,0.0,0.0,0.0,0.0,0.0,0.0,0.0,0.0,0.0,0.0,0.0,0.0,0.0,0.0,0.0,0.0,0.0,0.0,0.0,0.0,0.0,0.0,0.0,0.0,0.0,0.0,0.0,0.0,0.0,0.0,0.0,0.0,0.0,0.0,0.0,0.0,0.0,0.0,0.0,0.0,0.0,0.0,0.0,0.0,0.0,0.0,0.0,0.0,0.0,0.0,0.0,0.0,0.0,0.0,0.0,0.0,0.0,0.0,0.0,0.0,0.0,0.0,0.0,0.0,0.0,0.0,0.0,0.0,0.0,0.0,0.0,-1.3042,-1.2337,-1.1545,0.0,-0.9304,0.0,0.0,0.0,0.0,0.0,0.0,0.0,0.0,0.0,0.0,0.0,0.0,0.0,0.0,0.0,0.0,0.0,0.0,0.0,0.0,0.0,0.0,0.0,0.0,0.0,0.0,0.0,0.0,0.0,0.0,0.0,0.0,0.0,0.0,0.0,0.0,0.0,0.0,0.0,0.0,0.0,0.0,0.0,0.0,0.0,0.0,0.0,0.0,0.0,0.0,0.0,0.0,0.0,0.0,0.0,0.0,0.0,0.0,0.0,0.0,0.0,0.0,0.0,0.0,0.0,0.0,0.0,0.0,0.0,0.0,0.0,0.0,0.0,0.0,0.0,0.0,0.0,0.0,0.0,0.0,0.0,0.0,0.0,0.0,0.0,0.0,0.0,0.0,0.0,0.0,0.0,0.0,0.0,0.0,0.0,0.0,0.0,0.0,0.0,0.0,0.0,0.0,0.0,0.0,0.0,0.0,0.0,0.0,0.0,0.0,-1.3607,-1.3439,-1.217,-1.1074,0.0,0.0,0.0,0.0,0.0,0.0,0.0,0.0,0.0,0.0,0.0,0.0,0.0,0.0,0.0,0.0,0.0,0.0,0.0,0.0,0.0,0.0,0.0,0.0,0.0,0.0,0.0,0.0,0.0,0.0,0.0,0.0,0.0,0.0,0.0,0.0,0.0,0.0,0.0,0.0,0.0,0.0,0.0,0.0,0.0,0.0,0.0,0.0,0.0,0.0,0.0,0.0,0.0,0.0,0.0,0.0,0.0,0.0,0.0,0.0,0.0,0.0,0.0,0.0,0.0,0.0,0.0,0.0,0.0,0.0,0.0,0.0,0.0,0.0,0.0,0.0,0.0,0.0,0.0,0.0,0.0,0.0,0.0,0.0,0.0,0.0,0.0,0.0,0.0,0.0,0.0,0.0,0.0,0.0,0.0,0.0,0.0,0.0,0.0,0.0,0.0,0.0,0.0,0.0,0.0,0.0,0.0,0.0,0.0,0.0,-1.3954,-1.4274,-1.4321,-1.2897,-1.1867,-1.1391,0.0,0.0,0.0,0.0,0.0,0.0,0.0,0.0,0.0,0.0,0.0,0.0,0.0,0.0,0.0,0.0,0.0,0.0,0.0,0.0,0.0,0.0,0.0,0.0,0.0,0.0,0.0,0.0,0.0,0.0,0.0,0.0,0.0,0.0,0.0,0.0,0.0,0.0,0.0,0.0,0.0,0.0,0.0,0.0,0.0,0.0,0.0,0.0,0.0,0.0,0.0,0.0,0.0,0.0,0.0,0.0,0.0,0.0,0.0,0.0,0.0,0.0,0.0,0.0,0.0,0.0,0.0,0.0,0.0,0.0,0.0,0.0,0.0,0.0,0.0,0.0,0.0,0.0,0.0,0.0,0.0,0.0,0.0,0.0,0.0,0.0,0.0,0.0,0.0,0.0,0.0,0.0,0.0,0.0,0.0,0.0,0.0,0.0,0.0,0.0,0.0,0.0,0.0,0.0,0.0,0.0,0.0,0.0,0.0,-1.4378,-1.5002,-1.4891,-1.3671,-1.2901,0.0,0.0,0.0,0.0,0.0,0.0,0.0,0.0,0.0,0.0,0.0,0.0,0.0,0.0,0.0,0.0,0.0,0.0,0.0,0.0,0.0,0.0,0.0,0.0,0.0,0.0,0.0,0.0,0.0,0.0,0.0,0.0,0.0,0.0,0.0,0.0,0.0,0.0,0.0,0.0,0.0,0.0,0.0,0.0,0.0,0.0,0.0,0.0,0.0,0.0,0.0,0.0,0.0,0.0,0.0,0.0,0.0,0.0,0.0,0.0,0.0,0.0,0.0,0.0,0.0,0.0,0.0,0.0,0.0,0.0,0.0,0.0,0.0,0.0,0.0,0.0,0.0,0.0,0.0,0.0,0.0,0.0,0.0,0.0,0.0,0.0,0.0,0.0,0.0,0.0,0.0,0.0,0.0,0.0,0.0,0.0,0.0,0.0,0.0,0.0,0.0,0.0,0.0,0.0,0.0,0.0,0.0,0.0,0.0,-1.3093,-1.4971,-1.6026,-1.6083,-1.5203,-1.437,0.0,0.0,0.0,0.0,0.0,0.0,0.0,0.0,0.0,0.0,0.0,0.0,0.0,0.0,0.0,0.0,0.0,0.0,0.0,0.0,0.0,0.0,0.0,0.0,0.0,0.0,0.0,0.0,0.0,0.0,0.0,0.0,0.0,0.0,0.0,0.0,0.0,0.0,0.0,0.0,0.0,0.0,0.0,0.0,0.0,0.0,0.0,0.0,0.0,0.0,0.0,0.0,0.0,0.0,0.0,0.0,0.0,0.0,0.0,0.0,0.0,0.0,0.0,0.0,0.0,0.0,0.0,0.0,0.0,0.0,0.0,0.0,0.0,0.0,0.0,0.0,0.0,0.0,0.0,0.0,0.0,0.0,0.0,0.0,0.0,0.0,0.0,0.0,0.0,0.0,0.0,0.0,0.0,0.0,0.0,0.0,0.0,0.0,0.0,0.0,0.0,0.0,0.0,0.0,0.0,0.0,0.0,0.0,0.0,-1.4132,0.0,-1.7065,0.0,-1.6472,-1.5544,0.0,0.0,0.0,0.0,0.0,0.0,0.0,0.0,0.0,0.0,0.0,0.0,0.0,0.0,0.0,0.0,0.0,0.0,0.0,0.0,0.0,0.0,0.0,0.0,0.0,0.0,0.0,0.0,0.0,0.0,0.0,0.0,0.0,0.0,0.0,0.0,0.0,0.0,0.0,0.0,0.0,0.0,0.0,0.0,0.0,0.0,0.0,0.0,0.0,0.0,0.0,0.0,0.0,0.0,0.0,0.0,0.0,0.0,0.0,0.0,0.0,0.0,0.0,0.0,0.0,0.0,0.0,0.0,0.0,0.0,0.0,0.0,0.0,0.0,0.0,0.0,0.0,0.0,0.0,0.0,0.0,0.0,0.0,0.0,0.0,0.0,0.0,0.0,0.0,0.0,0.0,0.0,0.0,0.0,0.0,0.0,0.0,0.0,0.0,0.0,0.0,0.0,0.0,0.0,0.0,0.0,0.0,0.0,-1.3023,-1.6449,-1.7445,-1.8038,-1.8204,-1.7497,-1.6465,0.0,0.0,0.0,0.0,0.0,0.0,0.0,0.0,0.0,0.0,0.0,0.0,0.0,0.0,0.0,0.0,0.0,0.0,0.0,0.0,0.0,0.0,0.0,0.0,0.0,0.0,0.0,0.0,0.0,0.0,0.0,0.0,0.0,0.0,0.0,0.0,0.0,0.0,0.0,0.0,0.0,0.0,0.0,0.0,0.0,0.0,0.0,0.0,0.0,0.0,0.0,0.0,0.0,0.0,0.0,0.0,0.0,0.0,0.0,0.0,0.0,0.0,0.0,0.0,0.0,0.0,0.0,0.0,0.0,0.0,0.0,0.0,0.0,0.0,0.0,0.0,0.0,0.0,0.0,0.0,0.0,0.0,0.0,0.0,0.0,0.0,0.0,0.0,0.0,0.0,0.0,0.0,0.0,0.0,0.0,0.0,0.0,0.0,0.0,0.0,0.0,0.0,0.0,0.0,0.0,0.0,0.0,0.0,0.0,-1.7831,-1.8891,-1.9578,-1.9888,-1.9491,-1.8163,0.0,0.0,0.0,0.0,0.0,0.0,0.0,0.0,0.0,0.0,0.0,0.0,0.0,0.0,0.0,0.0,0.0,0.0,0.0,0.0,0.0,0.0,0.0,0.0,0.0,0.0,0.0,0.0,0.0,0.0,0.0,0.0,0.0,0.0,0.0,0.0,0.0,0.0,0.0,0.0,0.0,0.0,0.0,0.0,0.0,0.0,0.0,0.0,0.0,0.0,0.0,0.0,0.0,0.0,0.0,0.0,0.0,0.0,0.0,0.0,0.0,0.0,0.0,0.0,0.0,0.0,0.0,0.0,0.0,0.0,0.0,0.0,0.0,0.0,0.0,0.0,0.0,0.0,0.0,0.0,0.0,0.0,0.0,0.0,0.0,0.0,0.0,0.0,0.0,0.0,0.0,0.0,0.0,0.0,0.0,0.0,0.0,0.0,0.0,0.0,0.0,0.0,0.0,0.0,0.0,0.0,0.0,0.0,0.0,-1.8659,-1.995,-2.08,-2.1259,-2.0754,-1.9276,-1.6758,0.0,0.0,0.0,0.0,0.0,0.0,0.0,0.0,0.0,0.0,0.0,0.0,0.0,0.0,0.0,0.0,0.0,0.0,0.0,0.0,0.0,0.0,0.0,0.0,0.0,0.0,0.0,0.0,0.0,0.0,0.0,0.0,0.0,0.0,0.0,0.0,0.0,0.0,0.0,0.0,0.0,0.0,0.0,0.0,0.0,0.0,0.0,0.0,0.0,0.0,0.0,0.0,0.0,0.0,0.0,0.0,0.0,0.0,0.0,0.0,0.0,0.0,0.0,0.0,0.0,0.0,0.0,0.0,0.0,0.0,0.0,0.0,0.0,0.0,0.0,0.0,0.0,0.0,0.0,0.0,0.0,0.0,0.0,0.0,0.0,0.0,0.0,0.0,0.0,0.0,0.0,0.0,0.0,0.0,0.0,0.0,0.0,0.0,0.0,0.0,0.0,0.0,0.0,0.0,0.0,0.0,0.0,0.0,-1.9043,-2.0639,-2.1712,-2.2229,-2.1368,-1.9902,0.0,0.0,0.0,0.0,0.0,0.0,0.0,0.0,0.0,0.0,0.0,0.0,0.0,0.0,0.0,0.0,0.0,0.0,0.0,0.0,0.0,0.0,0.0,0.0,0.0,0.0,0.0,0.0,0.0,0.0,0.0,0.0,0.0,0.0,0.0,0.0,0.0,0.0,0.0,0.0,0.0,0.0,0.0,0.0,0.0,0.0,0.0,0.0,0.0,0.0,0.0,0.0,0.0,0.0,0.0,0.0,0.0,0.0,0.0,0.0,0.0,0.0,0.0,0.0,0.0,0.0,0.0,0.0,0.0,0.0,0.0,0.0,0.0,0.0,0.0,0.0,0.0,0.0,0.0,0.0,0.0,0.0,0.0,0.0,0.0,0.0,0.0,0.0,0.0,0.0,0.0,0.0,0.0,0.0,0.0,0.0,0.0,0.0,0.0,0.0,0.0,0.0,0.0,0.0,0.0,0.0,0.0,0.0,0.0,-1.8887,-2.1144,-2.2555,-2.3051,-2.2229,-2.0738,0.0,0.0,0.0,0.0,0.0,0.0,0.0,0.0,0.0,0.0,0.0,0.0,0.0,0.0,0.0,0.0,0.0,0.0,0.0,0.0,0.0,0.0,0.0,0.0,0.0,0.0,0.0,0.0,0.0,0.0,0.0,0.0,0.0,0.0,0.0,0.0,0.0,0.0,0.0,0.0,0.0,0.0,0.0,0.0,0.0,0.0,0.0,0.0,0.0,0.0,0.0,0.0,0.0,0.0,0.0,0.0,0.0,0.0,0.0,0.0,0.0,0.0,0.0,0.0,0.0,0.0,0.0,0.0,0.0,0.0,0.0,0.0,0.0,0.0,0.0,0.0,0.0,0.0,0.0,0.0,0.0,0.0,0.0,0.0,0.0,0.0,0.0,0.0,0.0,0.0,0.0,0.0,0.0,0.0,0.0,0.0,0.0,0.0,0.0,0.0,0.0,0.0,0.0,0.0,0.0,0.0,0.0,0.0,-1.5911,-1.8686,-2.1069,-2.2661,-2.3419,-2.2824,-2.1486,0.0,0.0,0.0,0.0,0.0,0.0,0.0,0.0,0.0,0.0,0.0,0.0,0.0,0.0,0.0,0.0,0.0,0.0,0.0,0.0,0.0,0.0,0.0,0.0,0.0,0.0,0.0,0.0,0.0,0.0,0.0,0.0,0.0,0.0,0.0,0.0,0.0,0.0,0.0,0.0,0.0,0.0,0.0,0.0,0.0,0.0,0.0,0.0,0.0,0.0,0.0,0.0,0.0,0.0,0.0,0.0,0.0,0.0,0.0,0.0,0.0,0.0,0.0,0.0,0.0,0.0,0.0,0.0,0.0,0.0,0.0,0.0,0.0,0.0,0.0,0.0,0.0,0.0,0.0,0.0,0.0,0.0,0.0,0.0,0.0,0.0,0.0,0.0,0.0,0.0,0.0,0.0,0.0,0.0,0.0,0.0,0.0,0.0,0.0,0.0,0.0,0.0,0.0,0.0,0.0,0.0,0.0,0.0,-1.5744,-1.849,-2.0708,-2.2349,-2.3379,-2.3131,-2.209,0.0,0.0,0.0,0.0,0.0,0.0,0.0,0.0,0.0,0.0,0.0,0.0,0.0,0.0,0.0,0.0,0.0,0.0,0.0,0.0,0.0,0.0,0.0,0.0,0.0,0.0,0.0,0.0,0.0,0.0,0.0,0.0,0.0,0.0,0.0,0.0,0.0,0.0,0.0,0.0,0.0,0.0,0.0,0.0,0.0,0.0,0.0,0.0,0.0,0.0,0.0,0.0,0.0,0.0,0.0,0.0,0.0,0.0,0.0,0.0,0.0,0.0,0.0,0.0,0.0,0.0,0.0,0.0,0.0,0.0,0.0,0.0,0.0,0.0,0.0,0.0,0.0,0.0,0.0,0.0,0.0,0.0,0.0,0.0,0.0,0.0,0.0,0.0,0.0,0.0,0.0,0.0,0.0,0.0,0.0,0.0,0.0,0.0,0.0,0.0,0.0,0.0,0.0,0.0,0.0,0.0,0.0,0.0,-1.575,-1.8828,-2.0559,-2.1978,-2.3082,-2.2836,-2.2052,0.0,0.0,0.0,0.0,0.0,0.0,0.0,0.0,0.0,0.0,0.0,0.0,0.0,0.0,0.0,0.0,0.0,0.0,0.0,0.0,0.0,0.0,0.0,0.0,0.0,0.0,0.0,0.0,0.0,0.0,0.0,0.0,0.0,0.0,0.0,0.0,0.0,0.0,0.0,0.0,0.0,0.0,0.0,0.0,0.0,0.0,0.0,0.0,-1.239,0.0,0.0,0.0,0.0,0.0,0.0,0.0,0.0,0.0,0.0,0.0,0.0,0.0,0.0,0.0,0.0,0.0,0.0,0.0,0.0,0.0,0.0,0.0,0.0,0.0,0.0,0.0,0.0,0.0,0.0,0.0,0.0,0.0,0.0,0.0,0.0,0.0,0.0,0.0,0.0,0.0,0.0,0.0,0.0,0.0,0.0,0.0,0.0,0.0,0.0,0.0,0.0,0.0,0.0,0.0,0.0,0.0,0.0,0.0,-1.5969,-1.8921,-2.0429,-2.1695,-2.2686,-2.2374,-2.1702,0.0,0.0,0.0,0.0,0.0,0.0,0.0,0.0,0.0,0.0,0.0,0.0,0.0,0.0,0.0,0.0,0.0,0.0,0.0,0.0,0.0,0.0,0.0,0.0,0.0,0.0,0.0,0.0,0.0,0.0,0.0,0.0,0.0,0.0,0.0,0.0,0.0,0.0,0.0,0.0,0.0,0.0,0.0,0.0,0.0,0.0,0.0,0.0,0.0,0.0,0.0,0.0,0.0,0.0,0.0,0.0,0.0,0.0,0.0,0.0,0.0,0.0,0.0,0.0,0.0,0.0,0.0,0.0,0.0,0.0,0.0,0.0,0.0,0.0,0.0,0.0,0.0,0.0,0.0,0.0,0.0,0.0,0.0,0.0,0.0,0.0,0.0,0.0,0.0,0.0,0.0,0.0,0.0,0.0,0.0,0.0,0.0,0.0,0.0,0.0,0.0,0.0,0.0,0.0,0.0,0.0,0.0,-1.3967,-1.6187,-1.8848,-2.0321,-2.1486,-2.2356,-2.1902,-2.125,-2.0396,0.0,0.0,0.0,0.0,0.0,0.0,0.0,0.0,0.0,0.0,0.0,0.0,0.0,0.0,0.0,0.0,0.0,0.0,0.0,0.0,0.0,0.0,0.0,0.0,0.0,0.0,0.0,0.0,0.0,0.0,0.0,0.0,0.0,0.0,0.0,0.0,0.0,0.0,-0.4065,-0.5877,0.0,0.0,0.0,0.0,0.0,0.0,0.0,0.0,-1.4524,0.0,0.0,0.0,0.0,0.0,0.0,0.0,0.0,0.0,0.0,0.0,0.0,0.0,0.0,0.0,0.0,0.0,0.0,0.0,0.0,0.0,0.0,0.0,0.0,0.0,0.0,0.0,0.0,0.0,0.0,0.0,0.0,0.0,0.0,0.0,0.0,0.0,0.0,0.0,0.0,0.0,0.0,0.0,0.0,0.0,0.0,0.0,0.0,0.0,0.0,0.0,0.0,0.0,0.0,0.0,0.0,-1.2155,-1.4249,-1.6352,-1.8453,-2.0017,-2.1235,-2.2031,-2.1568,-2.0849,-1.9892,0.0,0.0,0.0,0.0,0.0,0.0,0.0,0.0,0.0,0.0,0.0,0.0,0.0,0.0,0.0,0.0,0.0,0.0,0.0,0.0,0.0,0.0,0.0,0.0,0.0,0.0,0.0,0.0,0.0,0.0,0.0,0.0,0.0,0.0,0.0,0.0,0.0,0.0,0.0,-0.5963,-0.7267,0.0,0.0,0.0,0.0,0.0,0.0,0.0,0.0,-1.6022,0.0,0.0,0.0,0.0,0.0,0.0,0.0,0.0,0.0,0.0,0.0,0.0,0.0,0.0,0.0,0.0,0.0,0.0,0.0,0.0,0.0,0.0,0.0,0.0,0.0,0.0,0.0,0.0,0.0,0.0,0.0,0.0,0.0,0.0,0.0,0.0,0.0,0.0,0.0,0.0,0.0,0.0,0.0,0.0,0.0,0.0,0.0,0.0,0.0,0.0,0.0,0.0,0.0,0.0,0.0,-1.2565,-1.4624,-1.6533,-1.8315,-1.9893,-2.0822,-2.1089,-2.0633,-1.9927,0.0,0.0,0.0,0.0,0.0,0.0,0.0,0.0,0.0,0.0,0.0,0.0,0.0,0.0,0.0,0.0,0.0,0.0,0.0,0.0,0.0,0.0,0.0,0.0,0.0,0.0,0.0,0.0,0.0,0.0,0.0,0.0,0.0,0.0,0.0,0.0,0.0,0.0,0.0,0.0,-0.6074,-0.7524,-0.9286,0.0,0.0,0.0,0.0,0.0,0.0,-1.6868,-1.6817,0.0,0.0,0.0,0.0,0.0,0.0,0.0,0.0,0.0,0.0,0.0,0.0,0.0,0.0,0.0,0.0,0.0,0.0,0.0,0.0,0.0,0.0,0.0,0.0,0.0,0.0,0.0,0.0,0.0,0.0,0.0,0.0,0.0,0.0,0.0,0.0,0.0,0.0,0.0,0.0,0.0,0.0,0.0,0.0,0.0,0.0,0.0,0.0,0.0,0.0,0.0,0.0,0.0,0.0,0.0,-1.2951,-1.4913,-1.664,-1.8091,-1.9687,-2.0407,-2.0202,-1.9715,-1.905,0.0,0.0,0.0,0.0,0.0,0.0,0.0,0.0,0.0,0.0,0.0,0.0,0.0,0.0,0.0,0.0,0.0,0.0,0.0,0.0,0.0,0.0,0.0,0.0,0.0,0.0,0.0,0.0,0.0,0.0,0.0,0.0,0.0,0.0,0.0,0.0,0.0,0.0,0.0,0.0,0.0,-0.8041,-0.9848,-1.1839,0.0,0.0,0.0,0.0,-1.7635,-1.757,0.0,0.0,0.0,0.0,0.0,0.0,0.0,0.0,0.0,0.0,0.0,0.0,0.0,0.0,0.0,0.0,0.0,0.0,0.0,0.0,0.0,0.0,0.0,0.0,0.0,0.0,0.0,0.0,0.0,0.0,0.0,0.0,0.0,0.0,0.0,0.0,0.0,0.0,0.0,0.0,0.0,0.0,0.0,0.0,0.0,0.0,0.0,0.0,0.0,0.0,0.0,0.0,0.0,0.0,0.0,0.0,-1.2891,-1.4967,-1.648,-1.7451,-1.9231,-2.0092,-1.9939,-1.9311,-1.8619,0.0,0.0,0.0,0.0,0.0,0.0,0.0,0.0,0.0,0.0,0.0,0.0,0.0,0.0,0.0,0.0,0.0,0.0,0.0,0.0,0.0,0.0,0.0,0.0,0.0,0.0,0.0,0.0,0.0,0.0,0.0,0.0,0.0,0.0,0.0,0.0,0.0,0.0,0.0,0.0,0.0,-0.8753,-1.0846,-1.2478,-1.4094,0.0,0.0,-1.7345,-1.7881,-1.8122,0.0,0.0,0.0,0.0,0.0,0.0,0.0,0.0,0.0,0.0,0.0,0.0,0.0,0.0,0.0,0.0,0.0,0.0,0.0,0.0,0.0,0.0,0.0,0.0,0.0,0.0,0.0,0.0,0.0,0.0,0.0,0.0,0.0,0.0,0.0,0.0,0.0,0.0,0.0,0.0,0.0,0.0,0.0,0.0,0.0,0.0,0.0,0.0,0.0,0.0,0.0,0.0,0.0,0.0,0.0,-1.1355,-1.3032,-1.496,-1.6289,-1.6967,-1.8392,-1.8997,-1.8725,-1.8197,-1.7533,0.0,0.0,0.0,0.0,0.0,0.0,0.0,0.0,0.0,0.0,0.0,0.0,0.0,0.0,0.0,0.0,0.0,0.0,0.0,0.0,0.0,0.0,0.0,0.0,0.0,0.0,0.0,0.0,0.0,0.0,0.0,0.0,0.0,0.0,0.0,0.0,0.0,0.0,0.0,0.0,0.0,0.0,-1.1477,-1.3413,0.0,0.0,0.0,-1.834,-1.8714,0.0,0.0,0.0,0.0,0.0,0.0,0.0,0.0,0.0,0.0,0.0,0.0,0.0,0.0,0.0,0.0,0.0,0.0,0.0,0.0,0.0,0.0,0.0,0.0,0.0,0.0,0.0,0.0,0.0,0.0,0.0,0.0,0.0,0.0,0.0,0.0,0.0,0.0,0.0,0.0,0.0,0.0,0.0,0.0,0.0,0.0,0.0,0.0,0.0,0.0,0.0,0.0,0.0,0.0,0.0,0.0,0.0,-1.3188,-1.4908,-1.608,-1.6649,-1.764,-1.8025,-1.7635,-1.7196,0.0,0.0,0.0,0.0,0.0,0.0,0.0,0.0,0.0,0.0,0.0,0.0,0.0,0.0,0.0,0.0,0.0,0.0,0.0,0.0,0.0,0.0,0.0,0.0,0.0,0.0,0.0,0.5663,0.0,0.0,0.0,0.0,0.0,0.0,0.0,0.0,0.0,0.0,0.0,0.0,0.0,0.0,-1.0537,-1.2237,-1.4292,-1.603,0.0,0.0,-1.9046,-1.9322,-1.9197,-1.8952,0.0,0.0,0.0,0.0,0.0,0.0,0.0,0.0,0.0,0.0,0.0,0.0,0.0,0.0,0.0,0.0,0.0,0.0,0.0,0.0,0.0,0.0,0.0,0.0,0.0,0.0,0.0,0.0,0.0,0.0,0.0,0.0,0.0,0.0,0.0,0.0,0.0,0.0,0.0,0.0,0.0,0.0,0.0,0.0,0.0,0.0,0.0,0.0,0.0,0.0,0.0,0.0,0.0,0.0,0.0,-1.3474,-1.4836,-1.5818,-1.6437,-1.7239,-1.7491,-1.7171,-1.651,-1.5833,0.0,0.0,0.0,0.0,0.0,0.0,0.0,0.0,0.0,0.0,0.0,0.0,0.0,0.0,0.0,0.0,0.0,0.0,0.0,0.0,0.0,0.0,0.0,0.0,0.0,0.0,0.0,0.0,0.0,0.0,0.0,0.0,0.0,0.0,0.0,0.0,0.0,0.0,0.0,0.0,0.0,-1.1588,-1.3287,-1.5045,-1.6559,0.0,0.0,-1.8911,-1.917,-1.9297,-1.9187,-1.8652,0.0,0.0,0.0,0.0,0.0,0.0,0.0,0.0,0.0,0.0,0.0,0.0,0.0,0.0,0.0,0.0,0.0,0.0,0.0,0.0,0.0,0.0,0.0,0.0,0.0,0.0,0.0,0.0,0.0,0.0,0.0,0.0,0.0,0.0,0.0,0.0,0.0,0.0,0.0,0.0,0.0,0.0,0.0,0.0,0.0,0.0,0.0,0.0,0.0,0.0,0.0,0.0,0.0,-1.2214,-1.3329,-1.4631,-1.5498,-1.5835,-1.6572,-1.6811,-1.6381,-1.5717,-1.5043,0.0,0.0,0.0,0.0,0.0,0.0,0.0,0.0,0.0,0.0,0.0,0.0,0.0,0.0,0.0,0.0,0.0,0.0,0.0,0.0,0.0,0.0,0.0,0.0,0.0,0.0,0.0,0.0,0.4583,0.3847,0.2456,0.0,0.0,0.0,0.0,0.0,0.0,0.0,0.0,0.0,0.0,-1.2698,-1.422,-1.5613,0.0,0.0,-1.823,-1.8619,-1.8899,-1.9052,-1.8917,-1.8277,-1.8097,0.0,0.0,0.0,0.0,0.0,0.0,0.0,0.0,0.0,0.0,0.0,0.0,0.0,0.0,0.0,0.0,0.0,0.0,0.0,0.0,0.0,0.0,0.0,0.0,0.0,0.0,0.0,0.0,0.0,0.0,0.0,0.0,0.0,0.0,0.0,0.0,0.0,0.0,0.0,0.0,0.0,0.0,0.0,0.0,0.0,0.0,0.0,0.0,0.0,0.0,0.0,0.0,-1.2375,-1.3176,-1.4411,-1.5159,-1.5342,-1.5958,-1.6087,-1.5636,-1.4928,-1.4241,0.0,0.0,0.0,0.0,0.0,0.0,0.0,0.0,0.0,0.0,0.0,0.0,0.0,0.0,0.0,0.0,0.0,0.0,0.0,0.0,0.0,0.0,0.0,0.0,0.0,0.0,0.0,0.0,0.2723,0.1658,0.0043,0.0,0.0,0.0,0.0,0.0,0.0,0.0,0.0,0.0,0.0,-1.3516,-1.4833,-1.5997,-1.6971,-1.7628,-1.7903,-1.8176,-1.8464,-1.8554,-1.8484,-1.7961,0.0,0.0,0.0,0.0,0.0,0.0,0.0,0.0,0.0,0.0,0.0,0.0,0.0,0.0,0.0,0.0,0.0,0.0,0.0,0.0,0.0,0.0,0.0,0.0,0.0,0.0,0.0,0.0,0.0,0.0,-1.0961,0.0,0.0,0.0,0.0,0.0,0.0,0.0,0.0,0.0,0.0,0.0,0.0,0.0,0.0,0.0,0.0,0.0,0.0,0.0,0.0,0.0,0.0,-1.2393,-1.3107,-1.42,-1.4813,-1.5005,-1.5425,-1.5463,-1.505,-1.4181,-1.3387,-1.2656,0.0,0.0,0.0,0.0,0.0,0.0,0.0,0.0,0.0,0.0,0.0,0.0,0.0,0.0,0.0,0.0,0.0,0.0,0.0,0.0,0.0,0.0,0.0,0.0,0.0,0.0,0.2016,0.067,-0.0609,0.0,0.0,0.0,0.0,0.0,0.0,0.0,0.0,0.0,0.0,-1.2722,-1.4058,-1.5119,-1.6063,-1.6745,-1.7134,-1.7351,-1.7634,-1.7909,-1.7837,-1.7776,0.0,0.0,0.0,0.0,0.0,0.0,0.0,0.0,0.0,0.0,0.0,0.0,0.0,0.0,0.0,0.0,0.0,0.0,0.0,0.0,0.0,0.0,0.0,0.0,0.0,0.0,0.0,-1.2732,-1.2395,0.0,0.0,0.0,0.0,0.0,0.0,0.0,0.0,0.0,0.0,0.0,-1.2173,-1.233,0.0,0.0,0.0,0.0,0.0,0.0,0.0,0.0,0.0,0.0,0.0,0.0,-1.2832,-1.3453,-1.4146,-1.4685,-1.4972,-1.5399,-1.5326,-1.4754,-1.4246,-1.3386,-1.2114,0.0,0.0,0.0,0.0,0.0,0.0,0.0,0.0,0.0,0.0,0.0,0.0,0.0,0.0,0.0,0.0,0.0,0.0,0.0,0.0,0.0,0.0,0.0,0.0,0.0,0.0621,0.0,0.0,0.0,0.0,0.0,0.0,0.0,0.0,0.0,0.0,0.0,-1.1152,-1.237,-1.3465,-1.4478,-1.5467,-1.5965,-1.6405,0.0,0.0,0.0,0.0,0.0,0.0,0.0,0.0,0.0,0.0,0.0,0.0,0.0,0.0,-1.4134,-1.4203,-1.4449,-1.4529,-1.4219,0.0,0.0,0.0,0.0,0.0,0.0,0.0,0.0,0.0,0.0,0.0,0.0,0.0,0.0,-1.4332,0.0,-1.3827,0.0,0.0,0.0,0.0,0.0,0.0,0.0,0.0,-1.2986,-1.3034,-1.3307,-1.3436,-1.3291,0.0,-1.3143,-1.2762,0.0,0.0,0.0,0.0,0.0,0.0,0.0,0.0,-1.3045,-1.3398,-1.404,-1.4476,-1.4699,-1.5066,-1.49,-1.4209,-1.3426,-1.2536,-1.1515,-1.0872,-1.0205,0.0,0.0,0.0,0.0,0.0,0.0,0.0,0.0,0.0,0.0,0.0,0.0,0.0,0.0,0.0,0.0,0.0,0.0,0.0,0.0,0.0,0.0,0.0,-0.0895,0.0,0.0,0.0,0.0,0.0,0.0,0.0,0.0,0.0,-0.9817,-1.0974,-1.2204,-1.327,-1.405,-1.4759,-1.5575,0.0,0.0,0.0,0.0,0.0,0.0,0.0,-1.6684,-1.6586,-1.6524,-1.6426,-1.6186,-1.5444,-1.4887,-1.484,0.0,0.0,-1.3721,-1.3968,-1.4031,-1.3779,-1.37,-1.3732,-1.3988,-1.4093,-1.414,0.0,0.0,0.0,0.0,0.0,0.0,0.0,0.0,-1.5072,-1.5027,0.0,-1.4819,0.0,0.0,0.0,0.0,0.0,-1.4885,0.0,0.0,-1.4574,-1.4459,-1.4157,-1.4015,-1.3854,-1.3703,-1.3563,-1.3546,-1.3616,-1.2814,0.0,0.0,0.0,0.0,0.0,0.0,-1.3008,-1.3072,-1.3862,-1.4215,-1.4124,-1.4417,-1.4211,-1.3368,-1.1877,-1.1003,-1.0877,-1.0198,-0.9492,-0.8811,-0.8505,0.0,0.0,0.0,0.0,0.0,0.0,0.0,0.0,0.0,0.0,0.0,0.0,0.0,0.0,0.0,0.0,0.0,0.0,0.0,0.0,-0.1497,0.0,0.0,0.0,0.0,0.0,0.0,0.0,0.0,0.0,0.0,-1.1176,-1.2036,-1.2971,-1.3866,0.0,0.0,0.0,0.0,-1.573,-1.5851,-1.5856,-1.5961,-1.6056,-1.6019,-1.5967,-1.6056,0.0,0.0,-1.5914,-1.5164,-1.4614,-1.4609,-1.3827,-1.3223,-1.3367,-1.3493,-1.3508,-1.3271,-1.3241,-1.3231,-1.3362,-1.3563,-1.3615,-2.1034,0.0,0.0,0.0,0.0,-1.8168,-1.7752,-1.7426,-1.6916,-1.6531,-1.6257,-1.5903,0.0,0.0,0.0,0.0,0.0,0.0,-1.4838,-1.4695,-1.4623,-1.4459,-1.4193,-1.4281,-1.408,-1.3645,-1.3792,-1.3702,-1.3341,-1.3094,-1.3122,-1.3308,0.0,0.0,0.0,0.0,-1.3395,-1.371,-1.388,-1.4011,-1.4144,-1.407,-1.3658,-1.2847,-1.1848,-1.1061,-1.0643,-0.9978,-0.9254,-0.8619,-0.7956,0.0,0.0,0.0,0.0,0.0,0.0,0.0,0.0,0.0,0.0,0.0,0.0,0.0,0.0,0.0,0.0,0.0,0.0,0.0,-0.1778,-0.2354,-0.3148,0.0,0.0,0.0,0.0,0.0,0.0,0.0,0.0,0.0,-1.2691,-1.3161,-1.3718,0.0,0.0,-1.5074,-1.5425,-1.5483,-1.5478,-1.5536,-1.5667,0.0,0.0,-1.5856,-1.5914,-1.5851,-1.5662,-1.5541,-1.5541,-1.4813,-1.4237,-1.4233,-1.3539,-1.3012,-1.3012,-1.3172,-1.322,-1.3167,-1.3157,-1.3137,-1.3266,-1.3271,-1.3319,-2.3271,-2.2759,-2.1557,-2.0719,-2.0133,-1.9491,-1.9018,-1.8671,-1.8063,-1.7638,-1.7372,-1.7053,-1.6662,-1.6355,-1.6081,0.0,0.0,0.0,-1.5455,-1.5292,-1.5264,-1.5058,-1.4726,-1.4783,-1.456,-1.4101,-1.4166,-1.4066,-1.3771,-1.3771,-1.3852,-1.4033,0.0,0.0,-1.3358,-1.3382,-1.353,-1.368,-1.3764,-1.382,-1.3884,-1.3478,-1.2944,-1.2309,-1.1476,-1.08,-1.0232,-0.9489,-0.8788,-0.8118,-0.7466,-0.6864,0.0,0.0,0.0,0.0,0.0,0.0,0.0,0.0,0.0,0.0,0.0,-0.2063,-0.1645,0.0,0.0,0.0,-0.1415,-0.1847,-0.2423,-0.3068,0.0,0.0,0.0,0.0,0.0,0.0,0.0,-1.0636,-1.1496,-1.2321,-1.3187,-1.3519,-1.3937,-1.4592,-1.4843,-1.5088,-1.5313,0.0,-1.5415,-1.5415,-1.5488,-1.5604,-1.5604,-1.5667,-1.5667,-1.5604,-1.5483,-1.5415,-1.5391,-1.4707,-1.4107,-1.399,-1.3447,-1.2886,-1.2886,-1.2983,-1.3027,-1.3027,-1.3032,-1.3017,-1.3094,-1.3089,-1.3094,-2.491,-2.4452,-2.2392,-2.1158,-2.0474,-1.986,-1.9519,-1.9343,-1.8743,-1.8491,-1.851,-1.8069,-1.774,-1.7482,-1.7073,0.0,-1.6725,-1.6571,-1.6392,-1.6194,-1.6194,-1.5963,-1.5513,-1.5385,-1.5131,-1.4828,-1.4673,-1.4621,-1.461,-1.461,-1.4621,-1.461,-1.376,-1.3267,-1.3216,-1.3505,-1.349,-1.3255,-1.359,-1.3621,-1.3324,-1.2759,-1.2278,-1.1877,-1.0944,-1.0278,-0.9765,-0.8923,-0.8152,-0.7503,-0.7073,-0.644,-0.5639,0.0,0.0,0.0,0.0,0.0,0.0,0.0,0.0,0.0,0.0,0.0,0.0,0.0,0.0,0.0,-0.1881,0.0,-0.2886,-0.356,0.0,0.0,0.0,-0.6883,-0.7908,-0.8875,-0.9717,-1.0508,0.0,0.0,-1.2924,-1.3277,-1.3752,-1.4533,-1.4848,-1.5029,-1.5156,-1.5308,-1.5352,-1.5357,-1.5362,-1.541,-1.541,-1.5415,-1.5415,-1.5415,-1.5415,-1.5415,-1.5361,-1.4707,-1.4141,-1.4082,-1.3457,-1.2886,-1.2886,-1.2886,-1.2886,-1.2934,-1.2934,-1.2934,-1.2929,-1.2929,-1.2934,-2.5051,-2.4681,-2.3844,-2.3034,-2.2216,-2.146,-2.0846,-2.0323,-1.9554,-1.906,-1.8714,-1.8201,-1.7781,-1.7432,-1.7093,-1.6967,-1.6918,-1.6712,-1.6577,-1.6436,-1.6275,-1.6019,-1.5748,-1.557,-1.53,-1.5023,-1.488,-1.4794,-1.4782,-1.4776,-1.4776,-1.4765,-1.4535,-1.4283,-1.3938,-1.3925,-1.3798,-1.3653,-1.3558,-1.3286,-1.2871,-1.2421,-1.1981,-1.1569,-1.0757,-1.0006,-0.9418,-0.8622,-0.7856,-0.7122,-0.6553,-0.5968,-0.5397,-0.4862,0.0,0.0,0.0,0.0,0.0,0.0,0.0,0.0,0.0,-0.1639,-0.1339,0.0,-0.1074,0.0,-0.2007,-0.2729,-0.3204,-0.4044,0.0,0.0,-0.6607,-0.7509,-0.8232,-0.9149,-0.9951,-1.0698,-1.126,-1.1926,-1.2544,-1.292,-1.3342,-1.3945,-1.4359,-1.472,-1.5029,-1.5093,-1.5142,-1.5205,-1.5269,-1.5254,-1.5362,-1.5415,-1.5415,-1.5415,-1.5415,-1.5415,-1.5415,-1.4651,-1.4082,-1.4034,-1.3447,-1.2949,-1.2886,-1.2886,-1.2886,-1.2886,-1.2886,-1.2886,-1.2886,-1.2886,-1.2886,-2.5178,-2.4908,-2.4532,-2.3977,-2.3287,-2.2398,-2.163,-2.0919,-2.0177,-1.9565,-1.9079,-1.8422,-1.7962,-1.7659,-1.7365,-1.7247,-1.7192,-1.6954,-1.6797,-1.665,-1.6448,-1.6231,-1.5969,-1.578,-1.5552,-1.5322,-1.5226,-1.5114,-1.5,-1.4949,-1.4897,-1.4943,-1.4954,-1.4794,-1.4496,-1.4274,-1.4051,-1.3815,-1.3472,-1.3084,-1.2671,-1.2283,-1.1877,-1.1418,-1.0565,-0.9775,-0.9152,-0.8366,-0.7551,-0.6738,-0.6176,-0.5602,-0.5099,-0.459,-0.4167,0.0,0.0,0.0,0.0,0.0,0.0,0.0,0.0,0.0,0.0,0.0,-0.1269,-0.1547,-0.2188,-0.2887,-0.3427,-0.4158,-0.4889,-0.5608,-0.6589,-0.7436,-0.8162,-0.8931,-0.9667,-1.0298,-1.0863,-1.1424,-1.1988,-1.2425,-1.2858,-1.3411,-1.3816,-1.4231,-1.4656,-1.4838,-1.4907,-1.5093,-1.5093,-1.5152,-1.5318,-1.5362,-1.5415,-1.5415,-1.5415,-1.5415,-1.5391,-1.4651,-1.4082,-1.4029,-1.3442,-1.2886,-1.2886,-1.2886,-1.2886,-1.2886,-1.2886,-1.2886,-1.2886,-1.2886,-1.2886,-2.5307,-2.509,-2.4757,-2.4371,-2.3914,-2.297,-2.2124,-2.1364,-2.0724,-2.0074,-1.9479,-1.871,-1.8305,-1.8082,-1.776,-1.7605,-1.7564,-1.7247,-1.7044,-1.6954,-1.6699,-1.6442,-1.6281,-1.6138,-1.5951,-1.5674,-1.5635,-1.5558,-1.5396,-1.5295,-1.5244,-1.5198,-1.5193,-1.5102,-1.5,-1.4624,-1.422,-1.3815,-1.3462,-1.3084,-1.272,-1.2377,-1.1855,-1.1286,-1.0442,-0.9616,-0.8862,-0.8087,-0.7214,-0.6395,-0.5924,-0.5412,-0.4847,-0.4493,-0.4188,0.0,-0.3728,0.0,0.0,0.0,0.0,0.0,0.0,0.0,0.0,-0.1327,-0.1554,-0.1974,-0.2422,-0.2919,-0.3547,-0.4171,-0.4834,-0.5656,-0.6264,-0.7012,-0.7897,-0.8498,-0.9148,-0.9673,-1.0301,-1.086,-1.1362,-1.1868,-1.2371,-1.2797,-1.3155,-1.3571,-1.4172,-1.4474,-1.4661,-1.4907,-1.4975,-1.5088,-1.5215,-1.5308,-1.5362,-1.542,-1.5415,-1.5395,-1.5312,-1.4668,-1.4121,-1.3999,-1.3408,-1.2905,-1.2886,-1.2886,-1.2886,-1.2886,-1.2886,-1.2886,-1.2886,-1.2886,-1.2886,-2.5393,-2.5243,-2.4894,-2.4592,-2.4256,-2.369,-2.2905,-2.1977,-2.1319,-2.0485,-1.9565,-1.9199,-1.8884,-1.863,-1.8422,-1.824,-1.8069,-1.772,-1.7523,-1.7406,-1.6989,-1.6791,-1.6754,-1.6522,-1.6337,-1.6188,-1.6139,-1.6113,-1.6019,-1.5919,-1.5818,-1.5806,-1.573,-1.5603,-1.5427,0.0,0.0,0.0,-1.3763,-1.3425,-1.2934,-1.2613,-1.2013,-1.1142,-1.0344,0.0,-0.8691,-0.7763,-0.7012,-0.648,-0.5879,0.0,0.0,0.0,0.0,0.0,0.0,0.0,0.0,0.0,0.0,0.0,-0.2503,-0.2198,-0.1636,-0.1571,-0.1656,-0.1995,-0.2456,-0.2945,-0.3486,-0.4191,-0.493,-0.564,-0.6318,-0.6967,-0.7659,-0.8112,-0.8627,-0.9338,-0.9856,-1.0361,-1.0867,-1.1432,-1.1868,-1.2243,-1.2556,-1.292,-1.3224,-1.3821,-1.4245,-1.4538,-1.4789,-1.5034,-1.5152,-1.5205,-1.5254,-1.5362,-1.5415,-1.5283,-1.4956,-1.4512,-1.3951,-1.3716,-1.3218,-1.2886,-1.2886,-1.2886,-1.2886,-1.2886,-1.2886,-1.2886,-1.2886,-1.2886,-1.2886,-2.5486,0.0,-2.5099,-2.485,0.0,-2.4165,-2.3599,-2.2889,-2.2105,-2.1187,-2.0227,-1.9836,-1.9573,-1.9288,-1.899,-1.8738,-1.8542,-1.8233,-1.8002,-1.7814,-1.7447,-1.7275,-1.7205,-1.6941,-1.6801,-1.6752,-1.6697,-1.6618,-1.6595,-1.6417,-1.6331,-1.6331,-1.6219,-1.6132,-1.6014,-1.532,-1.4516,-1.363,-1.3447,-1.3128,-1.2625,-1.2222,-1.1663,-1.0976,0.0,0.0,0.0,0.0,0.0,0.0,0.0,0.0,0.0,0.0,0.0,-0.4189,-0.4013,-0.3857,-0.367,-0.3548,-0.3337,-0.3026,-0.2863,-0.2511,-0.1966,-0.1887,-0.1906,-0.224,-0.2575,-0.3007,-0.3459,-0.4167,-0.4846,-0.5499,-0.6112,-0.6743,-0.7335,-0.7852,-0.8309,-0.8823,-0.9399,-0.991,-1.0364,-1.0863,-1.1373,-1.1813,-1.212,-1.2432,-1.2801,-1.3346,-1.3885,-1.4313,-1.4602,-1.4789,-1.4902,-1.5098,-1.5215,-1.5318,-1.5357,-1.5234,-1.4853,-1.4424,-1.3951,-1.3579,-1.3164,-1.2886,-1.2886,-1.2886,-1.2886,-1.2886,-1.2886,-1.2939,-1.2988,-1.2934,-1.2886,-2.5532,-2.5408,-2.5274,-2.5084,-2.4818,-2.4512,-2.4137,-2.3674,0.0,0.0,0.0,-2.0607,-2.0269,-1.9965,-1.9565,-1.9288,-1.9042,-1.8762,-1.856,-1.8307,-1.8016,-1.7754,-1.7605,-1.7441,-1.7365,-1.7323,-1.7227,-1.7124,-1.7118,-1.6928,-1.6844,-1.6808,-1.6686,-1.6563,-1.6401,-1.5705,-1.4659,-1.3373,-1.3095,-1.2764,-1.2318,-1.1844,-1.1363,-1.0814,-1.0086,-0.9406,-0.8731,-0.7994,-0.7224,-0.6501,-0.6096,-0.5651,-0.522,-0.491,-0.4734,-0.4646,-0.4419,-0.4264,-0.4216,-0.3942,-0.3699,-0.3485,-0.3189,-0.2795,-0.2295,-0.2183,-0.224,-0.2522,-0.2741,-0.3067,-0.3482,-0.4114,-0.4735,-0.5348,-0.5871,-0.6412,-0.7071,-0.7526,-0.7987,-0.8444,-0.9014,-0.9524,-0.9849,-1.0428,-1.0937,-1.1369,-1.1747,-1.2185,-1.256,-1.3155,-1.37,-1.4074,-1.4309,-1.4542,-1.4656,-1.4902,-1.5098,-1.5215,-1.525,-1.5094,-1.4741,-1.4311,-1.3887,-1.3437,-1.3101,-1.2925,-1.2886,-1.2934,-1.2934,-1.2925,-1.2978,-1.2973,-1.3065,-1.3017,-1.2968,-2.5551,-2.5474,-2.5342,-2.5197,-2.5044,-2.4832,-2.4403,-2.3794,-2.288,-2.2166,-2.1647,-2.1352,-2.0983,-2.0573,-2.0319,-2.0015,-1.9645,-1.9391,-1.9109,0.0,-1.8514,-1.8286,-1.8069,-1.7962,-1.7848,-1.7788,-1.7794,-1.7706,-1.7584,-1.7441,-1.7365,-1.7302,-1.717,-1.6792,-1.619,-1.5812,-1.4986,-1.367,-1.3489,-1.3234,-1.2806,-1.2355,-1.1739,-1.0895,-1.0456,-0.9754,-0.8831,-0.8242,-0.7682,-0.7098,-0.674,-0.6333,-0.589,-0.5773,-0.5554,-0.522,-0.5043,-0.4836,-0.4634,-0.4459,-0.4157,-0.377,-0.3458,-0.3078,-0.2521,-0.2465,-0.2465,-0.2635,-0.2798,-0.3095,-0.3632,-0.4164,-0.4709,-0.5346,-0.574,-0.6218,-0.6878,-0.7206,-0.7591,-0.8177,-0.8753,-0.9207,-0.9588,-1.0168,-1.0681,-1.093,-1.1435,-1.1875,-1.2498,-1.3099,-1.3511,-1.3636,-1.4014,-1.4323,-1.4501,-1.4666,-1.4902,-1.5152,-1.4907,-1.4659,-1.4291,-1.3936,-1.352,-1.3061,-1.2988,-1.2939,-1.2934,-1.2978,-1.3027,-1.307,-1.3099,-1.3127,-1.3175,-1.3175,-1.3175,-2.5572,-2.5551,-2.5449,-2.5333,-2.5187,-2.4914,-2.4592,-2.4183,-2.3627,-2.2975,-2.2325,-2.2017,-2.1647,-2.122,-2.0991,-2.0681,-2.0303,-2.0042,-1.9717,-1.9369,-1.9102,-1.8891,-1.8683,-1.8436,-1.8319,-1.8286,-1.8235,-1.8202,-1.8123,-1.7935,-1.7862,-1.7794,-1.759,-1.7047,-1.6315,-1.6137,-1.5535,-1.4355,-1.3679,-1.3014,-1.2385,-1.1942,-1.144,-1.0919,-1.0531,-0.9919,-0.9119,-0.8626,-0.8139,-0.7641,-0.7258,-0.6905,-0.6584,-0.639,-0.6117,-0.5762,-0.559,-0.5329,-0.5069,-0.4756,-0.4465,-0.4184,-0.3968,-0.3635,-0.3242,-0.2964,-0.2854,-0.2911,-0.3077,-0.339,-0.3844,-0.4238,-0.4777,-0.5458,-0.5756,-0.6156,-0.6751,-0.7073,-0.7396,-0.8047,-0.8568,-0.902,-0.9335,-0.9916,-1.0368,-1.0684,-1.1188,-1.1809,-1.2255,-1.274,-1.3159,-1.3446,-1.3692,-1.401,-1.4318,-1.4483,-1.4715,-1.4947,-1.4773,-1.4398,-1.4009,-1.3656,-1.3364,-1.2978,-1.2983,-1.2978,-1.2973,-1.306,-1.3152,-1.3147,-1.318,-1.3208,-1.3266,-1.342,-1.3472,-2.56,-2.559,-2.5548,-2.5439,-2.5303,-2.5008,-2.4785,-2.4589,-2.4342,-2.3832,-2.315,-2.2703,-2.2288,-2.1911,-2.1634,-2.1298,-2.091,-2.0722,-2.0371,-1.9992,-1.976,-1.9515,-1.9236,-1.8966,-1.8808,-1.8731,-1.8676,-1.8651,-1.8588,-1.8425,-1.8307,-1.8189,-1.7969,-1.7451,-1.6751,-1.6698,-1.6166,-1.5215,-1.4281,-1.3306,-1.2416,-1.1886,-1.1481,-1.1148,-1.0821,-1.0297,-0.9659,-0.9291,-0.8877,-0.8398,-0.7948,-0.7586,-0.737,-0.7075,-0.675,-0.6454,-0.6175,-0.583,-0.546,-0.5075,-0.4798,-0.4629,-0.4411,-0.4193,-0.3964,-0.3576,-0.3298,-0.3297,-0.3412,-0.3668,-0.4031,-0.4406,-0.489,-0.5461,-0.58,-0.622,-0.6813,-0.7073,-0.7398,-0.7922,-0.8506,-0.8896,-0.9212,-0.9658,-1.0174,-1.0688,-1.1251,-1.1685,-1.2062,-1.2375,-1.2736,-1.3216,-1.3454,-1.3696,-1.4125,-1.4255,-1.4381,-1.462,-1.4397,-1.405,-1.371,-1.3501,-1.3291,-1.2993,-1.3027,-1.3075,-1.3118,-1.3195,-1.3271,-1.3319,-1.3362,-1.3415,-1.3568,-1.3668,-1.3773,-2.56,-2.5608,-2.5583,-2.5508,-2.5379,-2.5225,-2.5075,-2.4921,-2.4738,-2.4465,-2.4091,-2.3423,-2.2939,-2.2591,-2.2241,-2.1928,-2.1595,-2.1346,-2.0999,-2.064,-2.0387,-2.0104,-1.976,-1.9631,-1.9457,-1.9169,-1.9125,-1.9042,-1.8905,-1.8791,-1.8592,-1.8319,-1.8189,-1.8009,-1.7747,-1.7518,-1.6975,-1.6093,-1.575,-1.498,-1.3861,-1.3007,-1.2391,-1.1993,-1.1669,-1.1227,-1.0709,-1.0501,-1.016,-0.9603,-0.9165,-0.8697,-0.8267,-0.7948,-0.7679,-0.7365,-0.691,-0.6376,-0.5828,-0.5458,-0.5185,-0.5071,-0.4798,-0.4577,-0.4463,-0.4244,-0.3968,-0.3796,-0.3742,-0.3864,-0.4172,-0.4644,-0.509,-0.5468,-0.5858,-0.6348,-0.6811,-0.7073,-0.7398,-0.7922,-0.8444,-0.8896,-0.9084,-0.9597,-1.0241,-1.094,-1.1251,-1.1659,-1.1939,-1.2128,-1.2415,-1.2927,-1.3256,-1.3593,-1.3903,-1.3781,-1.3898,-1.4162,-1.3735,-1.3437,-1.3391,-1.3226,-1.2969,-1.3091,-1.3075,-1.3162,-1.3243,-1.3271,-1.342,-1.3568,-1.3668,-1.3768,-1.3915,-1.3962,-1.3962,-2.5561,-2.5603,-2.5606,-2.556,-2.5503,-2.5428,-2.5287,-2.5168,-2.5046,-2.4872,-2.4631,-2.4218,-2.3716,-2.3174,-2.2864,-2.2556,-2.2197,-2.1948,-2.1634,-2.1282,-2.1031,-2.078,-2.0462,-2.0231,-1.998,-1.978,-1.9637,-1.9508,-1.9398,-1.9229,-1.8943,-1.863,-1.856,-1.8379,-1.8123,-1.7942,-1.7605,-1.7008,-1.6751,-1.623,-1.5438,-1.4144,-1.3288,-1.2932,-1.2596,-1.2173,-1.1644,-1.1291,-1.0908,-1.0441,-0.9935,-0.9513,-0.91,-0.8717,-0.8368,-0.7946,-0.7198,-0.6707,-0.6317,-0.5943,-0.5673,-0.5504,-0.5344,-0.5128,-0.4903,-0.4796,-0.4631,-0.446,-0.4187,-0.4135,-0.4495,-0.48,-0.5168,-0.571,-0.602,-0.6357,-0.6999,-0.7269,-0.7526,-0.7987,-0.8444,-0.8835,-0.9084,-0.9597,-1.0301,-1.0933,-1.124,-1.141,-1.1681,-1.1813,-1.1964,-1.2331,-1.2505,-1.29,-1.3437,-1.3323,-1.332,-1.3483,-1.334,-1.3138,-1.3111,-1.313,-1.3041,-1.309,-1.3215,-1.3291,-1.342,-1.3568,-1.3668,-1.3821,-1.3952,-1.4093,-1.4291,-1.4343,-1.4332,-2.5478,-2.5537,-2.559,-2.5602,-2.5598,-2.5553,-2.5467,-2.5374,-2.5319,-2.5166,-2.5001,-2.4827,-2.44,-2.3848,-2.3468,-2.3124,-2.2822,-2.2546,-2.2231,-2.1911,-2.1642,-2.1362,-2.1071,-2.0795,-2.0563,-2.0387,-2.0174,-1.9992,-1.9902,-1.9682,-1.9406,-1.9087,-1.8981,-1.8767,-1.8425,-1.8386,-1.8142,-1.772,-1.7482,-1.7157,-1.656,-1.5436,-1.4469,-1.3864,-1.3496,-1.3101,-1.2598,-1.2251,-1.1813,-1.139,-1.0844,-1.0371,-0.9953,-0.9521,-0.9001,-0.8321,-0.7634,-0.7144,-0.692,-0.649,-0.6164,-0.6048,-0.5887,-0.5616,-0.534,-0.5289,-0.5177,-0.5007,-0.4737,-0.4685,-0.4773,-0.5006,-0.5373,-0.5969,-0.6127,-0.6521,-0.7095,-0.7416,-0.7722,-0.8114,-0.8573,-0.8958,-0.9262,-0.9724,-1.0286,-1.0715,-1.0893,-1.1052,-1.1297,-1.146,-1.1612,-1.1929,-1.1997,-1.2295,-1.3041,-1.2937,-1.2847,-1.2965,-1.3025,-1.2965,-1.2936,-1.3057,-1.3172,-1.3258,-1.3387,-1.3525,-1.3668,-1.3815,-1.4004,-1.4156,-1.4285,-1.4455,-1.4605,-1.4708,-1.4743,-2.5349,-2.5415,-2.5541,-2.56,-2.5605,-2.5599,-2.5586,-2.556,-2.5504,-2.5418,-2.5263,-2.5125,-2.4949,-2.4687,-2.4081,-2.3638,-2.3369,-2.3089,-2.2772,-2.2459,-2.2192,-2.1886,-2.1552,-2.144,-2.119,-2.0893,-2.0771,-2.0538,-2.0208,-2.0053,-1.9876,-1.9646,-1.9442,-1.9221,-1.8905,-1.8791,-1.8567,-1.8189,-1.7922,-1.7598,-1.7186,-1.6815,-1.5988,-1.482,-1.4378,-1.4023,-1.3581,-1.3392,-1.3052,-1.2536,-1.19,-1.1338,-1.0799,-1.0233,-0.9499,-0.8732,-0.8318,-0.7952,-0.7518,-0.7093,-0.682,-0.6647,-0.6374,-0.6046,-0.583,-0.5775,-0.5664,-0.5334,-0.5397,-0.5413,-0.5219,-0.5387,-0.5604,-0.5858,-0.6315,-0.6733,-0.7163,-0.7506,-0.7904,-0.8347,-0.8698,-0.9116,-0.9733,-0.9991,-1.015,-1.0365,-1.0535,-1.0771,-1.1092,-1.1304,-1.1608,-1.1832,-1.1877,-1.2045,-1.2619,-1.2641,-1.2636,-1.2838,-1.2931,-1.2851,-1.2969,-1.3133,-1.3301,-1.3478,-1.3568,-1.3758,-1.391,-1.4104,-1.4332,-1.4518,-1.4691,-1.4869,-1.4971,-1.5017,-1.5045,-2.5214,-2.541,-2.5498,-2.556,-2.5602,-2.5608,-2.5605,-2.5605,-2.5571,-2.5518,-2.5434,-2.5324,-2.5205,-2.5046,-2.4723,-2.4288,-2.3844,-2.3584,-2.3277,-2.3005,-2.2738,-2.2446,-2.2169,-2.1961,-2.1735,-2.1471,-2.1253,-2.0974,-2.062,-2.0444,-2.0273,-2.0015,-1.9876,-1.9625,-1.9347,-1.9213,-1.8995,-1.8606,-1.8358,-1.8075,-1.772,-1.7427,-1.6895,-1.6208,-1.5586,-1.5025,-1.4597,-1.4228,-1.3742,-1.316,-1.2579,-1.1994,-1.1364,-1.06,-0.9925,-0.9406,-0.8949,-0.8586,-0.8206,-0.7771,-0.7456,-0.7249,-0.7023,-0.6748,-0.6482,-0.6376,-0.6211,-0.5989,-0.5937,-0.5941,-0.5952,-0.5905,-0.5992,-0.6242,-0.6485,-0.6818,-0.7227,-0.7575,-0.7872,-0.8115,-0.8473,-0.902,-0.9522,-0.9778,-0.9947,-1.0395,-1.0534,-1.0722,-1.0882,-1.106,-1.1277,-1.1475,-1.152,-1.1674,-1.2238,-1.2309,-1.2337,-1.2679,-1.2812,-1.2954,-1.3113,-1.3349,-1.3525,-1.3663,-1.3752,-1.4035,-1.4239,-1.4507,-1.4697,-1.488,-1.5102,-1.5232,-1.5385,-1.543,-1.5394,-2.5134,-2.5322,-2.5414,-2.5483,-2.5541,-2.5553,-2.5591,-2.5602,-2.5603,-2.5574,-2.5524,-2.5486,-2.5401,-2.5264,-2.5163,-2.4872,-2.4411,-2.4052,-2.3741,-2.3504,-2.3218,-2.2976,-2.273,-2.2473,-2.2254,-2.2044,-2.1721,-2.1386,-2.1119,-2.0909,-2.0704,-2.0488,-2.0308,-2.008,-1.9818,-1.9661,-1.9406,-1.9049,-1.8853,-1.8592,-1.8233,-1.7969,-1.7645,-1.7201,-1.6563,-1.5976,-1.5367,-1.4875,-1.4362,-1.3747,-1.3213,-1.2584,-1.1914,-1.1116,-1.0498,-1.0131,-0.9677,-0.9211,-0.889,-0.8464,-0.8093,-0.7839,-0.7676,-0.7399,-0.7025,-0.6923,-0.681,-0.6591,-0.6482,-0.6537,-0.6596,-0.6492,-0.6499,-0.6643,-0.6768,-0.7034,-0.7361,-0.7696,-0.7919,-0.8179,-0.8658,-0.9162,-0.9418,-0.9647,-0.9942,-1.0377,-1.0468,-1.0615,-1.0711,-1.0963,-1.112,-1.1327,-1.1567,-1.1813,-1.2241,-1.244,-1.2511,-1.2788,-1.3022,-1.3162,-1.3329,-1.352,-1.3758,-1.3847,-1.4082,-1.4321,-1.4599,-1.4869,-1.5102,-1.5289,-1.5463,-1.5635,-1.5742,-1.5842,-1.5812,-2.5069,-2.5198,-2.5274,-2.5336,-2.5398,-2.546,-2.5532,-2.5587,-2.5607,-2.5595,-2.5587,-2.559,-2.5513,-2.5402,-2.5332,-2.5197,-2.4965,-2.4488,-2.4137,-2.3905,-2.3622,-2.3405,-2.3197,-2.2976,-2.2764,-2.2544,-2.2113,-2.184,-2.1639,-2.1425,-2.1246,-2.1055,-2.0763,-2.0538,-2.0376,-2.0123,-1.9841,-1.953,-1.9354,-1.9049,-1.8669,-1.8517,-1.8202,-1.776,-1.7352,-1.6752,-1.587,-1.5361,-1.4875,-1.4425,-1.3894,-1.318,-1.2417,-1.1868,-1.1414,-1.0854,-1.0399,-0.9936,-0.9469,-0.9159,-0.8847,-0.8477,-0.8268,-0.7999,-0.7622,-0.7515,-0.7408,-0.7192,-0.7079,-0.7139,-0.7139,-0.7195,-0.7158,-0.696,-0.7118,-0.7346,-0.7643,-0.7869,-0.8184,-0.8615,-0.9109,-0.9456,-0.9454,-0.9726,-1.0075,-1.0118,-1.0337,-1.0597,-1.0713,-1.106,-1.1357,-1.1582,-1.1819,-1.217,-1.2426,-1.2681,-1.2832,-1.2978,-1.321,-1.3425,-1.3615,-1.3805,-1.4046,-1.4186,-1.446,-1.4743,-1.5017,-1.5289,-1.5513,-1.5697,-1.5869,-1.5994,-1.6094,-1.6188,-1.6281,-2.4828,-2.4996,-2.5058,-2.5172,-2.5274,-2.5383,-2.5478,-2.5545,-2.5574,-2.5608,-2.56,-2.5604,-2.5562,-2.5525,-2.5461,-2.5379,-2.5302,-2.5003,-2.4685,-2.4326,-2.4032,-2.3819,-2.3615,-2.3405,-2.3113,-2.2807,-2.258,-2.2298,-2.2047,-2.1882,-2.1675,-2.1487,-2.1198,-2.0982,-2.0763,-2.0538,-2.0266,-1.9965,-1.9767,-1.9508,-1.9221,-1.895,-1.8606,-1.8312,-1.7955,-1.7503,-1.6999,-1.6145,-1.5501,-1.5051,-1.4571,-1.392,-1.3074,-1.2452,-1.2013,-1.1573,-1.107,-1.0663,-1.03,-0.994,-0.9532,-0.9159,-0.8949,-0.8685,-0.8312,-0.8156,-0.8049,-0.7839,-0.7723,-0.7667,-0.7664,-0.7664,-0.7619,-0.7359,-0.7478,-0.764,-0.7873,-0.8099,-0.8404,-0.8745,-0.9123,-0.9329,-0.9534,-0.9864,-1.0144,-1.0335,-1.0585,-1.0824,-1.107,-1.1318,-1.1723,-1.1977,-1.2274,-1.2559,-1.2905,-1.3147,-1.3291,-1.344,-1.3621,-1.3758,-1.3947,-1.4134,-1.4332,-1.461,-1.488,-1.5153,-1.548,-1.5703,-1.5925,-1.605,-1.6213,-1.6306,-1.6442,-1.6534,-1.6626,-2.4626,-2.4794,-2.4889,-2.5,-2.5134,-2.5234,-2.534,-2.5434,-2.5534,-2.5561,-2.5561,-2.5585,-2.5605,-2.5593,-2.5551,-2.5518,-2.5457,-2.5335,-2.5094,-2.4785,-2.4456,-2.4211,-2.4001,-2.3747,-2.3464,-2.3164,-2.3003,-2.2747,-2.2456,-2.2309,-2.213,-2.189,-2.1653,-2.1448,-2.1182,-2.0974,-2.073,-2.0447,-2.0208,-2.0,-1.9732,-1.9406,-1.9109,-1.8891,-1.8507,-1.8121,-1.7727,-1.7012,-1.6324,-1.5674,-1.5079,-1.4381,-1.3637,-1.3127,-1.2642,-1.2255,-1.1823,-1.1377,-1.1019,-1.0616,-1.0201,-0.9829,-0.9577,-0.9364,-0.8995,-0.8837,-0.8636,-0.848,-0.8365,-0.8253,-0.8256,-0.8259,-0.8203,-0.8153,-0.8055,-0.8046,-0.8203,-0.8524,-0.8752,-0.899,-0.9292,-0.9521,-0.9729,-1.0142,-1.0364,-1.0667,-1.0972,-1.1221,-1.1473,-1.1769,-1.2121,-1.2417,-1.2652,-1.2987,-1.342,-1.3615,-1.3805,-1.3947,-1.4041,-1.4186,-1.4332,-1.4507,-1.4697,-1.5062,-1.5379,-1.5653,-1.5931,-1.6144,-1.6362,-1.6485,-1.6558,-1.6693,-1.6827,-1.6876,-1.6967,-2.4453,-2.4601,-2.4717,-2.4851,-2.497,-2.5056,-2.516,-2.5284,-2.5421,-2.5482,-2.5511,-2.5547,-2.5605,-2.5604,-2.5583,-2.5591,-2.5584,-2.5479,-2.5372,-2.5187,-2.4901,-2.4626,-2.4363,-2.4088,-2.3789,-2.3535,-2.3399,-2.3173,-2.2935,-2.279,-2.2571,-2.2265,-2.2113,-2.1911,-2.1683,-2.1456,-2.1238,-2.0958,-2.0722,-2.0488,-2.025,-1.9965,-1.9688,-1.9435,-1.9035,-1.8669,-1.8254,-1.7801,-1.7179,-1.6262,-1.5406,-1.4806,-1.4269,-1.3858,-1.3409,-1.2866,-1.255,-1.2121,-1.1669,-1.1322,-1.0964,-1.0506,-1.0253,-0.9943,-0.9718,-0.9409,-0.9215,-0.9113,-0.8956,-0.8857,-0.885,-0.885,-0.8956,-0.9159,-0.8788,-0.8685,-0.8801,-0.9057,-0.9267,-0.9368,-0.9684,-1.0054,-1.015,-1.0616,-1.0867,-1.107,-1.1423,-1.1719,-1.1864,-1.2161,-1.2554,-1.2842,-1.3084,-1.3467,-1.3905,-1.4035,-1.4228,-1.4547,-1.464,-1.4691,-1.4834,-1.4966,-1.5147,-1.5513,-1.5875,-1.61,-1.6318,-1.6577,-1.6784,-1.6905,-1.6983,-1.7073,-1.7164,-1.7253,-1.7295,-2.4182,-2.4329,-2.4452,-2.4575,-2.4716,-2.4889,-2.5003,-2.5091,-2.5214,-2.533,-2.5432,-2.5486,-2.5556,-2.5603,-2.5606,-2.5605,-2.5593,-2.5567,-2.5517,-2.5428,-2.5318,-2.4986,-2.4636,-2.4381,-2.4155,-2.3952,-2.3816,-2.3593,-2.3341,-2.3221,-2.301,-2.2721,-2.2571,-2.2381,-2.2076,-2.1903,-2.1713,-2.1479,-2.123,-2.0991,-2.073,-2.0447,-2.0174,-1.9932,-1.9522,-1.9154,-1.8829,-1.8226,-1.7462,-1.6472,-1.5894,-1.535,-1.4869,-1.4507,-1.4035,-1.3557,-1.317,-1.2788,-1.2358,-1.2017,-1.1669,-1.1272,-1.0968,-1.071,-1.0403,-1.0095,-0.994,-0.9832,-0.9677,-0.9517,-0.9566,-0.9562,-0.9673,-0.9836,-0.9569,-0.9354,-0.9413,-0.9629,-0.9788,-0.9836,-1.0308,-1.0616,-1.0765,-1.1116,-1.1469,-1.1569,-1.1923,-1.2323,-1.2412,-1.2696,-1.3132,-1.3382,-1.3668,-1.4004,-1.4337,-1.4466,-1.4691,-1.5142,-1.5277,-1.5277,-1.5463,-1.5647,-1.5786,-1.6063,-1.6405,-1.6669,-1.6778,-1.6941,-1.7109,-1.7275,-1.7467,-1.7569,-1.7638,-1.772,-1.7706,-2.3946,-2.4096,-2.422,-2.4373,-2.4528,-2.4704,-2.4823,-2.4934,-2.5065,-2.5191,-2.5322,-2.5418,-2.5486,-2.5551,-2.559,-2.5607,-2.5604,-2.56,-2.5569,-2.5545,-2.5457,-2.5207,-2.4894,-2.4697,-2.4515,-2.4346,-2.4183,-2.3981,-2.3759,-2.3615,-2.3431,-2.3188,-2.301,-2.2807,-2.2509,-2.2364,-2.2178,-2.192,-2.1721,-2.1462,-2.1222,-2.0991,-2.0689,-2.0436,-2.0077,-1.9724,-1.9229,-1.8655,-1.7901,-1.7047,-1.6447,-1.6014,-1.5552,-1.5136,-1.468,-1.4212,-1.3836,-1.3457,-1.2987,-1.2652,-1.2314,-1.1972,-1.1678,-1.1427,-1.112,-1.0812,-1.0655,-1.0561,-1.0395,-1.0293,-1.0289,-1.0285,-1.0446,-1.0608,-1.0494,-1.0285,-1.0087,-1.0245,-1.0407,-1.0616,-1.0922,-1.1276,-1.1368,-1.1769,-1.2013,-1.221,-1.2501,-1.2798,-1.2997,-1.3324,-1.3658,-1.3947,-1.4192,-1.4518,-1.484,-1.5011,-1.5238,-1.5647,-1.5988,-1.5988,-1.5994,-1.6225,-1.6362,-1.6583,-1.6888,-1.7135,-1.7199,-1.731,-1.7482,-1.7666,-1.7869,-1.799,-1.805,-1.8123,-1.8116,-2.3756,-2.3876,-2.4001,-2.4164,-2.4348,-2.4502,-2.4632,-2.4763,-2.4898,-2.5038,-2.5176,-2.5303,-2.5375,-2.5478,-2.5514,-2.5579,-2.5593,-2.5587,-2.5605,-2.5578,-2.5531,-2.5367,-2.5167,-2.5003,-2.4855,-2.4716,-2.455,-2.4355,-2.4164,-2.401,-2.3828,-2.3606,-2.3413,-2.3212,-2.2968,-2.2816,-2.2606,-2.2328,-2.2169,-2.194,-2.1713,-2.1479,-2.1214,-2.0918,-2.0589,-2.0131,-1.9609,-1.9095,-1.8525,-1.7747,-1.7166,-1.6674,-1.6269,-1.5756,-1.5299,-1.4841,-1.4444,-1.4077,-1.361,-1.3276,-1.2987,-1.2657,-1.2368,-1.2071,-1.1814,-1.1556,-1.1423,-1.1326,-1.1116,-1.1061,-1.1065,-1.1171,-1.1276,-1.1418,-1.1514,-1.1364,-1.1065,-1.0977,-1.1137,-1.1377,-1.1628,-1.1918,-1.2121,-1.2417,-1.2701,-1.2837,-1.3127,-1.342,-1.3663,-1.3889,-1.4264,-1.4553,-1.4789,-1.5023,-1.5295,-1.5558,-1.5824,-1.6182,-1.6601,-1.6729,-1.6595,-1.6693,-1.6869,-1.7093,-1.7288,-1.7495,-1.7618,-1.7733,-1.7862,-1.8036,-1.8277,-1.8328,-1.8379,-1.8471,-1.8517,-2.3467,-2.3598,-2.3765,-2.3948,-2.4086,-2.4275,-2.44,-2.4493,-2.4629,-2.479,-2.4957,-2.5043,-2.516,-2.5255,-2.5371,-2.5473,-2.5526,-2.5566,-2.5609,-2.5604,-2.56,-2.556,-2.5453,-2.5291,-2.5139,-2.5,-2.486,-2.4712,-2.4559,-2.4372,-2.4192,-2.3981,-2.3819,-2.3646,-2.3405,-2.3236,-2.3044,-2.279,-2.2606,-2.2392,-2.2133,-2.194,-2.1705,-2.1362,-2.0886,-2.0455,-2.007,-1.9752,-1.9391,-1.8817,-1.8007,-1.7256,-1.6752,-1.6367,-1.592,-1.5484,-1.5091,-1.4737,-1.4384,-1.4004,-1.3678,-1.3377,-1.303,-1.2774,-1.2579,-1.2358,-1.2278,-1.2175,-1.2017,-1.1954,-1.1959,-1.1968,-1.2121,-1.2215,-1.2344,-1.2379,-1.2295,-1.2058,-1.1868,-1.1986,-1.23,-1.2574,-1.2677,-1.3079,-1.3319,-1.3457,-1.3747,-1.4093,-1.4321,-1.4542,-1.4817,-1.5142,-1.5328,-1.5558,-1.5863,-1.6126,-1.6386,-1.6693,-1.7115,-1.7371,-1.724,-1.7269,-1.7441,-1.7564,-1.7686,-1.7848,-1.8016,-1.8156,-1.8321,-1.8499,-1.863,-1.868,-1.8743,-1.8834,-1.8872,-2.3208,-2.3319,-2.354,-2.3716,-2.3873,-2.4027,-2.4173,-2.4275,-2.4426,-2.4594,-2.4706,-2.4837,-2.4994,-2.5115,-2.5215,-2.531,-2.5408,-2.5519,-2.5576,-2.5592,-2.5604,-2.5602,-2.5583,-2.5498,-2.5377,-2.5226,-2.5098,-2.4975,-2.4823,-2.4676,-2.4508,-2.4319,-2.4155,-2.3992,-2.3789,-2.3649,-2.3445,-2.3203,-2.306,-2.2824,-2.2554,-2.24,-2.2113,-2.1756,-2.1291,-2.0878,-2.0599,-2.0261,-1.9972,-1.9544,-1.8862,-1.8094,-1.7503,-1.7089,-1.6655,-1.6194,-1.5824,-1.5418,-1.5017,-1.4697,-1.4373,-1.4004,-1.3742,-1.3552,-1.3362,-1.3142,-1.3099,-1.2997,-1.2944,-1.2842,-1.2842,-1.289,-1.2949,-1.3094,-1.3213,-1.3299,-1.3351,-1.292,-1.2602,-1.2754,-1.3025,-1.3304,-1.3547,-1.3836,-1.4071,-1.4212,-1.4398,-1.4737,-1.4954,-1.5175,-1.54,-1.5674,-1.5863,-1.6132,-1.6436,-1.6693,-1.6934,-1.7234,-1.757,-1.7781,-1.7774,-1.7888,-1.8082,-1.8082,-1.8088,-1.8286,-1.8418,-1.8602,-1.8718,-1.8834,-1.8941,-1.9024,-1.9093,-1.9123,-1.916,-2.2902,-2.3061,-2.3256,-2.3444,-2.3656,-2.3771,-2.3926,-2.4056,-2.4247,-2.4356,-2.4474,-2.466,-2.478,-2.4913,-2.5018,-2.5123,-2.5292,-2.5408,-2.5486,-2.5536,-2.5564,-2.5582,-2.5575,-2.557,-2.5519,-2.5401,-2.53,-2.5176,-2.5063,-2.4936,-2.4804,-2.4666,-2.4489,-2.4327,-2.4164,-2.403,-2.384,-2.3601,-2.345,-2.3259,-2.3001,-2.2859,-2.2554,-2.2133,-2.1799,-2.146,-2.1142,-2.0829,-2.0522,-2.015,-1.9782,-1.9229,-1.856,-1.7888,-1.7393,-1.6921,-1.6515,-1.6082,-1.5662,-1.5355,-1.5051,-1.4651,-1.4547,-1.4408,-1.4129,-1.4041,-1.3941,-1.3894,-1.3842,-1.3842,-1.3852,-1.3847,-1.3894,-1.3988,-1.4124,-1.4253,-1.4253,-1.3774,-1.3726,-1.3689,-1.3847,-1.4106,-1.4329,-1.4588,-1.4777,-1.496,-1.5147,-1.5328,-1.5585,-1.58,-1.602,-1.6238,-1.6423,-1.6716,-1.7018,-1.7275,-1.7523,-1.7713,-1.8009,-1.8175,-1.83,-1.8521,-1.8592,-1.8457,-1.8464,-1.8651,-1.8798,-1.892,-1.904,-1.9146,-1.9258,-1.9339,-1.9376,-1.9413,-1.945,-2.2624,-2.279,-2.2986,-2.3184,-2.3374,-2.3504,-2.3642,-2.3783,-2.3937,-2.4058,-2.4183,-2.4402,-2.4519,-2.4601,-2.4785,-2.4975,-2.5164,-2.5274,-2.536,-2.5434,-2.5471,-2.5522,-2.5571,-2.558,-2.5566,-2.5559,-2.5484,-2.5401,-2.5329,-2.5254,-2.5086,-2.4956,-2.4836,-2.4693,-2.454,-2.4389,-2.4201,-2.4002,-2.386,-2.3649,-2.3418,-2.3227,-2.2976,-2.2537,-2.2303,-2.2005,-2.1739,-2.1469,-2.1166,-2.0837,-2.0499,-2.0112,-1.9522,-1.8662,-1.7995,-1.7468,-1.7124,-1.6752,-1.6361,-1.6083,-1.5864,-1.5605,-1.5383,-1.526,-1.5085,-1.4954,-1.4909,-1.4869,-1.4869,-1.4869,-1.4875,-1.4863,-1.4869,-1.4915,-1.5034,-1.5203,-1.5197,-1.5186,-1.4994,-1.4812,-1.4869,-1.4897,-1.5141,-1.5316,-1.5496,-1.5674,-1.5856,-1.6032,-1.6201,-1.6411,-1.6625,-1.6801,-1.6983,-1.7262,-1.7585,-1.7848,-1.8095,-1.8187,-1.8429,-1.8592,-1.8791,-1.9064,-1.9108,-1.8988,-1.8912,-1.9019,-1.9169,-1.9243,-1.9362,-1.9479,-1.9589,-1.9654,-1.9697,-1.9741,-1.9733,-2.2326,-2.2446,-2.2668,-2.2885,-2.3086,-2.319,-2.3333,-2.3508,-2.3642,-2.3753,-2.3919,-2.4105,-2.4257,-2.4355,-2.4505,-2.4737,-2.4952,-2.5094,-2.5174,-2.5255,-2.5335,-2.5442,-2.5504,-2.5517,-2.5561,-2.5585,-2.5574,-2.5515,-2.5453,-2.5383,-2.5301,-2.5206,-2.5099,-2.4981,-2.486,-2.4723,-2.4563,-2.4407,-2.4238,-2.404,-2.381,-2.3597,-2.3298,-2.3058,-2.2781,-2.2547,-2.2258,-2.1994,-2.1693,-2.1352,-2.107,-2.0739,-2.0269,-1.9673,-1.89,-1.8298,-1.7854,-1.7489,-1.7173,-1.6902,-1.6733,-1.6429,-1.6299,-1.6182,-1.6051,-1.597,-1.5894,-1.5856,-1.5812,-1.5812,-1.5812,-1.5806,-1.5812,-1.585,-1.6008,-1.6126,-1.6176,-1.6349,-1.6244,-1.5915,-1.574,-1.5746,-1.5864,-1.6026,-1.6163,-1.6343,-1.6565,-1.6729,-1.685,-1.7047,-1.7249,-1.7421,-1.7632,-1.7868,-1.814,-1.8358,-1.856,-1.87,-1.8846,-1.9042,-1.9236,-1.9464,-1.9581,-1.9537,-1.9501,-1.953,-1.9545,-1.9617,-1.9733,-1.9812,-1.9912,-1.9983,-2.0025,-2.0061,-2.0018,-2.199,-2.2153,-2.2307,-2.2552,-2.279,-2.2885,-2.3011,-2.3184,-2.3342,-2.3463,-2.3593,-2.3804,-2.3958,-2.4106,-2.4284,-2.4491,-2.4731,-2.4842,-2.4949,-2.5053,-2.5142,-2.5264,-2.5356,-2.5425,-2.5479,-2.5523,-2.5571,-2.5575,-2.5515,-2.5474,-2.5441,-2.5372,-2.53,-2.5226,-2.5131,-2.5015,-2.4915,-2.4775,-2.4598,-2.4388,-2.4127,-2.3892,-2.3671,-2.3513,-2.3286,-2.3036,-2.2772,-2.252,-2.2214,-2.1903,-2.1617,-2.1306,-2.0918,-2.0591,-2.0047,-1.9317,-1.8786,-1.8369,-1.8047,-1.7828,-1.7612,-1.7347,-1.7277,-1.716,-1.7028,-1.6973,-1.6944,-1.6831,-1.6831,-1.6824,-1.686,-1.6824,-1.6831,-1.6879,-1.6993,-1.7124,-1.716,-1.7284,-1.7449,-1.714,-1.674,-1.6612,-1.6746,-1.671,-1.6837,-1.6957,-1.7137,-1.7345,-1.7468,-1.7659,-1.7861,-1.8068,-1.8273,-1.85,-1.87,-1.8853,-1.9049,-1.9177,-1.9332,-1.9501,-1.9646,-1.9833,-1.9904,-2.0003,-2.0065,-2.0065,-2.0045,-1.999,-2.0033,-2.0138,-2.0277,-2.0304,-2.027,-2.027,-2.0262,-2.1708,-2.1878,-2.1998,-2.2215,-2.246,-2.2525,-2.2632,-2.2782,-2.2969,-2.3111,-2.3206,-2.3426,-2.358,-2.3747,-2.4049,-2.4293,-2.4433,-2.4515,-2.4657,-2.4795,-2.4896,-2.5,-2.5139,-2.5274,-2.533,-2.5383,-2.5464,-2.5548,-2.5537,-2.5527,-2.5542,-2.5498,-2.5455,-2.543,-2.5345,-2.5255,-2.5172,-2.5039,-2.49,-2.4684,-2.442,-2.4256,-2.4117,-2.3952,-2.3771,-2.357,-2.3305,-2.3061,-2.2771,-2.2503,-2.2241,-2.1948,-2.1625,-2.1391,-2.1086,-2.0524,-1.9864,-1.9162,-1.8902,-1.8734,-1.8549,-1.8295,-1.8192,-1.8087,-1.8027,-1.7966,-1.792,-1.79,-1.7907,-1.7907,-1.7894,-1.79,-1.79,-1.7947,-1.7994,-1.8087,-1.814,-1.812,-1.8291,-1.8291,-1.7867,-1.7639,-1.7571,-1.7503,-1.7468,-1.7585,-1.7747,-1.7915,-1.8075,-1.8273,-1.8493,-1.8693,-1.8846,-1.9035,-1.9214,-1.9339,-1.9479,-1.9652,-1.9811,-1.994,-2.0115,-2.0254,-2.0384,-2.0452,-2.052,-2.052,-2.046,-2.0399,-2.0388,-2.0423,-2.0517,-2.0509,-2.0467,-2.0501,-2.0543,-2.1183,-2.1464,-2.1661,-2.1894,-2.2061,-2.2175,-2.2307,-2.2419,-2.2597,-2.2738,-2.2885,-2.3028,-2.323,-2.3459,-2.3705,-2.3901,-2.405,-2.4155,-2.4329,-2.4484,-2.4588,-2.4687,-2.4818,-2.4952,-2.5075,-2.5164,-2.5245,-2.5337,-2.5415,-2.5529,-2.5586,-2.5569,-2.5549,-2.5531,-2.5488,-2.5434,-2.5362,-2.5244,-2.5096,-2.4917,-2.4752,-2.4623,-2.4496,-2.4336,-2.4211,-2.4032,-2.3824,-2.3586,-2.3356,-2.3156,-2.2914,-2.2643,-2.2342,-2.2094,-2.1853,-2.1625,-2.1125,-2.0454,-1.9798,-1.9643,-1.9456,-1.9303,-1.92,-1.9163,-1.9081,-1.8992,-1.894,-1.8955,-1.8894,-1.8894,-1.8894,-1.8819,-1.8781,-1.8826,-1.8916,-1.893,-1.8983,-1.9027,-1.9065,-1.9035,-1.8997,-1.8717,-1.8479,-1.8323,-1.8252,-1.8266,-1.8383,-1.85,-1.8669,-1.8867,-1.9087,-1.9303,-1.9413,-1.9559,-1.9696,-1.9839,-1.998,-2.012,-2.0273,-2.0433,-2.0535,-2.0669,-2.0794,-2.0893,-2.0958,-2.0933,-2.086,-2.0761,-2.0695,-2.0736,-2.0785,-2.0777,-2.0777,-2.0826,-2.0867,-2.0569,-2.0933,-2.1325,-2.1534,-2.1656,-2.1794,-2.1932,-2.2047,-2.2183,-2.236,-2.2508,-2.2624,-2.2859,-2.3133,-2.3289,-2.3473,-2.3658,-2.3762,-2.3928,-2.4088,-2.4183,-2.4301,-2.4446,-2.4598,-2.4718,-2.4865,-2.493,-2.5023,-2.5159,-2.5314,-2.5464,-2.558,-2.5575,-2.5584,-2.558,-2.5542,-2.5488,-2.5409,-2.526,-2.5157,-2.5067,-2.4962,-2.4835,-2.4718,-2.4601,-2.4472,-2.4318,-2.409,-2.3906,-2.3723,-2.3517,-2.3273,-2.2986,-2.2805,-2.2609,-2.2423,-2.2099,-2.1741,-2.11,-2.0742,-2.0452,-2.0291,-2.0223,-2.0173,-2.012,-2.0035,-1.9986,-2.0012,-1.9924,-1.9904,-1.9876,-1.9798,-1.9735,-1.9743,-1.9808,-1.9788,-1.976,-1.9752,-1.976,-1.9767,-1.9732,-1.9667,-1.9435,-1.9244,-1.9102,-1.9004,-1.9019,-1.9087,-1.9243,-1.9435,-1.961,-1.9854,-2.0003,-2.01,-2.0197,-2.0334,-2.0436,-2.0571,-2.0736,-2.0868,-2.095,-2.1087,-2.1183,-2.1285,-2.1388,-2.1379,-2.1293,-2.1158,-2.0999,-2.1023,-2.1038,-2.1087,-2.1127,-2.1167,-2.1167,-2.0033,-2.0131,-2.0827,-2.1167,-2.123,-2.1363,-2.1518,-2.1648,-2.1768,-2.1878,-2.2007,-2.2209,-2.2473,-2.2712,-2.2841,-2.3033,-2.3245,-2.3324,-2.345,-2.3588,-2.3717,-2.3853,-2.3994,-2.4155,-2.429,-2.4439,-2.4539,-2.4642,-2.4766,-2.492,-2.5194,-2.5459,-2.543,-2.5537,-2.5593,-2.5565,-2.5544,-2.5496,-2.5395,-2.5367,-2.5325,-2.5245,-2.5127,-2.5069,-2.4981,-2.4864,-2.4685,-2.4523,-2.4368,-2.4201,-2.4034,-2.3828,-2.3605,-2.345,-2.3315,-2.3153,-2.3025,-2.276,-2.2418,-2.179,-2.1395,-2.125,-2.1179,-2.1132,-2.1101,-2.1093,-2.1093,-2.1046,-2.0982,-2.0935,-2.0927,-2.0886,-2.0707,-2.0657,-2.0632,-2.0581,-2.0514,-2.0447,-2.0455,-2.0444,-2.0376,-2.03,-2.0258,-2.0019,-1.9709,-1.958,-1.9551,-1.9631,-1.9846,-2.0038,-2.017,-2.0342,-2.0535,-2.0644,-2.0728,-2.0827,-2.0934,-2.1023,-2.1166,-2.1261,-2.1378,-2.1487,-2.1579,-2.1656,-2.1754,-2.1768,-2.1655,-2.1324,-2.1124,-2.1228,-2.1294,-2.1356,-2.1356,-2.1356,-2.1356,-1.9552,-1.9669,-2.0058,-2.0444,-2.0802,-2.095,-2.1071,-2.1166,-2.1276,-2.1401,-2.1548,-2.1794,-2.2007,-2.215,-2.2273,-2.2421,-2.2608,-2.2704,-2.2865,-2.303,-2.3156,-2.3346,-2.3517,-2.3669,-2.3785,-2.3945,-2.4053,-2.42,-2.4338,-2.4413,-2.428,-2.4469,-2.4888,-2.5372,-2.5478,-2.5425,-2.5497,-2.5522,-2.552,-2.5518,-2.5493,-2.5453,-2.5355,-2.5284,-2.5226,-2.5138,-2.5023,-2.4933,-2.4812,-2.4685,-2.4554,-2.4355,-2.4172,-2.4072,-2.3959,-2.3821,-2.3751,-2.365,-2.3436,-2.2826,-2.2318,-2.2184,-2.2146,-2.2116,-2.2099,-2.2096,-2.204,-2.1992,-2.1935,-2.1877,-2.1765,-2.1663,-2.1529,-2.1493,-2.144,-2.1347,-2.1245,-2.1134,-2.1047,-2.0991,-2.0886,-2.078,-2.0747,-2.0747,-2.0413,-2.0147,-2.0162,-2.0204,-2.0376,-2.0561,-2.0695,-2.0819,-2.0974,-2.1111,-2.119,-2.1293,-2.1417,-2.1509,-2.1609,-2.1683,-2.1764,-2.1836,-2.194,-2.2023,-2.1927,-2.1734,-2.1558,-2.1323,-2.1205,-2.1179,-2.1396,-2.1601,-2.1609,-2.1543,-2.1538,-1.9087,-1.9176,-1.9347,-1.9782,-2.0281,-2.0486,-2.0605,-2.0681,-2.0739,-2.0878,-2.1111,-2.1301,-2.144,-2.1546,-2.165,-2.1807,-2.1973,-2.2099,-2.225,-2.2405,-2.2573,-2.2764,-2.2949,-2.3096,-2.3194,-2.3383,-2.3521,-2.3648,-2.3753,-2.3739,-2.3515,-2.3512,-2.3806,-2.4109,-2.4549,-2.4967,-2.5145,-2.5195,-2.5474,-2.5557,-2.5549,-2.5552,-2.5496,-2.5434,-2.5383,-2.5363,-2.5287,-2.5204,-2.5149,-2.5064,-2.4972,-2.4863,-2.4728,-2.4595,-2.4523,-2.4444,-2.437,-2.4284,-2.4072,-2.3584,-2.3147,-2.3009,-2.3012,-2.2999,-2.3019,-2.2979,-2.2911,-2.2855,-2.2797,-2.2678,-2.2547,-2.2378,-2.2239,-2.2183,-2.2056,-2.194,-2.1807,-2.1672,-2.1598,-2.1493,-2.1393,-2.1291,-2.1237,-2.1237,-2.0983,-2.0722,-2.0646,-2.0712,-2.0836,-2.099,-2.1151,-2.127,-2.1427,-2.1518,-2.1628,-2.1718,-2.1845,-2.1966,-2.2052,-2.2101,-2.2178,-2.2192,-2.2027,-2.1888,-2.1735,-2.1615,-2.1308,-2.0916,-2.0962,-2.1081,-2.1169,-2.1149,-2.1433,-2.1366,-2.1628,-1.8539,-1.8616,-1.8784,-1.9177,-1.9767,-1.994,-2.008,-2.0208,-2.02,-2.0345,-2.0556,-2.0622,-2.078,-2.0975,-2.1023,-2.1158,-2.1354,-2.1477,-2.1582,-2.1736,-2.1919,-2.2071,-2.2231,-2.2405,-2.253,-2.266,-2.2795,-2.2951,-2.3015,-2.2691,-2.2461,-2.2116,-2.2002,-2.2257,-2.2728,-2.3657,-2.4122,-2.4345,-2.5055,-2.5275,-2.5483,-2.552,-2.5497,-2.5487,-2.5496,-2.5485,-2.5436,-2.5391,-2.5331,-2.5268,-2.5263,-2.5176,-2.5072,-2.501,-2.4965,-2.4929,-2.4888,-2.4873,-2.4812,-2.4168,-2.3869,-2.3771,-2.3741,-2.3737,-2.3749,-2.3746,-2.3675,-2.3559,-2.3499,-2.3397,-2.3236,-2.3036,-2.2915,-2.2781,-2.2625,-2.249,-2.2347,-2.2189,-2.2084,-2.1978,-2.1928,-2.1869,-2.1781,-2.1691,-2.1471,-2.1293,-2.1199,-2.1222,-2.1324,-2.1448,-2.1603,-2.1741,-2.1873,-2.1966,-2.2076,-2.2144,-2.2237,-2.2398,-2.2497,-2.2535,-2.2485,-2.2392,-2.2177,-2.1796,-2.1494,-2.1304,-2.0882,-2.0459,-2.0341,-2.0177,-2.034,-2.044,-2.0811,-2.1242,-2.1518,-1.8035,-1.8068,-1.8226,-1.8468,-1.8784,-1.9206,-1.9508,-1.9682,-1.9747,-1.9803,-1.9909,-1.9992,-2.0124,-2.0261,-2.0379,-2.0481,-2.0607,-2.0772,-2.0886,-2.0999,-2.1197,-2.1366,-2.1541,-2.1677,-2.1832,-2.198,-2.2099,-2.194,-2.1756,-2.1456,-2.0949,-2.0509,-2.0215,-2.0712,-2.1896,-2.2804,-2.314,-2.3784,-2.4268,-2.4617,-2.5224,-2.5356,-2.54,-2.5421,-2.5476,-2.55,-2.5488,-2.5445,-2.5422,-2.5405,-2.5407,-2.5377,-2.5346,-2.5315,-2.5305,-2.527,-2.5223,-2.5219,-2.5165,-2.4855,-2.4699,-2.4563,-2.4417,-2.4375,-2.4389,-2.4352,-2.4281,-2.4183,-2.4081,-2.3947,-2.3744,-2.3592,-2.3468,-2.3286,-2.3138,-2.3001,-2.285,-2.2686,-2.2561,-2.2453,-2.2371,-2.2324,-2.224,-2.2195,-2.2007,-2.1903,-2.1832,-2.1773,-2.1823,-2.1924,-2.2027,-2.2183,-2.2332,-2.2434,-2.2517,-2.259,-2.266,-2.2799,-2.2876,-2.2927,-2.2847,-2.2506,-2.2126,-2.1657,-2.1288,-2.0929,-2.0368,-1.9812,-1.9353,-1.9177,-1.9579,-1.9975,-2.0396,-2.0918,-2.1412,-1.7427,-1.7468,-1.7591,-1.7679,-1.7895,-1.8482,-1.8882,-1.9019,-1.9117,-1.9184,-1.9214,-1.9317,-1.9449,-1.9558,-1.9637,-1.9732,-1.9823,-2.0027,-2.0131,-2.0219,-2.0457,-2.0601,-2.0765,-2.0918,-2.1039,-2.1155,-2.1032,-2.0821,-2.0633,-2.0237,-1.9546,-1.8765,-1.836,-1.9094,-2.0292,-2.1047,-2.2045,-2.2776,-2.3365,-2.4087,-2.4681,-2.5024,-2.5117,-2.5194,-2.5276,-2.5341,-2.5381,-2.5408,-2.5435,-2.5449,-2.5457,-2.5468,-2.5484,-2.5497,-2.549,-2.5449,-2.5425,-2.542,-2.5385,-2.5337,-2.5163,-2.5083,-2.4974,-2.4922,-2.4904,-2.4837,-2.4747,-2.4652,-2.4576,-2.4418,-2.4255,-2.4118,-2.3934,-2.3744,-2.3575,-2.3468,-2.3307,-2.314,-2.3019,-2.2918,-2.2808,-2.2738,-2.2667,-2.2641,-2.2561,-2.2526,-2.2482,-2.2419,-2.2356,-2.2383,-2.2475,-2.2616,-2.2747,-2.2815,-2.2941,-2.3058,-2.314,-2.3206,-2.3085,-2.2888,-2.2605,-2.2193,-2.1856,-2.1473,-2.093,-2.0352,-1.9712,-1.9177,-1.9024,-1.9029,-1.9283,-1.966,-1.9996,-2.0513,-2.1083,-1.6772,-1.6876,-1.6876,-1.6947,-1.7124,-1.7767,-1.8135,-1.8259,-1.8422,-1.85,-1.8553,-1.8577,-1.8679,-1.8824,-1.8855,-1.8938,-1.9058,-1.9236,-1.931,-1.9427,-1.9622,-1.975,-1.9892,-2.0039,-2.0062,-2.0022,-1.9867,-1.957,-1.9465,-1.8635,-1.7792,-1.742,-1.7406,-1.7803,-1.8497,-1.9431,-2.0652,-2.1662,-2.2655,-2.3444,-2.4189,-2.4558,-2.4651,-2.4759,-2.4876,-2.4984,-2.5062,-2.5168,-2.5248,-2.5301,-2.5347,-2.5401,-2.5446,-2.5476,-2.5488,-2.549,-2.546,-2.5484,-2.5496,-2.5439,-2.5468,-2.5381,-2.5323,-2.5315,-2.5258,-2.5177,-2.5091,-2.5026,-2.4953,-2.4839,-2.4713,-2.4535,-2.4352,-2.4183,-2.4001,-2.386,-2.3714,-2.3562,-2.3468,-2.3339,-2.319,-2.3093,-2.301,-2.2985,-2.3035,-2.3051,-2.3025,-2.3025,-2.2941,-2.2807,-2.2909,-2.3033,-2.3146,-2.3194,-2.3261,-2.3173,-2.2892,-2.2747,-2.2548,-2.2356,-2.2084,-2.1817,-2.1342,-2.0886,-2.0354,-1.9849,-1.9442,-1.919,-1.9021,-1.9103,-1.9245,-1.9217,-1.9517,-2.0105,-2.0665,-1.6207,-1.6262,-1.6362,-1.6405,-1.6479,-1.6693,-1.7102,-1.7564,-1.7747,-1.7794,-1.7841,-1.7915,-1.7981,-1.8061,-1.8101,-1.814,-1.8245,-1.8348,-1.8451,-1.8566,-1.8772,-1.89,-1.9006,-1.9067,-1.8972,-1.8762,-1.8556,-1.818,-1.7532,-1.6747,-1.6526,-1.6393,-1.6481,-1.6661,-1.7124,-1.7889,-1.9301,-2.0603,-2.1661,-2.2693,-2.3464,-2.3859,-2.3989,-2.4139,-2.4307,-2.4433,-2.4586,-2.4711,-2.4801,-2.4919,-2.5003,-2.5063,-2.5145,-2.5197,-2.5229,-2.5289,-2.5311,-2.5354,-2.5381,-2.5401,-2.5424,-2.5447,-2.5408,-2.5455,-2.5447,-2.5401,-2.5352,-2.5299,-2.5233,-2.5128,-2.5003,-2.4843,-2.4685,-2.4544,-2.4371,-2.4229,-2.407,-2.3934,-2.383,-2.3698,-2.3544,-2.3459,-2.3382,-2.3382,-2.3427,-2.3504,-2.3549,-2.354,-2.3473,-2.3359,-2.3344,-2.3468,-2.3307,-2.328,-2.3027,-2.2901,-2.2522,-2.2225,-2.2026,-2.1863,-2.1689,-2.1361,-2.0813,-2.04,-2.0049,-1.9726,-1.9418,-1.9234,-1.9196,-1.9166,-1.9272,-1.9102,-1.9134,-1.9792,-2.0151,-1.554,-1.549,-1.5585,-1.5585,-1.5635,-1.5691,-1.5964,-1.6379,-1.6795,-1.6976,-1.7047,-1.7076,-1.716,-1.7208,-1.7256,-1.7297,-1.7297,-1.7476,-1.7585,-1.7673,-1.7888,-1.8007,-1.808,-1.8083,-1.7918,-1.7618,-1.7199,-1.678,-1.6024,-1.5552,-1.5279,-1.5418,-1.5549,-1.567,-1.6102,-1.6959,-1.8,-1.9252,-2.0458,-2.1702,-2.2443,-2.2982,-2.3168,-2.3341,-2.3553,-2.3754,-2.3925,-2.4052,-2.4182,-2.4376,-2.446,-2.4549,-2.4651,-2.4737,-2.4843,-2.4895,-2.4949,-2.5012,-2.5072,-2.511,-2.5173,-2.525,-2.5314,-2.5377,-2.5451,-2.5459,-2.5469,-2.5451,-2.5422,-2.5377,-2.5263,-2.5146,-2.5008,-2.4883,-2.4741,-2.4591,-2.4431,-2.4274,-2.4146,-2.4028,-2.3919,-2.384,-2.381,-2.3819,-2.3849,-2.3919,-2.397,-2.402,-2.3923,-2.3783,-2.378,-2.389,-2.3529,-2.3241,-2.2987,-2.2729,-2.2331,-2.1959,-2.1567,-2.1405,-2.1266,-2.0868,-2.0324,-2.0042,-1.9834,-1.9639,-1.9509,-1.9509,-1.9452,-1.9433,-1.9389,-1.9323,-1.9373,-1.974,-1.9929,-1.4766,-1.4658,-1.4652,-1.4698,-1.4652,-1.4812,-1.4858,-1.4903,-1.5686,-1.6082,-1.6182,-1.6182,-1.6275,-1.6367,-1.6374,-1.638,-1.646,-1.6563,-1.6678,-1.6697,-1.6951,-1.7111,-1.7127,-1.709,-1.6705,-1.6347,-1.5928,-1.5316,-1.489,-1.4451,-1.4228,-1.4385,-1.4477,-1.4624,-1.5005,-1.6073,-1.6957,-1.7636,-1.903,-2.035,-2.1342,-2.1891,-2.2165,-2.2339,-2.2582,-2.2832,-2.3079,-2.3263,-2.3386,-2.3608,-2.3759,-2.382,-2.4008,-2.4133,-2.4253,-2.4379,-2.4423,-2.4527,-2.4625,-2.4676,-2.48,-2.4917,-2.5064,-2.5159,-2.5236,-2.5431,-2.5484,-2.5525,-2.5493,-2.5492,-2.5417,-2.5354,-2.5254,-2.5134,-2.4996,-2.4864,-2.4737,-2.4582,-2.4448,-2.4346,-2.4275,-2.4201,-2.4192,-2.4183,-2.4211,-2.4293,-2.4356,-2.4408,-2.4405,-2.4246,-2.4247,-2.4292,-2.4024,-2.3622,-2.3156,-2.2818,-2.2241,-2.1798,-2.1282,-2.0943,-2.0783,-2.0346,-1.9813,-1.9818,-1.9889,-1.9816,-1.9728,-1.9713,-1.9688,-1.9663,-1.9625,-1.9587,-1.9706,-1.9882,-1.9731,-1.4206,-1.4154,-1.416,-1.4149,-1.4154,-1.4201,-1.4206,-1.4201,-1.4387,-1.4858,-1.5311,-1.5367,-1.5412,-1.5451,-1.5451,-1.5457,-1.5501,-1.5656,-1.5732,-1.582,-1.6002,-1.6083,-1.6065,-1.5806,-1.5367,-1.4813,-1.4261,-1.3801,-1.3384,-1.3138,-1.3073,-1.3153,-1.3295,-1.3546,-1.4005,-1.5102,-1.5734,-1.6237,-1.7332,-1.8714,-1.9828,-2.0485,-2.083,-2.1089,-2.1346,-2.1641,-2.1872,-2.2083,-2.2314,-2.2607,-2.2758,-2.2985,-2.3244,-2.3334,-2.3451,-2.3575,-2.3575,-2.3702,-2.3916,-2.4024,-2.4197,-2.4454,-2.4638,-2.482,-2.5026,-2.5304,-2.5467,-2.55,-2.5544,-2.5553,-2.5561,-2.5517,-2.547,-2.535,-2.5255,-2.5133,-2.5024,-2.4883,-2.4736,-2.466,-2.4607,-2.4575,-2.4559,-2.4559,-2.4617,-2.4639,-2.466,-2.4712,-2.4809,-2.4743,-2.469,-2.4709,-2.461,-2.4232,-2.3615,-2.2798,-2.2142,-2.1493,-2.0948,-2.0627,-2.0362,-2.0153,-1.9944,-1.9993,-2.0022,-1.9974,-1.9943,-1.9932,-1.9911,-1.9889,-1.9845,-1.98,-1.9759,-1.9873,-1.9602,-1.3557,-1.3515,-1.3467,-1.342,-1.342,-1.3367,-1.3314,-1.3319,-1.3314,-1.3563,-1.403,-1.4357,-1.4634,-1.4628,-1.4588,-1.4588,-1.4634,-1.4806,-1.4841,-1.4932,-1.4971,-1.5073,-1.4873,-1.4545,-1.408,-1.3489,-1.2795,-1.2278,-1.2018,-1.1947,-1.1966,-1.2003,-1.2151,-1.2456,-1.3015,-1.3727,-1.4411,-1.4993,-1.5812,-1.6766,-1.7963,-1.8611,-1.9364,-1.9662,-1.9966,-2.028,-2.0472,-2.0629,-2.0709,-2.0866,-2.0927,-2.1027,-2.1224,-2.1355,-2.1581,-2.1724,-2.1921,-2.2313,-2.2718,-2.3082,-2.3404,-2.3736,-2.4091,-2.425,-2.4517,-2.4791,-2.5164,-2.5233,-2.5443,-2.5486,-2.5566,-2.5566,-2.5545,-2.5469,-2.5399,-2.5311,-2.5216,-2.5109,-2.5015,-2.4962,-2.4923,-2.4883,-2.486,-2.4854,-2.4891,-2.4952,-2.4965,-2.4998,-2.509,-2.5155,-2.5123,-2.5044,-2.4912,-2.4531,-2.386,-2.2899,-2.1924,-2.1281,-2.0837,-2.05,-2.0345,-2.024,-2.0152,-2.0185,-2.0185,-2.0169,-2.0145,-2.0129,-2.0131,-2.0114,-2.0069,-2.0012,-1.9982,-1.9967,-1.9895,-1.2646,-1.2619,-1.2565,-1.2487,-1.2507,-1.2461,-1.2426,-1.2426,-1.2426,-1.2431,-1.2564,-1.3357,-1.3684,-1.3831,-1.3831,-1.3784,-1.3831,-1.3862,-1.3915,-1.3967,-1.3967,-1.4003,-1.3754,-1.3363,-1.2705,-1.2062,-1.1397,-1.1122,-1.09,-1.0847,-1.0799,-1.089,-1.1025,-1.123,-1.1794,-1.2413,-1.3076,-1.363,-1.4238,-1.4603,-1.5568,-1.6593,-1.7605,-1.8163,-1.8477,-1.878,-1.8927,-1.8969,-1.8895,-1.8967,-1.9053,-1.9284,-1.9421,-1.9619,-1.9756,-1.9965,-2.0221,-2.0747,-2.1289,-2.1751,-2.2371,-2.2961,-2.3347,-2.3678,-2.395,-2.4299,-2.4661,-2.497,-2.5171,-2.5409,-2.5496,-2.5577,-2.5566,-2.5572,-2.5515,-2.5473,-2.5394,-2.531,-2.5274,-2.5225,-2.5185,-2.5143,-2.5143,-2.5135,-2.5166,-2.5216,-2.5264,-2.5301,-2.5324,-2.5354,-2.5352,-2.5224,-2.5072,-2.4614,-2.4228,-2.3414,-2.2445,-2.1846,-2.1459,-2.082,-2.0352,-2.0323,-2.0313,-2.0323,-2.0332,-2.0323,-2.0301,-2.0279,-2.0302,-2.0283,-2.0239,-2.0202,-2.0278,-2.0295,-2.0404,-1.1277,-1.1223,-1.1476,-1.1524,-1.1479,-1.172,-1.1832,-1.1828,-1.1828,-1.1823,-1.1873,-1.1972,-1.2358,-1.2803,-1.2808,-1.2803,-1.2832,-1.2866,-1.2904,-1.2909,-1.2904,-1.2904,-1.264,-1.1998,-1.1084,-1.0469,-1.0016,-0.9837,-0.9771,-0.9697,-0.9637,-0.9695,-1.004,-1.0358,-1.0896,-1.1405,-1.1848,-1.2344,-1.2632,-1.2999,-1.3695,-1.4789,-1.6028,-1.6583,-1.6889,-1.6996,-1.7095,-1.7157,-1.7141,-1.7255,-1.7381,-1.7621,-1.7784,-1.7919,-1.8126,-1.8302,-1.8583,-1.9352,-1.9937,-2.0508,-2.1204,-2.2208,-2.2591,-2.2992,-2.3285,-2.3639,-2.4026,-2.4417,-2.4702,-2.5148,-2.5308,-2.5454,-2.5498,-2.5554,-2.5542,-2.5554,-2.5522,-2.5471,-2.5428,-2.5398,-2.5357,-2.5342,-2.5345,-2.5342,-2.5357,-2.5398,-2.5409,-2.544,-2.5479,-2.5517,-2.5545,-2.5397,-2.5239,-2.5328,-2.5189,-2.434,-2.3455,-2.2774,-2.1942,-2.1064,-2.0529,-2.0457,-2.0447,-2.0428,-2.0447,-2.0447,-2.0434,-2.0387,-2.0379,-2.0366,-2.0366,-2.038,-2.0472,-2.0798,-2.1058]},{"header":{"parameterUnit":"m.s-1","parameterCategory":1,"la1":31.0,"la2":29.5877,"lo1":-88.7671,"lo2":-86.6584,"dy":0.0162,"dx":0.0185,"nx":115,"ny":88,"refTime":"2024-07-24T06:00:00:Z","depth":0,"parameterNumber":3,"parameterNumberName":"V-component_of_WINDS"},"data":[0.0,0.0,0.0,0.0,0.0,0.0,0.0,0.0,0.0,0.0,0.0,0.0,0.0,0.0,0.0,0.0,0.0,0.0,0.0,0.0,0.0,0.0,0.0,0.0,0.0,0.0,0.0,0.0,0.0,0.0,0.0,0.0,0.0,0.0,0.0,0.0,0.0,0.0,0.0,0.0,0.0,0.0,0.0,0.0,0.0,0.0,0.0,0.0,0.0,0.0,0.0,0.0,0.0,0.0,0.0,0.0,0.0,0.0,0.0,0.0,0.0,0.0,0.0,0.0,0.0,0.0,0.0,0.0,0.0,0.0,0.0,0.0,0.0,0.0,0.0,0.0,0.0,0.0,0.0,0.0,0.0,0.0,0.0,0.0,0.0,0.0,0.0,0.0,0.0,0.0,0.0,0.0,0.0,0.0,0.0,0.0,0.0,0.0,0.0,0.0,0.0,0.0,0.0,0.0,0.0,0.0,0.0,0.0,0.0,0.0,0.0,0.0,0.0,0.0,0.0,0.0,0.0,0.0,0.0,0.0,0.0,0.0,0.0,0.0,0.0,0.0,0.0,0.0,0.0,0.0,0.0,0.0,0.0,0.0,0.0,0.0,0.0,0.0,0.0,0.0,0.0,0.0,0.0,0.0,0.0,0.0,0.0,0.0,0.0,0.0,0.0,0.0,0.0,0.0,0.0,0.0,0.0,0.0,0.0,0.0,0.0,0.0,0.0,0.0,0.0,0.0,0.0,0.0,0.0,0.0,0.0,0.0,0.0,0.0,0.0,0.0,0.0,0.0,0.0,0.0,0.0,0.0,0.0,0.0,0.0,0.0,0.0,0.0,0.0,0.0,0.0,0.0,0.0,0.0,0.0,0.0,0.0,0.0,0.0,0.0,0.0,0.0,0.0,0.0,0.0,0.0,0.0,0.0,0.0,0.0,0.0,0.0,0.0,0.0,0.0,0.0,0.0,0.0,0.0,0.0,0.0,0.0,0.0,0.0,0.0,0.0,0.0,0.0,0.0,0.0,0.0,0.0,0.0,0.0,0.0,0.0,0.0,0.0,0.0,0.0,0.0,0.0,0.0,0.0,0.0,0.0,0.0,0.0,0.0,0.0,0.0,0.0,0.0,0.0,0.0,0.0,0.0,0.0,0.0,0.0,0.0,0.0,0.0,0.0,0.0,0.0,0.0,0.0,0.0,0.0,0.0,0.0,0.0,0.0,0.0,0.0,0.0,0.0,0.0,0.0,0.0,0.0,0.0,0.0,0.0,0.0,0.0,0.0,0.0,0.0,0.0,0.0,0.0,0.0,0.0,0.0,0.0,0.0,0.0,0.0,0.0,0.0,0.0,0.0,0.0,0.0,0.0,0.0,0.0,0.0,0.0,0.0,0.0,0.0,0.0,0.0,0.0,0.0,0.0,0.0,0.0,0.0,0.0,0.0,0.0,0.0,0.0,0.0,0.0,0.0,0.0,0.0,0.0,0.0,0.0,0.0,0.0,0.0,0.0,0.0,0.0,0.0,0.0,0.0,0.0,0.0,0.0,0.0,0.0,0.0,0.0,0.0,0.0,0.0,0.0,0.0,0.0,0.0,0.0,0.0,0.0,0.0,0.0,0.0,0.0,0.0,0.0,0.0,0.0,0.0,0.0,0.0,0.0,0.0,0.0,0.0,0.0,0.0,0.0,0.0,0.0,0.0,0.0,0.0,0.0,0.0,0.0,0.0,0.0,0.0,0.0,0.0,0.0,0.0,0.0,0.0,0.0,0.0,0.0,0.0,0.0,0.0,0.0,0.0,0.0,0.0,0.0,0.0,0.0,0.0,0.0,0.0,0.0,0.0,0.0,0.0,0.0,0.0,0.0,0.0,0.0,0.0,0.0,0.0,0.0,0.0,0.0,0.0,0.0,0.0,0.0,0.0,0.0,0.0,0.0,0.0,0.0,0.0,0.0,0.0,0.0,0.0,0.0,0.0,0.0,0.0,0.0,0.0,0.0,0.0,0.0,0.0,0.0,0.0,0.0,0.0,0.0,0.0,0.0,0.0,0.0,0.0,0.0,0.0,0.0,0.0,0.0,0.0,0.0,0.0,0.0,0.0,0.0,0.0,0.0,0.0,0.0,0.0,0.0,0.0,0.0,0.0,0.0,0.0,0.0,0.0,0.0,0.0,0.0,0.0,0.0,0.0,0.0,0.0,0.0,0.0,0.0,0.0,0.0,0.0,0.0,0.0,0.0,0.0,0.0,0.0,0.0,0.0,0.0,0.0,0.0,0.0,0.0,0.0,0.0,0.0,0.0,0.0,0.0,0.0,0.0,0.0,0.0,0.0,0.0,0.0,0.0,0.0,0.0,0.0,0.0,0.0,0.0,0.0,0.0,0.0,0.0,0.0,0.0,0.0,0.0,0.0,0.0,0.0,0.0,0.0,0.0,0.0,0.0,0.0,0.0,0.0,0.0,0.0,0.0,0.0,0.0,0.0,0.0,0.0,0.0,0.0,0.0,0.0,0.0,0.0,0.0,0.0,0.0,0.0,0.0,0.0,0.0,0.0,0.0,0.0,0.0,0.0,0.0,0.0,0.0,0.0,0.0,0.0,0.0,0.0,0.0,0.0,0.0,0.0,0.0,0.0,0.0,0.0,0.0,0.0,0.0,0.0,0.0,0.0,0.0,0.0,0.0,0.0,0.0,0.0,0.0,0.0,0.0,0.0,0.0,0.0,0.0,0.0,0.0,0.0,0.0,0.0,0.0,0.0,0.0,0.0,0.0,0.0,0.0,0.0,0.0,0.0,0.0,0.0,0.0,0.0,0.0,0.0,0.0,0.0,0.0,0.0,0.0,0.0,0.0,0.0,0.0,0.0,0.0,0.0,0.0,0.0,0.0,0.0,0.0,0.0,0.0,0.0,0.0,0.0,0.0,0.0,0.0,0.0,0.0,0.0,0.0,0.0,0.0,0.0,0.0,0.0,0.0,0.0,0.0,0.0,0.0,0.0,0.0,0.0,0.0,0.0,0.0,0.0,0.0,0.0,0.0,0.0,0.0,0.0,0.0,0.0,0.0,0.0,0.0,0.0,0.0,0.0,0.0,0.0,0.0,0.0,0.0,0.0,0.0,0.0,0.0,0.0,0.0,0.0,0.0,0.0,0.0,0.0,0.0,0.0,0.0,0.0,0.0,0.0,0.0,0.0,0.0,0.0,0.0,0.0,0.0,0.0,0.0,0.0,0.0,0.0,0.0,0.0,0.0,0.0,0.0,0.0,0.0,0.0,0.0,0.0,0.0,0.0,0.0,0.0,0.0,0.0,0.0,0.0,0.0,0.0,0.0,0.0,0.0,0.0,0.0,0.0,0.0,0.0,0.0,0.0,0.0,0.0,0.0,0.0,0.0,0.0,0.0,0.0,0.0,0.0,0.0,0.0,0.0,0.0,0.0,0.0,0.0,0.0,0.0,0.0,0.0,0.0,0.0,0.0,0.0,0.0,0.0,0.0,0.0,0.0,0.0,0.0,0.0,0.0,0.0,0.0,0.0,0.0,0.0,0.0,0.0,0.0,0.0,0.0,0.0,0.0,0.0,0.0,0.0,0.0,0.0,0.0,0.0,0.0,0.0,0.0,0.0,0.0,0.0,0.0,0.0,0.0,0.0,0.0,0.0,0.0,0.0,0.0,0.0,0.0,0.0,0.0,0.0,0.0,0.0,0.0,0.0,0.0,0.0,0.0,0.0,0.0,0.0,0.0,0.0,0.0,0.0,0.0,0.0,0.0,0.0,0.0,0.0,0.0,0.0,0.0,0.0,0.0,0.0,0.0,0.0,0.0,0.0,0.0,0.0,0.0,0.0,0.0,0.0,0.0,0.0,0.0,0.0,0.0,0.0,0.0,0.0,0.0,0.0,0.0,0.0,0.0,0.0,0.0,0.0,0.0,0.0,0.0,0.0,0.0,0.0,0.0,0.0,0.0,0.0,0.0,0.0,0.0,0.0,0.0,0.0,0.0,0.0,0.0,0.0,0.0,0.0,0.0,0.0,0.0,0.0,0.0,0.0,0.0,0.0,0.0,0.0,0.0,0.0,0.0,0.0,0.0,0.0,0.0,0.0,0.0,0.0,0.0,0.0,0.0,0.0,0.0,0.0,0.0,0.0,0.0,0.0,0.0,0.0,0.0,0.0,0.0,0.0,0.0,0.0,0.0,0.0,0.0,0.0,0.0,0.0,0.0,0.0,0.0,0.0,0.0,0.0,0.0,0.0,0.0,0.0,0.0,0.0,0.0,0.0,0.0,0.0,0.0,-1.1101,0.0,0.0,0.0,0.0,0.0,0.0,0.0,0.0,0.0,0.0,0.0,0.0,0.0,0.0,0.0,0.0,0.0,0.0,0.0,0.0,0.0,0.0,0.0,0.0,0.0,0.0,0.0,0.0,0.0,0.0,0.0,0.0,0.0,0.0,0.0,0.0,0.0,0.0,0.0,0.0,0.0,0.0,0.0,0.0,0.0,0.0,0.0,0.0,0.0,0.0,0.0,0.0,0.0,0.0,0.0,0.0,0.0,0.0,0.0,0.0,0.0,0.0,0.0,0.0,0.0,0.0,0.0,0.0,0.0,0.0,0.0,0.0,0.0,0.0,0.0,0.0,0.0,0.0,0.0,0.0,0.0,0.0,0.0,0.0,0.0,0.0,0.0,0.0,0.0,0.0,0.0,0.0,0.0,0.0,0.0,0.0,0.0,0.0,0.0,0.0,0.0,0.0,0.0,0.0,0.0,0.0,0.0,0.0,0.0,0.0,-0.9821,-1.1414,-1.171,-1.2091,-1.2534,0.0,0.0,0.0,0.0,0.0,0.0,0.0,0.0,0.0,0.0,0.0,0.0,0.0,0.0,0.0,0.0,0.0,0.0,0.0,0.0,0.0,0.0,0.0,0.0,0.0,0.0,0.0,0.0,0.0,0.0,0.0,0.0,0.0,0.0,0.0,0.0,0.0,0.0,0.0,0.0,0.0,0.0,0.0,0.0,0.0,0.0,0.0,0.0,0.0,0.0,0.0,0.0,0.0,0.0,0.0,0.0,0.0,0.0,0.0,0.0,0.0,0.0,0.0,0.0,0.0,0.0,0.0,0.0,0.0,0.0,0.0,0.0,0.0,0.0,0.0,0.0,0.0,0.0,0.0,0.0,0.0,0.0,0.0,0.0,0.0,0.0,0.0,0.0,0.0,0.0,0.0,0.0,0.0,0.0,0.0,0.0,0.0,0.0,0.0,0.0,0.0,0.0,0.0,0.0,0.0,0.0,0.0,0.0,0.0,0.0,0.0,0.0,-1.3058,-1.328,-1.3333,0.0,0.0,0.0,0.0,0.0,0.0,0.0,0.0,0.0,0.0,0.0,0.0,0.0,0.0,0.0,0.0,0.0,0.0,0.0,0.0,0.0,0.0,0.0,0.0,0.0,0.0,0.0,0.0,0.0,0.0,0.0,0.0,0.0,0.0,0.0,0.0,0.0,0.0,0.0,0.0,0.0,0.0,0.0,0.0,0.0,0.0,0.0,0.0,0.0,0.0,0.0,0.0,0.0,0.0,0.0,0.0,0.0,0.0,0.0,0.0,0.0,0.0,0.0,0.0,0.0,0.0,0.0,0.0,0.0,0.0,0.0,0.0,0.0,0.0,0.0,0.0,0.0,0.0,0.0,0.0,0.0,0.0,0.0,0.0,0.0,0.0,0.0,0.0,0.0,0.0,0.0,0.0,0.0,0.0,0.0,0.0,0.0,0.0,0.0,0.0,0.0,0.0,0.0,0.0,0.0,0.0,0.0,0.0,0.0,0.0,-1.2003,-1.2943,-1.3577,0.0,-1.2516,0.0,0.0,0.0,0.0,0.0,0.0,0.0,0.0,0.0,0.0,0.0,0.0,0.0,0.0,0.0,0.0,0.0,0.0,0.0,0.0,0.0,0.0,0.0,0.0,0.0,0.0,0.0,0.0,0.0,0.0,0.0,0.0,0.0,0.0,0.0,0.0,0.0,0.0,0.0,0.0,0.0,0.0,0.0,0.0,0.0,0.0,0.0,0.0,0.0,0.0,0.0,0.0,0.0,0.0,0.0,0.0,0.0,0.0,0.0,0.0,0.0,0.0,0.0,0.0,0.0,0.0,0.0,0.0,0.0,0.0,0.0,0.0,0.0,0.0,0.0,0.0,0.0,0.0,0.0,0.0,0.0,0.0,0.0,0.0,0.0,0.0,0.0,0.0,0.0,0.0,0.0,0.0,0.0,0.0,0.0,0.0,0.0,0.0,0.0,0.0,0.0,0.0,0.0,0.0,0.0,0.0,0.0,0.0,0.0,0.0,-1.3083,-1.4038,-1.3877,-1.3374,0.0,0.0,0.0,0.0,0.0,0.0,0.0,0.0,0.0,0.0,0.0,0.0,0.0,0.0,0.0,0.0,0.0,0.0,0.0,0.0,0.0,0.0,0.0,0.0,0.0,0.0,0.0,0.0,0.0,0.0,0.0,0.0,0.0,0.0,0.0,0.0,0.0,0.0,0.0,0.0,0.0,0.0,0.0,0.0,0.0,0.0,0.0,0.0,0.0,0.0,0.0,0.0,0.0,0.0,0.0,0.0,0.0,0.0,0.0,0.0,0.0,0.0,0.0,0.0,0.0,0.0,0.0,0.0,0.0,0.0,0.0,0.0,0.0,0.0,0.0,0.0,0.0,0.0,0.0,0.0,0.0,0.0,0.0,0.0,0.0,0.0,0.0,0.0,0.0,0.0,0.0,0.0,0.0,0.0,0.0,0.0,0.0,0.0,0.0,0.0,0.0,0.0,0.0,0.0,0.0,0.0,0.0,0.0,0.0,0.0,-1.2843,-1.3785,-1.4446,-1.365,-1.3007,-1.2596,0.0,0.0,0.0,0.0,0.0,0.0,0.0,0.0,0.0,0.0,0.0,0.0,0.0,0.0,0.0,0.0,0.0,0.0,0.0,0.0,0.0,0.0,0.0,0.0,0.0,0.0,0.0,0.0,0.0,0.0,0.0,0.0,0.0,0.0,0.0,0.0,0.0,0.0,0.0,0.0,0.0,0.0,0.0,0.0,0.0,0.0,0.0,0.0,0.0,0.0,0.0,0.0,0.0,0.0,0.0,0.0,0.0,0.0,0.0,0.0,0.0,0.0,0.0,0.0,0.0,0.0,0.0,0.0,0.0,0.0,0.0,0.0,0.0,0.0,0.0,0.0,0.0,0.0,0.0,0.0,0.0,0.0,0.0,0.0,0.0,0.0,0.0,0.0,0.0,0.0,0.0,0.0,0.0,0.0,0.0,0.0,0.0,0.0,0.0,0.0,0.0,0.0,0.0,0.0,0.0,0.0,0.0,0.0,0.0,-1.3291,-1.3868,-1.3886,-1.2804,-1.2296,0.0,0.0,0.0,0.0,0.0,0.0,0.0,0.0,0.0,0.0,0.0,0.0,0.0,0.0,0.0,0.0,0.0,0.0,0.0,0.0,0.0,0.0,0.0,0.0,0.0,0.0,0.0,0.0,0.0,0.0,0.0,0.0,0.0,0.0,0.0,0.0,0.0,0.0,0.0,0.0,0.0,0.0,0.0,0.0,0.0,0.0,0.0,0.0,0.0,0.0,0.0,0.0,0.0,0.0,0.0,0.0,0.0,0.0,0.0,0.0,0.0,0.0,0.0,0.0,0.0,0.0,0.0,0.0,0.0,0.0,0.0,0.0,0.0,0.0,0.0,0.0,0.0,0.0,0.0,0.0,0.0,0.0,0.0,0.0,0.0,0.0,0.0,0.0,0.0,0.0,0.0,0.0,0.0,0.0,0.0,0.0,0.0,0.0,0.0,0.0,0.0,0.0,0.0,0.0,0.0,0.0,0.0,0.0,0.0,-1.2263,-1.2452,-1.2465,-1.223,-1.1613,-1.1379,0.0,0.0,0.0,0.0,0.0,0.0,0.0,0.0,0.0,0.0,0.0,0.0,0.0,0.0,0.0,0.0,0.0,0.0,0.0,0.0,0.0,0.0,0.0,0.0,0.0,0.0,0.0,0.0,0.0,0.0,0.0,0.0,0.0,0.0,0.0,0.0,0.0,0.0,0.0,0.0,0.0,0.0,0.0,0.0,0.0,0.0,0.0,0.0,0.0,0.0,0.0,0.0,0.0,0.0,0.0,0.0,0.0,0.0,0.0,0.0,0.0,0.0,0.0,0.0,0.0,0.0,0.0,0.0,0.0,0.0,0.0,0.0,0.0,0.0,0.0,0.0,0.0,0.0,0.0,0.0,0.0,0.0,0.0,0.0,0.0,0.0,0.0,0.0,0.0,0.0,0.0,0.0,0.0,0.0,0.0,0.0,0.0,0.0,0.0,0.0,0.0,0.0,0.0,0.0,0.0,0.0,0.0,0.0,0.0,-1.1963,0.0,-1.0872,0.0,-1.0293,-1.0239,0.0,0.0,0.0,0.0,0.0,0.0,0.0,0.0,0.0,0.0,0.0,0.0,0.0,0.0,0.0,0.0,0.0,0.0,0.0,0.0,0.0,0.0,0.0,0.0,0.0,0.0,0.0,0.0,0.0,0.0,0.0,0.0,0.0,0.0,0.0,0.0,0.0,0.0,0.0,0.0,0.0,0.0,0.0,0.0,0.0,0.0,0.0,0.0,0.0,0.0,0.0,0.0,0.0,0.0,0.0,0.0,0.0,0.0,0.0,0.0,0.0,0.0,0.0,0.0,0.0,0.0,0.0,0.0,0.0,0.0,0.0,0.0,0.0,0.0,0.0,0.0,0.0,0.0,0.0,0.0,0.0,0.0,0.0,0.0,0.0,0.0,0.0,0.0,0.0,0.0,0.0,0.0,0.0,0.0,0.0,0.0,0.0,0.0,0.0,0.0,0.0,0.0,0.0,0.0,0.0,0.0,0.0,0.0,-1.3023,-1.1411,-1.0174,-0.934,-0.8879,-0.8723,-0.8847,0.0,0.0,0.0,0.0,0.0,0.0,0.0,0.0,0.0,0.0,0.0,0.0,0.0,0.0,0.0,0.0,0.0,0.0,0.0,0.0,0.0,0.0,0.0,0.0,0.0,0.0,0.0,0.0,0.0,0.0,0.0,0.0,0.0,0.0,0.0,0.0,0.0,0.0,0.0,0.0,0.0,0.0,0.0,0.0,0.0,0.0,0.0,0.0,0.0,0.0,0.0,0.0,0.0,0.0,0.0,0.0,0.0,0.0,0.0,0.0,0.0,0.0,0.0,0.0,0.0,0.0,0.0,0.0,0.0,0.0,0.0,0.0,0.0,0.0,0.0,0.0,0.0,0.0,0.0,0.0,0.0,0.0,0.0,0.0,0.0,0.0,0.0,0.0,0.0,0.0,0.0,0.0,0.0,0.0,0.0,0.0,0.0,0.0,0.0,0.0,0.0,0.0,0.0,0.0,0.0,0.0,0.0,0.0,0.0,-1.0767,-0.9163,-0.8059,-0.7485,-0.7727,-0.7992,0.0,0.0,0.0,0.0,0.0,0.0,0.0,0.0,0.0,0.0,0.0,0.0,0.0,0.0,0.0,0.0,0.0,0.0,0.0,0.0,0.0,0.0,0.0,0.0,0.0,0.0,0.0,0.0,0.0,0.0,0.0,0.0,0.0,0.0,0.0,0.0,0.0,0.0,0.0,0.0,0.0,0.0,0.0,0.0,0.0,0.0,0.0,0.0,0.0,0.0,0.0,0.0,0.0,0.0,0.0,0.0,0.0,0.0,0.0,0.0,0.0,0.0,0.0,0.0,0.0,0.0,0.0,0.0,0.0,0.0,0.0,0.0,0.0,0.0,0.0,0.0,0.0,0.0,0.0,0.0,0.0,0.0,0.0,0.0,0.0,0.0,0.0,0.0,0.0,0.0,0.0,0.0,0.0,0.0,0.0,0.0,0.0,0.0,0.0,0.0,0.0,0.0,0.0,0.0,0.0,0.0,0.0,0.0,0.0,-1.0827,-0.883,-0.7468,-0.6652,-0.6944,-0.7255,-0.7593,0.0,0.0,0.0,0.0,0.0,0.0,0.0,0.0,0.0,0.0,0.0,0.0,0.0,0.0,0.0,0.0,0.0,0.0,0.0,0.0,0.0,0.0,0.0,0.0,0.0,0.0,0.0,0.0,0.0,0.0,0.0,0.0,0.0,0.0,0.0,0.0,0.0,0.0,0.0,0.0,0.0,0.0,0.0,0.0,0.0,0.0,0.0,0.0,0.0,0.0,0.0,0.0,0.0,0.0,0.0,0.0,0.0,0.0,0.0,0.0,0.0,0.0,0.0,0.0,0.0,0.0,0.0,0.0,0.0,0.0,0.0,0.0,0.0,0.0,0.0,0.0,0.0,0.0,0.0,0.0,0.0,0.0,0.0,0.0,0.0,0.0,0.0,0.0,0.0,0.0,0.0,0.0,0.0,0.0,0.0,0.0,0.0,0.0,0.0,0.0,0.0,0.0,0.0,0.0,0.0,0.0,0.0,0.0,-1.1613,-0.9297,-0.7582,-0.6479,-0.6431,-0.6659,0.0,0.0,0.0,0.0,0.0,0.0,0.0,0.0,0.0,0.0,0.0,0.0,0.0,0.0,0.0,0.0,0.0,0.0,0.0,0.0,0.0,0.0,0.0,0.0,0.0,0.0,0.0,0.0,0.0,0.0,0.0,0.0,0.0,0.0,0.0,0.0,0.0,0.0,0.0,0.0,0.0,0.0,0.0,0.0,0.0,0.0,0.0,0.0,0.0,0.0,0.0,0.0,0.0,0.0,0.0,0.0,0.0,0.0,0.0,0.0,0.0,0.0,0.0,0.0,0.0,0.0,0.0,0.0,0.0,0.0,0.0,0.0,0.0,0.0,0.0,0.0,0.0,0.0,0.0,0.0,0.0,0.0,0.0,0.0,0.0,0.0,0.0,0.0,0.0,0.0,0.0,0.0,0.0,0.0,0.0,0.0,0.0,0.0,0.0,0.0,0.0,0.0,0.0,0.0,0.0,0.0,0.0,0.0,0.0,-1.341,-1.1302,-0.9113,-0.6938,-0.6584,-0.6838,0.0,0.0,0.0,0.0,0.0,0.0,0.0,0.0,0.0,0.0,0.0,0.0,0.0,0.0,0.0,0.0,0.0,0.0,0.0,0.0,0.0,0.0,0.0,0.0,0.0,0.0,0.0,0.0,0.0,0.0,0.0,0.0,0.0,0.0,0.0,0.0,0.0,0.0,0.0,0.0,0.0,0.0,0.0,0.0,0.0,0.0,0.0,0.0,0.0,0.0,0.0,0.0,0.0,0.0,0.0,0.0,0.0,0.0,0.0,0.0,0.0,0.0,0.0,0.0,0.0,0.0,0.0,0.0,0.0,0.0,0.0,0.0,0.0,0.0,0.0,0.0,0.0,0.0,0.0,0.0,0.0,0.0,0.0,0.0,0.0,0.0,0.0,0.0,0.0,0.0,0.0,0.0,0.0,0.0,0.0,0.0,0.0,0.0,0.0,0.0,0.0,0.0,0.0,0.0,0.0,0.0,0.0,0.0,-1.6334,-1.4468,-1.266,-1.0627,-0.8408,-0.7526,-0.7398,0.0,0.0,0.0,0.0,0.0,0.0,0.0,0.0,0.0,0.0,0.0,0.0,0.0,0.0,0.0,0.0,0.0,0.0,0.0,0.0,0.0,0.0,0.0,0.0,0.0,0.0,0.0,0.0,0.0,0.0,0.0,0.0,0.0,0.0,0.0,0.0,0.0,0.0,0.0,0.0,0.0,0.0,0.0,0.0,0.0,0.0,0.0,0.0,0.0,0.0,0.0,0.0,0.0,0.0,0.0,0.0,0.0,0.0,0.0,0.0,0.0,0.0,0.0,0.0,0.0,0.0,0.0,0.0,0.0,0.0,0.0,0.0,0.0,0.0,0.0,0.0,0.0,0.0,0.0,0.0,0.0,0.0,0.0,0.0,0.0,0.0,0.0,0.0,0.0,0.0,0.0,0.0,0.0,0.0,0.0,0.0,0.0,0.0,0.0,0.0,0.0,0.0,0.0,0.0,0.0,0.0,0.0,0.0,-1.6737,-1.5107,-1.3512,-1.1946,-1.0348,-0.8821,-0.8149,0.0,0.0,0.0,0.0,0.0,0.0,0.0,0.0,0.0,0.0,0.0,0.0,0.0,0.0,0.0,0.0,0.0,0.0,0.0,0.0,0.0,0.0,0.0,0.0,0.0,0.0,0.0,0.0,0.0,0.0,0.0,0.0,0.0,0.0,0.0,0.0,0.0,0.0,0.0,0.0,0.0,0.0,0.0,0.0,0.0,0.0,0.0,0.0,0.0,0.0,0.0,0.0,0.0,0.0,0.0,0.0,0.0,0.0,0.0,0.0,0.0,0.0,0.0,0.0,0.0,0.0,0.0,0.0,0.0,0.0,0.0,0.0,0.0,0.0,0.0,0.0,0.0,0.0,0.0,0.0,0.0,0.0,0.0,0.0,0.0,0.0,0.0,0.0,0.0,0.0,0.0,0.0,0.0,0.0,0.0,0.0,0.0,0.0,0.0,0.0,0.0,0.0,0.0,0.0,0.0,0.0,0.0,0.0,-1.7264,-1.6223,-1.4463,-1.2753,-1.1196,-0.9635,-0.9078,0.0,0.0,0.0,0.0,0.0,0.0,0.0,0.0,0.0,0.0,0.0,0.0,0.0,0.0,0.0,0.0,0.0,0.0,0.0,0.0,0.0,0.0,0.0,0.0,0.0,0.0,0.0,0.0,0.0,0.0,0.0,0.0,0.0,0.0,0.0,0.0,0.0,0.0,0.0,0.0,0.0,0.0,0.0,0.0,0.0,0.0,0.0,0.0,-1.6975,0.0,0.0,0.0,0.0,0.0,0.0,0.0,0.0,0.0,0.0,0.0,0.0,0.0,0.0,0.0,0.0,0.0,0.0,0.0,0.0,0.0,0.0,0.0,0.0,0.0,0.0,0.0,0.0,0.0,0.0,0.0,0.0,0.0,0.0,0.0,0.0,0.0,0.0,0.0,0.0,0.0,0.0,0.0,0.0,0.0,0.0,0.0,0.0,0.0,0.0,0.0,0.0,0.0,0.0,0.0,0.0,0.0,0.0,0.0,-1.7275,-1.6667,-1.4979,-1.336,-1.1936,-1.0732,-1.012,0.0,0.0,0.0,0.0,0.0,0.0,0.0,0.0,0.0,0.0,0.0,0.0,0.0,0.0,0.0,0.0,0.0,0.0,0.0,0.0,0.0,0.0,0.0,0.0,0.0,0.0,0.0,0.0,0.0,0.0,0.0,0.0,0.0,0.0,0.0,0.0,0.0,0.0,0.0,0.0,0.0,0.0,0.0,0.0,0.0,0.0,0.0,0.0,0.0,0.0,0.0,0.0,0.0,0.0,0.0,0.0,0.0,0.0,0.0,0.0,0.0,0.0,0.0,0.0,0.0,0.0,0.0,0.0,0.0,0.0,0.0,0.0,0.0,0.0,0.0,0.0,0.0,0.0,0.0,0.0,0.0,0.0,0.0,0.0,0.0,0.0,0.0,0.0,0.0,0.0,0.0,0.0,0.0,0.0,0.0,0.0,0.0,0.0,0.0,0.0,0.0,0.0,0.0,0.0,0.0,0.0,0.0,-1.7876,-1.7058,-1.6602,-1.5174,-1.382,-1.2584,-1.1768,-1.1121,-1.0731,0.0,0.0,0.0,0.0,0.0,0.0,0.0,0.0,0.0,0.0,0.0,0.0,0.0,0.0,0.0,0.0,0.0,0.0,0.0,0.0,0.0,0.0,0.0,0.0,0.0,0.0,0.0,0.0,0.0,0.0,0.0,0.0,0.0,0.0,0.0,0.0,0.0,0.0,-1.5441,-1.7692,0.0,0.0,0.0,0.0,0.0,0.0,0.0,0.0,-1.8507,0.0,0.0,0.0,0.0,0.0,0.0,0.0,0.0,0.0,0.0,0.0,0.0,0.0,0.0,0.0,0.0,0.0,0.0,0.0,0.0,0.0,0.0,0.0,0.0,0.0,0.0,0.0,0.0,0.0,0.0,0.0,0.0,0.0,0.0,0.0,0.0,0.0,0.0,0.0,0.0,0.0,0.0,0.0,0.0,0.0,0.0,0.0,0.0,0.0,0.0,0.0,0.0,0.0,0.0,0.0,0.0,-1.8105,-1.7362,-1.664,-1.597,-1.5221,-1.4256,-1.3107,-1.2389,-1.1916,-1.1659,0.0,0.0,0.0,0.0,0.0,0.0,0.0,0.0,0.0,0.0,0.0,0.0,0.0,0.0,0.0,0.0,0.0,0.0,0.0,0.0,0.0,0.0,0.0,0.0,0.0,0.0,0.0,0.0,0.0,0.0,0.0,0.0,0.0,0.0,0.0,0.0,0.0,0.0,0.0,-1.9203,-1.9698,0.0,0.0,0.0,0.0,0.0,0.0,0.0,0.0,-1.9179,0.0,0.0,0.0,0.0,0.0,0.0,0.0,0.0,0.0,0.0,0.0,0.0,0.0,0.0,0.0,0.0,0.0,0.0,0.0,0.0,0.0,0.0,0.0,0.0,0.0,0.0,0.0,0.0,0.0,0.0,0.0,0.0,0.0,0.0,0.0,0.0,0.0,0.0,0.0,0.0,0.0,0.0,0.0,0.0,0.0,0.0,0.0,0.0,0.0,0.0,0.0,0.0,0.0,0.0,0.0,-1.7535,-1.7048,-1.6461,-1.5921,-1.5334,-1.4512,-1.3371,-1.2644,-1.2152,0.0,0.0,0.0,0.0,0.0,0.0,0.0,0.0,0.0,0.0,0.0,0.0,0.0,0.0,0.0,0.0,0.0,0.0,0.0,0.0,0.0,0.0,0.0,0.0,0.0,0.0,0.0,0.0,0.0,0.0,0.0,0.0,0.0,0.0,0.0,0.0,0.0,0.0,0.0,0.0,-2.0343,-2.0956,-2.1615,0.0,0.0,0.0,0.0,0.0,0.0,-2.0645,-2.013,0.0,0.0,0.0,0.0,0.0,0.0,0.0,0.0,0.0,0.0,0.0,0.0,0.0,0.0,0.0,0.0,0.0,0.0,0.0,0.0,0.0,0.0,0.0,0.0,0.0,0.0,0.0,0.0,0.0,0.0,0.0,0.0,0.0,0.0,0.0,0.0,0.0,0.0,0.0,0.0,0.0,0.0,0.0,0.0,0.0,0.0,0.0,0.0,0.0,0.0,0.0,0.0,0.0,0.0,0.0,-1.7032,-1.6782,-1.6352,-1.5865,-1.552,-1.4827,-1.3691,-1.2926,-1.2371,0.0,0.0,0.0,0.0,0.0,0.0,0.0,0.0,0.0,0.0,0.0,0.0,0.0,0.0,0.0,0.0,0.0,0.0,0.0,0.0,0.0,0.0,0.0,0.0,0.0,0.0,0.0,0.0,0.0,0.0,0.0,0.0,0.0,0.0,0.0,0.0,0.0,0.0,0.0,0.0,0.0,-2.2243,-2.2649,-2.3111,0.0,0.0,0.0,0.0,-2.2072,-2.1409,0.0,0.0,0.0,0.0,0.0,0.0,0.0,0.0,0.0,0.0,0.0,0.0,0.0,0.0,0.0,0.0,0.0,0.0,0.0,0.0,0.0,0.0,0.0,0.0,0.0,0.0,0.0,0.0,0.0,0.0,0.0,0.0,0.0,0.0,0.0,0.0,0.0,0.0,0.0,0.0,0.0,0.0,0.0,0.0,0.0,0.0,0.0,0.0,0.0,0.0,0.0,0.0,0.0,0.0,0.0,0.0,-1.6062,-1.6405,-1.6195,-1.544,-1.5713,-1.5348,-1.4157,-1.3522,-1.2977,0.0,0.0,0.0,0.0,0.0,0.0,0.0,0.0,0.0,0.0,0.0,0.0,0.0,0.0,0.0,0.0,0.0,0.0,0.0,0.0,0.0,0.0,0.0,0.0,0.0,0.0,0.0,0.0,0.0,0.0,0.0,0.0,0.0,0.0,0.0,0.0,0.0,0.0,0.0,0.0,0.0,-2.3104,-2.3937,-2.3593,-2.3226,0.0,0.0,-2.2301,-2.1886,-2.1597,0.0,0.0,0.0,0.0,0.0,0.0,0.0,0.0,0.0,0.0,0.0,0.0,0.0,0.0,0.0,0.0,0.0,0.0,0.0,0.0,0.0,0.0,0.0,0.0,0.0,0.0,0.0,0.0,0.0,0.0,0.0,0.0,0.0,0.0,0.0,0.0,0.0,0.0,0.0,0.0,0.0,0.0,0.0,0.0,0.0,0.0,0.0,0.0,0.0,0.0,0.0,0.0,0.0,0.0,0.0,-1.4933,-1.5809,-1.6398,-1.636,-1.5684,-1.5847,-1.5521,-1.4498,-1.3774,-1.3212,0.0,0.0,0.0,0.0,0.0,0.0,0.0,0.0,0.0,0.0,0.0,0.0,0.0,0.0,0.0,0.0,0.0,0.0,0.0,0.0,0.0,0.0,0.0,0.0,0.0,0.0,0.0,0.0,0.0,0.0,0.0,0.0,0.0,0.0,0.0,0.0,0.0,0.0,0.0,0.0,0.0,0.0,-2.4063,-2.4197,0.0,0.0,0.0,-2.3369,-2.3109,0.0,0.0,0.0,0.0,0.0,0.0,0.0,0.0,0.0,0.0,0.0,0.0,0.0,0.0,0.0,0.0,0.0,0.0,0.0,0.0,0.0,0.0,0.0,0.0,0.0,0.0,0.0,0.0,0.0,0.0,0.0,0.0,0.0,0.0,0.0,0.0,0.0,0.0,0.0,0.0,0.0,0.0,0.0,0.0,0.0,0.0,0.0,0.0,0.0,0.0,0.0,0.0,0.0,0.0,0.0,0.0,0.0,-1.5717,-1.6485,-1.6579,-1.6007,-1.6164,-1.5808,-1.4929,-1.4113,0.0,0.0,0.0,0.0,0.0,0.0,0.0,0.0,0.0,0.0,0.0,0.0,0.0,0.0,0.0,0.0,0.0,0.0,0.0,0.0,0.0,0.0,0.0,0.0,0.0,0.0,0.0,-1.2946,0.0,0.0,0.0,0.0,0.0,0.0,0.0,0.0,0.0,0.0,0.0,0.0,0.0,0.0,-2.3946,-2.4147,-2.463,-2.4802,0.0,0.0,-2.4268,-2.4074,-2.3496,-2.2787,0.0,0.0,0.0,0.0,0.0,0.0,0.0,0.0,0.0,0.0,0.0,0.0,0.0,0.0,0.0,0.0,0.0,0.0,0.0,0.0,0.0,0.0,0.0,0.0,0.0,0.0,0.0,0.0,0.0,0.0,0.0,0.0,0.0,0.0,0.0,0.0,0.0,0.0,0.0,0.0,0.0,0.0,0.0,0.0,0.0,0.0,0.0,0.0,0.0,0.0,0.0,0.0,0.0,0.0,0.0,-1.55,-1.655,-1.6815,-1.6294,-1.6647,-1.6382,-1.5461,-1.4866,-1.4319,0.0,0.0,0.0,0.0,0.0,0.0,0.0,0.0,0.0,0.0,0.0,0.0,0.0,0.0,0.0,0.0,0.0,0.0,0.0,0.0,0.0,0.0,0.0,0.0,0.0,0.0,0.0,0.0,0.0,0.0,0.0,0.0,0.0,0.0,0.0,0.0,0.0,0.0,0.0,0.0,0.0,-2.4432,-2.46,-2.4671,-2.4782,0.0,0.0,-2.4423,-2.4208,-2.4044,-2.3694,-2.3034,0.0,0.0,0.0,0.0,0.0,0.0,0.0,0.0,0.0,0.0,0.0,0.0,0.0,0.0,0.0,0.0,0.0,0.0,0.0,0.0,0.0,0.0,0.0,0.0,0.0,0.0,0.0,0.0,0.0,0.0,0.0,0.0,0.0,0.0,0.0,0.0,0.0,0.0,0.0,0.0,0.0,0.0,0.0,0.0,0.0,0.0,0.0,0.0,0.0,0.0,0.0,0.0,0.0,-1.5015,-1.5675,-1.6757,-1.7137,-1.6907,-1.7311,-1.7107,-1.6309,-1.5717,-1.5175,0.0,0.0,0.0,0.0,0.0,0.0,0.0,0.0,0.0,0.0,0.0,0.0,0.0,0.0,0.0,0.0,0.0,0.0,0.0,0.0,0.0,0.0,0.0,0.0,0.0,0.0,0.0,0.0,-1.6251,-1.7002,-1.8046,0.0,0.0,0.0,0.0,0.0,0.0,0.0,0.0,0.0,0.0,-2.492,-2.5133,-2.5354,0.0,0.0,-2.4863,-2.4597,-2.4408,-2.4276,-2.3997,-2.3394,-2.3373,0.0,0.0,0.0,0.0,0.0,0.0,0.0,0.0,0.0,0.0,0.0,0.0,0.0,0.0,0.0,0.0,0.0,0.0,0.0,0.0,0.0,0.0,0.0,0.0,0.0,0.0,0.0,0.0,0.0,0.0,0.0,0.0,0.0,0.0,0.0,0.0,0.0,0.0,0.0,0.0,0.0,0.0,0.0,0.0,0.0,0.0,0.0,0.0,0.0,0.0,0.0,0.0,-1.535,-1.5842,-1.6948,-1.7438,-1.7342,-1.7879,-1.7789,-1.7064,-1.6507,-1.5956,0.0,0.0,0.0,0.0,0.0,0.0,0.0,0.0,0.0,0.0,0.0,0.0,0.0,0.0,0.0,0.0,0.0,0.0,0.0,0.0,0.0,0.0,0.0,0.0,0.0,0.0,0.0,0.0,-1.7949,-1.8951,-1.9707,0.0,0.0,0.0,0.0,0.0,0.0,0.0,0.0,0.0,0.0,-2.5419,-2.5434,-2.5725,-2.5762,-2.5293,-2.5099,-2.4902,-2.4726,-2.4622,-2.4418,-2.4053,0.0,0.0,0.0,0.0,0.0,0.0,0.0,0.0,0.0,0.0,0.0,0.0,0.0,0.0,0.0,0.0,0.0,0.0,0.0,0.0,0.0,0.0,0.0,0.0,0.0,0.0,0.0,0.0,0.0,0.0,-1.0818,0.0,0.0,0.0,0.0,0.0,0.0,0.0,0.0,0.0,0.0,0.0,0.0,0.0,0.0,0.0,0.0,0.0,0.0,0.0,0.0,0.0,0.0,-1.5373,-1.59,-1.715,-1.7732,-1.7647,-1.8302,-1.8347,-1.7621,-1.7203,-1.6754,-1.6199,0.0,0.0,0.0,0.0,0.0,0.0,0.0,0.0,0.0,0.0,0.0,0.0,0.0,0.0,0.0,0.0,0.0,0.0,0.0,0.0,0.0,0.0,0.0,0.0,0.0,0.0,-1.8789,-2.0458,-2.1456,0.0,0.0,0.0,0.0,0.0,0.0,0.0,0.0,0.0,0.0,-2.5378,-2.5892,-2.5413,-2.5706,-2.5909,-2.5642,-2.5484,-2.5301,-2.5107,-2.5122,-2.5153,0.0,0.0,0.0,0.0,0.0,0.0,0.0,0.0,0.0,0.0,0.0,0.0,0.0,0.0,0.0,0.0,0.0,0.0,0.0,0.0,0.0,0.0,0.0,0.0,0.0,0.0,0.0,-1.0082,-1.0493,0.0,0.0,0.0,0.0,0.0,0.0,0.0,0.0,0.0,0.0,0.0,-1.551,-1.6142,0.0,0.0,0.0,0.0,0.0,0.0,0.0,0.0,0.0,0.0,0.0,0.0,-1.606,-1.6688,-1.7547,-1.8216,-1.8738,-1.9446,-1.9528,-1.8885,-1.8905,-1.8509,-1.7625,0.0,0.0,0.0,0.0,0.0,0.0,0.0,0.0,0.0,0.0,0.0,0.0,0.0,0.0,0.0,0.0,0.0,0.0,0.0,0.0,0.0,0.0,0.0,0.0,0.0,-1.8955,0.0,0.0,0.0,0.0,0.0,0.0,0.0,0.0,0.0,0.0,0.0,-2.5649,-2.579,-2.5865,-2.5985,-2.6126,-2.618,-2.6126,0.0,0.0,0.0,0.0,0.0,0.0,0.0,0.0,0.0,0.0,0.0,0.0,0.0,0.0,-2.1456,-2.1458,-2.1422,-2.1439,-2.1482,0.0,0.0,0.0,0.0,0.0,0.0,0.0,0.0,0.0,0.0,0.0,0.0,0.0,0.0,-1.1815,0.0,-1.2837,0.0,0.0,0.0,0.0,0.0,0.0,0.0,0.0,-1.6036,-1.6386,-1.688,-1.751,-1.7558,0.0,-1.7681,-1.7247,0.0,0.0,0.0,0.0,0.0,0.0,0.0,0.0,-1.6848,-1.7304,-1.8215,-1.8951,-1.9506,-2.0268,-2.0414,-1.9829,-1.9626,-1.9211,-1.8518,-1.7916,-1.7325,0.0,0.0,0.0,0.0,0.0,0.0,0.0,0.0,0.0,0.0,0.0,0.0,0.0,0.0,0.0,0.0,0.0,0.0,0.0,0.0,0.0,0.0,0.0,-2.0488,0.0,0.0,0.0,0.0,0.0,0.0,0.0,0.0,0.0,-2.5573,-2.5853,-2.6171,-2.6327,-2.6285,-2.6354,-2.6573,0.0,0.0,0.0,0.0,0.0,0.0,0.0,-2.5937,-2.6035,-2.6063,-2.6159,-2.6285,-2.5079,-2.4057,-2.4098,0.0,0.0,-2.1746,-2.1716,-2.171,-2.1733,-2.1713,-2.1658,-2.154,-2.1495,-2.1464,0.0,0.0,0.0,0.0,0.0,0.0,0.0,0.0,-1.2205,-1.3005,0.0,-1.4373,0.0,0.0,0.0,0.0,0.0,-1.7583,0.0,0.0,-1.7917,-1.8097,-1.8285,-1.8431,-1.8552,-1.8603,-1.8754,-1.873,-1.8485,-1.716,0.0,0.0,0.0,0.0,0.0,0.0,-1.766,-1.7746,-1.908,-1.9837,-1.9985,-2.0782,-2.097,-2.0487,-1.9477,-1.8963,-1.8934,-1.8398,-1.7759,-1.7201,-1.7245,0.0,0.0,0.0,0.0,0.0,0.0,0.0,0.0,0.0,0.0,0.0,0.0,0.0,0.0,0.0,0.0,0.0,0.0,0.0,0.0,-2.0757,0.0,0.0,0.0,0.0,0.0,0.0,0.0,0.0,0.0,0.0,-2.617,-2.641,-2.6595,-2.6217,0.0,0.0,0.0,0.0,-2.6572,-2.6511,-2.652,-2.6434,-2.633,-2.6399,-2.6442,-2.633,0.0,0.0,-2.6485,-2.5238,-2.4202,-2.4193,-2.3011,-2.2007,-2.192,-2.1911,-2.1936,-2.1978,-2.1928,-2.1911,-2.1911,-2.1811,-2.1789,-0.6181,0.0,0.0,0.0,0.0,-1.163,-1.2546,-1.3432,-1.4069,-1.4755,-1.5427,-1.5765,0.0,0.0,0.0,0.0,0.0,0.0,-1.7762,-1.7906,-1.7978,-1.8097,-1.8331,-1.9038,-1.9114,-1.8695,-1.9335,-1.9387,-1.8877,-1.8442,-1.8145,-1.7985,0.0,0.0,0.0,0.0,-1.8779,-1.931,-1.9823,-2.0386,-2.0969,-2.1358,-2.1647,-2.181,-2.1156,-2.0586,-2.0122,-1.9478,-1.8869,-1.8275,-1.7869,0.0,0.0,0.0,0.0,0.0,0.0,0.0,0.0,0.0,0.0,0.0,0.0,0.0,0.0,0.0,0.0,0.0,0.0,0.0,-2.0852,-2.1935,-2.2762,0.0,0.0,0.0,0.0,0.0,0.0,0.0,0.0,0.0,-2.7216,-2.7285,-2.7217,0.0,0.0,-2.6916,-2.6716,-2.6683,-2.6674,-2.664,-2.6598,0.0,0.0,-2.652,-2.6485,-2.6511,-2.6589,-2.6649,-2.6649,-2.54,-2.4413,-2.4405,-2.3216,-2.22,-2.22,-2.214,-2.2111,-2.2131,-2.2115,-2.2081,-2.1969,-2.1978,-2.1949,-0.5964,-0.7505,-0.8819,-1.0049,-1.1217,-1.2298,-1.3378,-1.4456,-1.5224,-1.6021,-1.6776,-1.7128,-1.7482,-1.777,-1.8018,0.0,0.0,0.0,-1.8583,-1.8717,-1.8765,-1.8931,-1.9191,-1.9797,-1.9949,-1.9678,-2.0231,-2.0276,-1.9851,-1.9851,-1.9783,-1.9583,0.0,0.0,-1.8901,-1.9289,-1.9686,-2.0186,-2.06,-2.1079,-2.1584,-2.1886,-2.2195,-2.2553,-2.2045,-2.1426,-2.0749,-2.0121,-1.9508,-1.8896,-1.8596,-1.8118,0.0,0.0,0.0,0.0,0.0,0.0,0.0,0.0,0.0,0.0,0.0,-1.7427,-1.8344,0.0,0.0,0.0,-2.0234,-2.1111,-2.2124,-2.292,0.0,0.0,0.0,0.0,0.0,0.0,0.0,-2.7528,-2.7583,-2.7674,-2.7803,-2.7719,-2.75,-2.7158,-2.7055,-2.6942,-2.6792,0.0,-2.67,-2.67,-2.6691,-2.6623,-2.6623,-2.6598,-2.6598,-2.6623,-2.6683,-2.67,-2.6657,-2.5473,-2.4557,-2.4354,-2.3291,-2.2319,-2.2319,-2.2262,-2.2225,-2.2225,-2.2234,-2.2209,-2.2118,-2.211,-2.2118,-0.5579,-0.6839,-0.8261,-0.9642,-1.1001,-1.2111,-1.3478,-1.4977,-1.5797,-1.6796,-1.7875,-1.8307,-1.8613,-1.8829,-1.9213,0.0,-1.9582,-1.9661,-1.9797,-1.9998,-1.9998,-2.0158,-2.0494,-2.0603,-2.0826,-2.1078,-2.1151,-2.1175,-2.1159,-2.1159,-2.1175,-2.1159,-1.9835,-1.9214,-1.932,-2.0022,-2.0478,-2.0607,-2.1332,-2.1797,-2.1957,-2.2324,-2.2614,-2.2816,-2.2314,-2.167,-2.0941,-2.0399,-1.9804,-1.917,-1.9301,-1.911,-1.8444,0.0,0.0,0.0,0.0,0.0,0.0,0.0,0.0,0.0,0.0,0.0,0.0,0.0,0.0,0.0,-2.2637,0.0,-2.3092,-2.3817,0.0,0.0,0.0,-2.6615,-2.7133,-2.7725,-2.8021,-2.7734,0.0,0.0,-2.8034,-2.7836,-2.7582,-2.719,-2.7064,-2.6975,-2.6926,-2.6784,-2.6725,-2.6733,-2.6742,-2.6691,-2.6691,-2.67,-2.67,-2.67,-2.67,-2.67,-2.6607,-2.5473,-2.4616,-2.4515,-2.3308,-2.2319,-2.2319,-2.2319,-2.2319,-2.2291,-2.2291,-2.2291,-2.2282,-2.2282,-2.2291,-0.5154,-0.644,-0.7863,-0.9541,-1.138,-1.2767,-1.3994,-1.5107,-1.6119,-1.6937,-1.7605,-1.8121,-1.8574,-1.8941,-1.9235,-1.9347,-1.9376,-1.9567,-1.9669,-1.9762,-1.9919,-2.0138,-2.0339,-2.0475,-2.0677,-2.0868,-2.0958,-2.103,-2.1111,-2.1103,-2.1103,-2.1087,-2.0759,-2.0685,-2.086,-2.1138,-2.1349,-2.1431,-2.1698,-2.2003,-2.2293,-2.2525,-2.2773,-2.2952,-2.2427,-2.183,-2.1152,-2.056,-1.9944,-1.9304,-1.9443,-1.9222,-1.8517,-1.8634,0.0,0.0,0.0,0.0,0.0,0.0,0.0,0.0,0.0,-2.0256,-2.1129,0.0,-2.2357,0.0,-2.3528,-2.3956,-2.3937,-2.5175,0.0,0.0,-2.7258,-2.8025,-2.8015,-2.8581,-2.8901,-2.8612,-2.8585,-2.844,-2.8174,-2.8025,-2.7815,-2.7518,-2.7293,-2.7111,-2.6975,-2.695,-2.69,-2.6876,-2.6851,-2.6825,-2.6742,-2.67,-2.67,-2.67,-2.67,-2.67,-2.67,-2.5505,-2.4515,-2.443,-2.3291,-2.2429,-2.2319,-2.2319,-2.2319,-2.2319,-2.2319,-2.2319,-2.2319,-2.2319,-2.2319,-0.4553,-0.5808,-0.7267,-0.8846,-1.0551,-1.2288,-1.3648,-1.4716,-1.5764,-1.6563,-1.7179,-1.7868,-1.8358,-1.869,-1.895,-1.9071,-1.9094,-1.9332,-1.9494,-1.9581,-1.9777,-1.9955,-2.0166,-2.0289,-2.0452,-2.0613,-2.0671,-2.0802,-2.0932,-2.0957,-2.0982,-2.0949,-2.0965,-2.103,-2.119,-2.1363,-2.1534,-2.1686,-2.1878,-2.2101,-2.2396,-2.2623,-2.2816,-2.3028,-2.2528,-2.1955,-2.1301,-2.0708,-2.0062,-1.9431,-1.9587,-1.9535,-1.9198,-1.9305,-1.9191,0.0,0.0,0.0,0.0,0.0,0.0,0.0,0.0,0.0,0.0,0.0,-2.3237,-2.3602,-2.4394,-2.4852,-2.4774,-2.5889,-2.6705,-2.6962,-2.7985,-2.8751,-2.8939,-2.9212,-2.9316,-2.908,-2.8863,-2.8635,-2.8414,-2.8237,-2.8053,-2.7804,-2.7561,-2.7338,-2.7135,-2.7047,-2.7031,-2.695,-2.695,-2.6917,-2.68,-2.6742,-2.67,-2.67,-2.67,-2.67,-2.6657,-2.5505,-2.4515,-2.4421,-2.3283,-2.2319,-2.2319,-2.2319,-2.2319,-2.2319,-2.2319,-2.2319,-2.2319,-2.2319,-2.2319,-0.3895,-0.5162,-0.6576,-0.7919,-0.918,-1.1203,-1.2773,-1.4007,-1.4988,-1.5896,-1.671,-1.7524,-1.7988,-1.824,-1.8553,-1.8714,-1.8753,-1.9071,-1.9265,-1.9332,-1.9552,-1.9769,-1.9927,-2.0018,-2.0143,-2.0334,-2.0376,-2.046,-2.0618,-2.0669,-2.0695,-2.0728,-2.072,-2.0786,-2.0836,-2.0983,-2.1282,-2.1686,-2.1861,-2.2101,-2.2369,-2.256,-2.2773,-2.2886,-2.2392,-2.1855,-2.1264,-2.0661,-2.0092,-1.9537,-1.9684,-1.9852,-1.9997,-2.006,-2.0135,0.0,-2.0365,0.0,0.0,0.0,0.0,0.0,0.0,0.0,0.0,-2.3371,-2.3709,-2.4403,-2.5157,-2.5615,-2.5644,-2.6332,-2.7072,-2.78,-2.8549,-2.9209,-2.9731,-2.9636,-2.9462,-2.9335,-2.9089,-2.8854,-2.866,-2.8475,-2.8282,-2.8081,-2.7893,-2.7672,-2.7369,-2.7221,-2.7143,-2.7031,-2.7016,-2.6942,-2.6893,-2.6784,-2.6742,-2.6708,-2.67,-2.6666,-2.6522,-2.5406,-2.4458,-2.4247,-2.3224,-2.2353,-2.2319,-2.2319,-2.2319,-2.2319,-2.2319,-2.2319,-2.2319,-2.2319,-2.2319,-0.3512,-0.4736,-0.6034,-0.7168,-0.8234,-0.9692,-1.1358,-1.314,-1.4111,-1.5297,-1.6563,-1.6986,-1.738,-1.7679,-1.7868,-1.8082,-1.8307,-1.8592,-1.8791,-1.8912,-1.9288,-1.9487,-1.9531,-1.969,-1.9818,-1.9902,-1.9929,-1.9987,-2.0138,-2.0193,-2.0247,-2.0231,-2.0315,-2.0426,-2.0473,0.0,0.0,0.0,-2.1708,-2.1907,-2.2178,-2.2407,-2.2358,-2.1986,-2.1444,0.0,-2.0351,-1.9834,-1.9531,-1.9508,-1.9688,0.0,0.0,0.0,0.0,0.0,0.0,0.0,0.0,0.0,0.0,0.0,-2.3814,-2.3923,-2.4154,-2.4804,-2.5258,-2.5351,-2.5507,-2.5848,-2.648,-2.7228,-2.7957,-2.8679,-2.9407,-2.9882,-2.9884,-2.9754,-2.9598,-2.9392,-2.9243,-2.9058,-2.8872,-2.8653,-2.8475,-2.8327,-2.82,-2.8025,-2.7882,-2.7569,-2.7364,-2.7198,-2.7096,-2.6983,-2.6917,-2.6876,-2.6825,-2.6742,-2.67,-2.6471,-2.5905,-2.5135,-2.4286,-2.3756,-2.2894,-2.2319,-2.2319,-2.2319,-2.2319,-2.2319,-2.2319,-2.2319,-2.2319,-2.2319,-2.2319,-0.2847,0.0,-0.5164,-0.6253,0.0,-0.8498,-0.9835,-1.1412,-1.2827,-1.4291,-1.5732,-1.6207,-1.657,-1.6915,-1.7249,-1.755,-1.7828,-1.8075,-1.8319,-1.8528,-1.8874,-1.9019,-1.9108,-1.9317,-1.9413,-1.9442,-1.9464,-1.9544,-1.9603,-1.9739,-1.9811,-1.9811,-1.994,-2.001,-2.0042,-1.9521,-1.9618,-2.0302,-2.0412,-2.0607,-2.0908,-2.1169,-2.1259,-2.1084,0.0,0.0,0.0,0.0,0.0,0.0,0.0,0.0,0.0,0.0,0.0,-2.0823,-2.1653,-2.2157,-2.2228,-2.3049,-2.3741,-2.4206,-2.4649,-2.4932,-2.4981,-2.5399,-2.5642,-2.5605,-2.5574,-2.589,-2.672,-2.7469,-2.82,-2.8965,-2.971,-3.0104,-2.9975,-2.9823,-2.9709,-2.9551,-2.9362,-2.9194,-2.9067,-2.8863,-2.8687,-2.8519,-2.838,-2.8255,-2.809,-2.7824,-2.7548,-2.735,-2.7175,-2.7096,-2.7023,-2.6959,-2.6893,-2.68,-2.6733,-2.6387,-2.5727,-2.4983,-2.4286,-2.352,-2.2801,-2.2319,-2.2319,-2.2319,-2.2319,-2.2319,-2.2319,-2.2299,-2.2271,-2.2291,-2.2319,-0.2065,-0.3176,-0.4229,-0.5332,-0.6418,-0.7436,-0.8547,-0.9806,0.0,0.0,0.0,-1.5248,-1.5694,-1.6095,-1.6563,-1.6915,-1.7221,-1.7496,-1.7767,-1.8069,-1.8333,-1.8546,-1.8714,-1.8867,-1.895,-1.8988,-1.9049,-1.9102,-1.9095,-1.9303,-1.9376,-1.942,-1.9537,-1.9565,-1.9459,-1.9136,-1.8847,-1.8662,-1.8965,-1.9284,-1.9617,-1.9907,-2.0084,-2.0231,-1.9795,-1.9609,-1.9726,-1.9299,-1.9193,-1.9429,-1.9785,-2.0039,-2.0185,-2.1056,-2.1577,-2.1626,-2.247,-2.3007,-2.3025,-2.3876,-2.4389,-2.4411,-2.5071,-2.5521,-2.5591,-2.56,-2.5605,-2.5608,-2.5547,-2.5913,-2.6904,-2.7526,-2.8298,-2.9212,-2.9858,-3.0166,-3.0028,-2.9907,-2.9808,-2.9692,-2.9483,-2.9312,-2.9225,-2.9044,-2.8867,-2.8678,-2.8536,-2.8362,-2.8209,-2.7893,-2.763,-2.7474,-2.7341,-2.7207,-2.7135,-2.7023,-2.6959,-2.6893,-2.6682,-2.6276,-2.5532,-2.4788,-2.4052,-2.3274,-2.2691,-2.2386,-2.2319,-2.2291,-2.2291,-2.2274,-2.2254,-2.2245,-2.218,-2.2209,-2.2237,-0.1339,-0.2285,-0.3449,-0.45,-0.538,-0.6364,-0.7753,-0.9433,-1.1408,-1.2798,-1.3658,-1.4133,-1.4692,-1.5293,-1.5662,-1.6064,-1.6484,-1.6782,-1.7131,0.0,-1.7801,-1.8049,-1.8307,-1.8358,-1.8482,-1.8581,-1.8588,-1.8659,-1.8774,-1.8867,-1.895,-1.9048,-1.9153,-1.898,-1.8624,-1.8678,-1.8261,-1.734,-1.8312,-1.8988,-1.9256,-1.9582,-1.9537,-1.916,-1.9258,-1.9143,-1.8725,-1.8843,-1.9014,-1.924,-2.0143,-2.0714,-2.0884,-2.1736,-2.2277,-2.2388,-2.3228,-2.3771,-2.3841,-2.4659,-2.5177,-2.5228,-2.541,-2.5528,-2.5599,-2.5604,-2.5604,-2.5607,-2.555,-2.6146,-2.7584,-2.7864,-2.852,-2.9936,-3.0231,-3.0226,-3.0093,-3.0016,-2.9891,-2.9736,-2.9551,-2.9423,-2.9291,-2.9115,-2.8952,-2.8848,-2.8662,-2.8493,-2.8237,-2.7931,-2.7701,-2.7651,-2.7505,-2.7367,-2.7273,-2.7152,-2.7023,-2.6917,-2.6349,-2.5647,-2.4879,-2.4137,-2.3418,-2.2623,-2.2383,-2.2299,-2.2291,-2.2254,-2.2225,-2.2189,-2.2126,-2.2064,-2.2036,-2.2036,-2.2036,-0.0446,-0.1507,-0.245,-0.3448,-0.4498,-0.5867,-0.7168,-0.8386,-0.9666,-1.1082,-1.2439,-1.3034,-1.3658,-1.4313,-1.4698,-1.5164,-1.565,-1.6014,-1.6398,-1.6837,-1.7124,-1.7386,-1.7652,-1.7882,-1.8002,-1.8049,-1.8156,-1.8202,-1.8282,-1.8411,-1.8496,-1.8588,-1.8781,-1.8685,-1.828,-1.832,-1.8029,-1.7414,-1.7827,-1.7994,-1.7853,-1.8129,-1.822,-1.8082,-1.8333,-1.8461,-1.8391,-1.8605,-1.9058,-1.9776,-2.0356,-2.0942,-2.1535,-2.2468,-2.303,-2.3111,-2.3976,-2.4545,-2.464,-2.5051,-2.5322,-2.534,-2.5415,-2.5464,-2.5488,-2.5522,-2.5544,-2.5548,-2.5518,-2.6188,-2.7792,-2.7942,-2.8548,-3.0184,-3.0318,-3.0259,-3.0142,-3.0038,-2.994,-2.9771,-2.9636,-2.9502,-2.9383,-2.9212,-2.9076,-2.8961,-2.877,-2.851,-2.8354,-2.8118,-2.7902,-2.7722,-2.7612,-2.7496,-2.7359,-2.7239,-2.7103,-2.6965,-2.6245,-2.5448,-2.4635,-2.3892,-2.3148,-2.2479,-2.2262,-2.2254,-2.2245,-2.2172,-2.2106,-2.2098,-2.2044,-2.1982,-2.1969,-2.1899,-2.1878,0.0503,-0.0558,-0.1395,-0.2449,-0.3725,-0.5316,-0.6352,-0.7109,-0.785,-0.9148,-1.0734,-1.1756,-1.2546,-1.3231,-1.3716,-1.4231,-1.4778,-1.5124,-1.5561,-1.6045,-1.6361,-1.6667,-1.7018,-1.7304,-1.7462,-1.7544,-1.7645,-1.77,-1.7794,-1.7949,-1.8069,-1.8189,-1.8446,-1.847,-1.8201,-1.8223,-1.8112,-1.7815,-1.7714,-1.7498,-1.7089,-1.7213,-1.7345,-1.7584,-1.7833,-1.8107,-1.8455,-1.884,-1.9479,-2.04,-2.0841,-2.1421,-2.2187,-2.3142,-2.3736,-2.3879,-2.4538,-2.5003,-2.5146,-2.5227,-2.5271,-2.5283,-2.5341,-2.5398,-2.5386,-2.5443,-2.5481,-2.5471,-2.5485,-2.6101,-2.7381,-2.7817,-2.846,-2.9826,-3.019,-3.0236,-3.0108,-3.0038,-2.9949,-2.9825,-2.9664,-2.9559,-2.9442,-2.9289,-2.9134,-2.897,-2.8746,-2.8562,-2.8415,-2.8291,-2.8109,-2.7864,-2.7739,-2.7621,-2.7426,-2.7094,-2.6905,-2.6787,-2.584,-2.496,-2.4232,-2.3621,-2.3021,-2.2392,-2.2225,-2.2197,-2.216,-2.2069,-2.1978,-2.1949,-2.1911,-2.189,-2.1819,-2.1768,-2.1724,0.1342,0.0615,-0.0391,-0.1728,-0.3172,-0.4165,-0.4988,-0.5753,-0.6571,-0.7422,-0.8413,-1.0124,-1.1312,-1.2012,-1.2648,-1.3241,-1.3758,-1.4195,-1.4703,-1.5203,-1.5573,-1.592,-1.6361,-1.6546,-1.6765,-1.7034,-1.707,-1.7221,-1.7399,-1.7523,-1.772,-1.8002,-1.8189,-1.8326,-1.8458,-1.8622,-1.8525,-1.819,-1.8359,-1.8417,-1.8229,-1.7903,-1.7861,-1.8119,-1.8317,-1.8592,-1.8928,-1.9855,-2.049,-2.0951,-2.1857,-2.2509,-2.2868,-2.3754,-2.4355,-2.4472,-2.4706,-2.4879,-2.4994,-2.5137,-2.5205,-2.5208,-2.5271,-2.5312,-2.5313,-2.536,-2.5415,-2.5401,-2.5419,-2.5855,-2.6717,-2.7382,-2.8147,-2.915,-2.9791,-3.0189,-3.0098,-3.0038,-2.9949,-2.9825,-2.9692,-2.9559,-2.9482,-2.9319,-2.9121,-2.8876,-2.8746,-2.8498,-2.8297,-2.8228,-2.8049,-2.7881,-2.7791,-2.7563,-2.7287,-2.6757,-2.6277,-2.5947,-2.4778,-2.3994,-2.3549,-2.3024,-2.235,-2.2335,-2.2197,-2.2123,-2.204,-2.1978,-2.1899,-2.1819,-2.1768,-2.1716,-2.1634,-2.1603,-2.1603,0.2293,0.1454,0.0671,-0.0558,-0.2063,-0.301,-0.3836,-0.4551,-0.5324,-0.6086,-0.6889,-0.8162,-0.9522,-1.0868,-1.1462,-1.2056,-1.2686,-1.3188,-1.3716,-1.422,-1.4658,-1.5028,-1.549,-1.5806,-1.6107,-1.6306,-1.6478,-1.6661,-1.6788,-1.7012,-1.7358,-1.7679,-1.7767,-1.7982,-1.8282,-1.8418,-1.8471,-1.8561,-1.8768,-1.9003,-1.9064,-1.8517,-1.829,-1.8555,-1.8762,-1.9016,-1.9378,-1.9957,-2.0623,-2.1408,-2.2055,-2.2686,-2.34,-2.3951,-2.4303,-2.4454,-2.4695,-2.4813,-2.4874,-2.4996,-2.5069,-2.5087,-2.5141,-2.5206,-2.5221,-2.5262,-2.5292,-2.5293,-2.536,-2.5744,-2.6506,-2.6879,-2.7547,-2.8705,-2.926,-2.9588,-3.0015,-2.9991,-2.9907,-2.9808,-2.9692,-2.9588,-2.9482,-2.9319,-2.9089,-2.8858,-2.8718,-2.842,-2.7855,-2.7661,-2.7351,-2.6748,-2.6515,-2.6597,-2.6658,-2.6147,-2.5588,-2.5093,-2.4315,-2.3579,-2.3292,-2.2742,-2.2251,-2.2222,-2.2103,-2.2011,-2.1899,-2.1819,-2.1768,-2.1694,-2.1587,-2.1495,-2.1388,-2.1364,-2.1348,0.3241,0.2347,0.1509,0.0391,-0.095,-0.1787,-0.2564,-0.3284,-0.401,-0.4778,-0.5485,-0.6305,-0.7635,-0.9214,-1.0143,-1.0906,-1.1566,-1.2178,-1.2706,-1.3231,-1.3721,-1.4206,-1.4617,-1.504,-1.5355,-1.5573,-1.5832,-1.6045,-1.6188,-1.6515,-1.6869,-1.7186,-1.7317,-1.7577,-1.7949,-1.7989,-1.8221,-1.8592,-1.8829,-1.9139,-1.9389,-1.8978,-1.8772,-1.8994,-1.9185,-1.9422,-1.9775,-2.0289,-2.0986,-2.1881,-2.2233,-2.2758,-2.3592,-2.3864,-2.4075,-2.4339,-2.4584,-2.4711,-2.4744,-2.487,-2.4953,-2.4951,-2.5,-2.5072,-2.5122,-2.5153,-2.5166,-2.5171,-2.5253,-2.559,-2.6071,-2.6365,-2.701,-2.8083,-2.8519,-2.9113,-2.9551,-2.9744,-2.9857,-2.9763,-2.9655,-2.9531,-2.9375,-2.9061,-2.8649,-2.847,-2.8193,-2.7879,-2.7105,-2.6835,-2.6546,-2.5728,-2.5438,-2.549,-2.5874,-2.539,-2.4811,-2.4384,-2.3742,-2.315,-2.3099,-2.2502,-2.214,-2.2065,-2.1953,-2.1857,-2.1768,-2.1686,-2.1565,-2.1489,-2.1379,-2.123,-2.1151,-2.1103,-2.1055,0.4072,0.3346,0.1954,0.0894,0.0112,-0.0559,-0.1229,-0.1956,-0.2681,-0.3403,-0.4171,-0.4884,-0.576,-0.6904,-0.8587,-0.9791,-1.0466,-1.1137,-1.1729,-1.2258,-1.2812,-1.3346,-1.3862,-1.4124,-1.4496,-1.4903,-1.5091,-1.5406,-1.5788,-1.6094,-1.6312,-1.6558,-1.6827,-1.708,-1.7399,-1.7523,-1.7774,-1.8189,-1.8397,-1.8707,-1.9087,-1.9259,-1.9308,-1.9401,-1.961,-1.9842,-2.0229,-2.1226,-2.1938,-2.2271,-2.2617,-2.2991,-2.3292,-2.3535,-2.381,-2.4154,-2.433,-2.4473,-2.4589,-2.4736,-2.4802,-2.4808,-2.487,-2.4942,-2.5003,-2.5016,-2.5031,-2.5094,-2.512,-2.5197,-2.5367,-2.5901,-2.6364,-2.6699,-2.7908,-2.8593,-2.873,-2.9288,-2.9759,-2.9597,-2.9364,-2.9134,-2.9089,-2.8412,-2.7888,-2.7538,-2.6918,-2.6329,-2.6132,-2.5998,-2.5768,-2.5375,-2.49,-2.4559,-2.5036,-2.4543,-2.4017,-2.3644,-2.309,-2.2485,-2.235,-2.2185,-2.2028,-2.1886,-2.1819,-2.17,-2.1625,-2.1511,-2.1348,-2.1222,-2.1079,-2.0942,-2.0893,-2.086,-2.0803,0.4787,0.3741,0.2736,0.1956,0.1286,0.0615,-0.0056,-0.0726,-0.1508,-0.2233,-0.2954,-0.3785,-0.4672,-0.5553,-0.6625,-0.795,-0.9332,-1.0072,-1.0669,-1.122,-1.1837,-1.2442,-1.2929,-1.3261,-1.3647,-1.4077,-1.4403,-1.4823,-1.5328,-1.5546,-1.5768,-1.6064,-1.6312,-1.6614,-1.6892,-1.7073,-1.733,-1.7733,-1.7962,-1.8233,-1.8592,-1.8853,-1.9097,-1.9316,-1.9771,-2.0213,-2.056,-2.1194,-2.1675,-2.201,-2.2347,-2.2678,-2.3044,-2.3394,-2.3667,-2.3878,-2.4095,-2.4247,-2.4348,-2.4459,-2.4578,-2.467,-2.4695,-2.4751,-2.4842,-2.4879,-2.4911,-2.4945,-2.4968,-2.4987,-2.5034,-2.5326,-2.5697,-2.6251,-2.6755,-2.7346,-2.7696,-2.8027,-2.8148,-2.8069,-2.7932,-2.7761,-2.7655,-2.7233,-2.6964,-2.6731,-2.6404,-2.5885,-2.533,-2.5135,-2.4889,-2.4194,-2.375,-2.3544,-2.3509,-2.3395,-2.3081,-2.2873,-2.253,-2.2324,-2.2152,-2.1999,-2.1857,-2.1759,-2.1691,-2.1509,-2.1411,-2.1206,-2.1087,-2.0958,-2.0786,-2.0679,-2.0603,-2.0569,-2.0522,0.5285,0.4351,0.3572,0.296,0.2403,0.1787,0.1117,0.0447,-0.0335,-0.1061,-0.1785,-0.2566,-0.3457,-0.4341,-0.4948,-0.6086,-0.7697,-0.8754,-0.9592,-1.0159,-1.0889,-1.1456,-1.1959,-1.2393,-1.2783,-1.318,-1.3705,-1.4222,-1.4651,-1.4915,-1.5181,-1.5439,-1.5724,-1.6044,-1.6337,-1.6571,-1.6869,-1.7227,-1.7427,-1.772,-1.8075,-1.8365,-1.8676,-1.902,-1.9565,-2.0085,-2.0579,-2.095,-2.1293,-2.1683,-2.199,-2.2356,-2.2764,-2.3175,-2.344,-2.358,-2.3801,-2.3996,-2.4096,-2.4238,-2.4365,-2.4489,-2.453,-2.4584,-2.4704,-2.4753,-2.4764,-2.4813,-2.4842,-2.4828,-2.4832,-2.488,-2.513,-2.5688,-2.5938,-2.6252,-2.677,-2.7062,-2.717,-2.7175,-2.7046,-2.6797,-2.6595,-2.6325,-2.6069,-2.5846,-2.5588,-2.5008,-2.4488,-2.4195,-2.3983,-2.3225,-2.3074,-2.2937,-2.2901,-2.2793,-2.2687,-2.2487,-2.233,-2.2123,-2.1966,-2.1848,-2.17,-2.1631,-2.1479,-2.1332,-2.1143,-2.0942,-2.0786,-2.0662,-2.052,-2.0376,-2.0331,-2.0277,-2.0239,0.5673,0.5069,0.4457,0.39,0.34,0.2901,0.229,0.1565,0.095,0.0168,-0.067,-0.1341,-0.2176,-0.3063,-0.3729,-0.45,-0.5649,-0.7312,-0.8488,-0.9176,-0.9906,-1.0482,-1.1002,-1.1456,-1.1914,-1.2304,-1.3025,-1.3515,-1.3852,-1.4181,-1.4466,-1.4743,-1.5085,-1.5406,-1.5635,-1.6007,-1.6355,-1.668,-1.6899,-1.7227,-1.7639,-1.7882,-1.8202,-1.8553,-1.8936,-1.9442,-2.0131,-2.0571,-2.095,-2.1285,-2.1601,-2.2044,-2.2516,-2.2799,-2.3019,-2.3277,-2.3495,-2.3694,-2.3885,-2.4016,-2.4143,-2.4275,-2.4358,-2.4437,-2.4547,-2.458,-2.4613,-2.4676,-2.4689,-2.4692,-2.4692,-2.4686,-2.4758,-2.4885,-2.5449,-2.5831,-2.601,-2.6564,-2.6979,-2.6712,-2.6454,-2.6519,-2.6333,-2.567,-2.5094,-2.4887,-2.4352,-2.3802,-2.3643,-2.345,-2.3156,-2.2978,-2.2825,-2.265,-2.2533,-2.2413,-2.2338,-2.2254,-2.2094,-2.1907,-2.1789,-2.167,-2.1526,-2.1433,-2.1238,-2.1055,-2.086,-2.0662,-2.0494,-2.0365,-2.022,-2.0108,-2.0053,-1.999,-1.9927,0.6537,0.5943,0.5498,0.495,0.44,0.385,0.3241,0.2572,0.19,0.1174,0.0503,-0.0279,-0.1116,-0.1897,-0.262,-0.3398,-0.4177,-0.5429,-0.673,-0.7963,-0.8866,-0.9503,-1.0024,-1.0482,-1.1086,-1.181,-1.226,-1.2745,-1.3117,-1.3409,-1.3742,-1.4087,-1.4501,-1.4829,-1.5085,-1.5406,-1.5762,-1.6095,-1.6367,-1.6661,-1.7005,-1.7365,-1.7733,-1.7995,-1.8351,-1.8769,-1.9214,-1.9937,-2.0478,-2.0811,-2.1103,-2.1538,-2.2084,-2.2463,-2.2712,-2.2961,-2.3208,-2.3398,-2.3549,-2.3703,-2.3891,-2.4016,-2.4095,-2.4191,-2.4312,-2.4375,-2.441,-2.4489,-2.4495,-2.4502,-2.4493,-2.4493,-2.4538,-2.4647,-2.4846,-2.4991,-2.497,-2.5113,-2.5116,-2.504,-2.4895,-2.4787,-2.4677,-2.4263,-2.419,-2.4055,-2.3636,-2.3345,-2.3208,-2.3077,-2.2885,-2.2764,-2.2605,-2.2426,-2.224,-2.2098,-2.2011,-2.1932,-2.1797,-2.17,-2.1579,-2.1456,-2.1348,-2.1159,-2.0958,-2.0761,-2.0543,-2.0373,-2.02,-2.0088,-1.9932,-1.9869,-1.9769,-1.9705,-1.964,0.7295,0.6701,0.6379,0.5887,0.5285,0.4734,0.4127,0.3574,0.2853,0.218,0.1507,0.0726,-0.0056,-0.0782,-0.1507,-0.2233,-0.3013,-0.3843,-0.4992,-0.6352,-0.7652,-0.8455,-0.9033,-0.9655,-1.0324,-1.1049,-1.1469,-1.1904,-1.2384,-1.2686,-1.3035,-1.3415,-1.3795,-1.4129,-1.449,-1.4823,-1.513,-1.5478,-1.5788,-1.6051,-1.6411,-1.6795,-1.7131,-1.7386,-1.7794,-1.8201,-1.8599,-1.9229,-1.9803,-2.0334,-2.0755,-2.1221,-2.1718,-2.2064,-2.2345,-2.2571,-2.2833,-2.307,-2.3232,-2.343,-2.3603,-2.3728,-2.3852,-2.3926,-2.4057,-2.4115,-2.4219,-2.4284,-2.4293,-2.4311,-2.4321,-2.433,-2.4338,-2.4366,-2.4429,-2.4401,-2.4338,-2.4238,-2.4209,-2.4205,-2.4049,-2.3864,-2.378,-2.3607,-2.3553,-2.3407,-2.3265,-2.3135,-2.3011,-2.285,-2.2677,-2.2516,-2.2362,-2.2158,-2.1899,-2.1789,-2.167,-2.1579,-2.1518,-2.1433,-2.1348,-2.1206,-2.1087,-2.0827,-2.0595,-2.0399,-2.0208,-2.0025,-1.9848,-1.9733,-1.9646,-1.9545,-1.9442,-1.9413,-1.9347,0.7886,0.7345,0.7087,0.6601,0.6052,0.5555,0.5062,0.4515,0.3799,0.3129,0.2513,0.173,0.1006,0.0279,-0.0391,-0.1117,-0.1901,-0.2734,-0.3453,-0.4498,-0.5921,-0.712,-0.7975,-0.8827,-0.9551,-1.0111,-1.0541,-1.1053,-1.156,-1.1864,-1.2255,-1.2725,-1.3025,-1.3362,-1.3747,-1.4134,-1.446,-1.4812,-1.5124,-1.5439,-1.575,-1.6095,-1.6447,-1.6746,-1.7214,-1.7639,-1.8095,-1.8514,-1.9079,-1.9904,-2.0538,-2.095,-2.1355,-2.1648,-2.1882,-2.2172,-2.2409,-2.2677,-2.2902,-2.3086,-2.3247,-2.3458,-2.358,-2.3712,-2.3753,-2.3887,-2.4005,-2.4054,-2.4113,-2.417,-2.4152,-2.4152,-2.4113,-2.4016,-2.4144,-2.4191,-2.4181,-2.4065,-2.3985,-2.3935,-2.3819,-2.3687,-2.3625,-2.343,-2.3304,-2.3208,-2.3036,-2.2876,-2.279,-2.2633,-2.2417,-2.2243,-2.2101,-2.1869,-2.1617,-2.1509,-2.1394,-2.1166,-2.1103,-2.1079,-2.099,-2.0885,-2.0753,-2.0494,-2.0227,-2.0061,-1.9884,-1.9669,-1.9479,-1.9362,-1.928,-1.9213,-1.9146,-1.9078,-1.904,0.8682,0.82,0.7827,0.7396,0.6912,0.6379,0.583,0.5391,0.4787,0.4125,0.3518,0.2847,0.2124,0.1454,0.0671,-0.0056,-0.0782,-0.1564,-0.2345,-0.301,-0.3953,-0.5597,-0.7122,-0.7981,-0.8613,-0.9134,-0.9562,-1.0075,-1.0576,-1.0952,-1.141,-1.1954,-1.2255,-1.2598,-1.3069,-1.3357,-1.37,-1.4082,-1.4455,-1.4766,-1.513,-1.5478,-1.5832,-1.6213,-1.6674,-1.7096,-1.7482,-1.8068,-1.8808,-1.9718,-2.0162,-2.0556,-2.0942,-2.1206,-2.1509,-2.1802,-2.2027,-2.2262,-2.2526,-2.2721,-2.2902,-2.3111,-2.3256,-2.3365,-2.3504,-2.3638,-2.3703,-2.3738,-2.3801,-2.3855,-2.3825,-2.3816,-2.3792,-2.3747,-2.3834,-2.3899,-2.3896,-2.3831,-2.3777,-2.3747,-2.3567,-2.343,-2.3351,-2.3175,-2.3003,-2.2952,-2.2782,-2.2579,-2.2508,-2.2326,-2.2073,-2.1945,-2.1768,-2.1565,-2.1356,-2.1246,-2.1079,-2.0745,-2.0646,-2.0646,-2.052,-2.0392,-2.0296,-2.0103,-1.9812,-1.9603,-1.9472,-1.9317,-1.9169,-1.9019,-1.8896,-1.8841,-1.875,-1.8673,-1.8659,0.9312,0.889,0.8458,0.8037,0.7616,0.7025,0.6593,0.6159,0.5557,0.4954,0.4351,0.3685,0.3016,0.2404,0.1677,0.095,0.0279,-0.0503,-0.1172,-0.1898,-0.2844,-0.4388,-0.6034,-0.6907,-0.7495,-0.8087,-0.8564,-0.9086,-0.9599,-1.0024,-1.0494,-1.0998,-1.141,-1.181,-1.2349,-1.2589,-1.2934,-1.3367,-1.3705,-1.4071,-1.4449,-1.4766,-1.517,-1.554,-1.597,-1.6404,-1.7012,-1.7625,-1.8376,-1.9184,-1.9688,-2.0042,-2.0452,-2.0738,-2.1063,-2.137,-2.1615,-2.1853,-2.2158,-2.2362,-2.2561,-2.2756,-2.2919,-2.3045,-2.3184,-2.3319,-2.338,-2.3444,-2.3486,-2.3531,-2.3522,-2.3513,-2.3463,-2.3412,-2.3431,-2.3513,-2.362,-2.3562,-2.3513,-2.343,-2.3289,-2.3119,-2.3052,-2.285,-2.2712,-2.2606,-2.2436,-2.2279,-2.2175,-2.1957,-2.1751,-2.1579,-2.1442,-2.1222,-2.0998,-2.0852,-2.0687,-2.0392,-2.01,-2.01,-2.0108,-1.9947,-1.9848,-1.9676,-1.9428,-1.9198,-1.9101,-1.8974,-1.8829,-1.8697,-1.8584,-1.8467,-1.8368,-1.8282,-1.8275,0.984,0.9465,0.9033,0.8676,0.8265,0.7667,0.7238,0.6925,0.6265,0.5723,0.5179,0.4519,0.3906,0.3241,0.2682,0.1957,0.1285,0.067,-0.0112,-0.0949,-0.1953,-0.334,-0.4664,-0.5658,-0.6312,-0.6912,-0.7447,-0.8031,-0.8557,-0.9037,-0.9506,-1.002,-1.0486,-1.0947,-1.1451,-1.1814,-1.221,-1.2633,-1.2929,-1.3314,-1.37,-1.4082,-1.4444,-1.4852,-1.5305,-1.587,-1.6527,-1.7118,-1.7733,-1.8539,-1.9065,-1.9522,-1.9912,-2.0258,-2.0581,-2.0902,-2.1214,-2.1471,-2.1781,-2.1986,-2.2158,-2.2371,-2.2543,-2.2703,-2.2816,-2.2926,-2.3036,-2.3095,-2.3175,-2.319,-2.3199,-2.316,-2.3119,-2.3028,-2.2969,-2.3044,-2.3199,-2.3274,-2.3219,-2.307,-2.2944,-2.2773,-2.2677,-2.2516,-2.2335,-2.2234,-2.2064,-2.1899,-2.1759,-2.1593,-2.1347,-2.1175,-2.1023,-2.0868,-2.0669,-2.046,-2.0254,-1.9983,-1.961,-1.9501,-1.9603,-1.9545,-1.9406,-1.9235,-1.9033,-1.8843,-1.8728,-1.8606,-1.8496,-1.8354,-1.8197,-1.809,-1.7982,-1.7916,-1.7882,1.051,1.0138,0.9662,0.9253,0.8945,0.8418,0.7987,0.7664,0.7179,0.6642,0.6107,0.5609,0.5062,0.4453,0.3735,0.3128,0.2458,0.1732,0.0894,-0.0223,-0.0894,-0.1675,-0.2788,-0.4062,-0.5115,-0.5714,-0.6256,-0.6853,-0.745,-0.7978,-0.8508,-0.9086,-0.9503,-0.9976,-1.0482,-1.0897,-1.1364,-1.1864,-1.221,-1.254,-1.2972,-1.3314,-1.3695,-1.4206,-1.4897,-1.5484,-1.5964,-1.6355,-1.6782,-1.7394,-1.8245,-1.8997,-1.9442,-1.9767,-2.0104,-2.0455,-2.0771,-2.1047,-2.1325,-2.1565,-2.1784,-2.1936,-2.2121,-2.2237,-2.2347,-2.2526,-2.2614,-2.2659,-2.2721,-2.2721,-2.273,-2.2747,-2.2677,-2.2615,-2.25,-2.2448,-2.2527,-2.2798,-2.292,-2.2781,-2.2536,-2.2339,-2.2292,-2.2093,-2.1949,-2.1853,-2.1683,-2.1495,-2.1332,-2.1158,-2.0966,-2.0745,-2.062,-2.046,-2.0212,-2.0003,-1.979,-1.9545,-1.9176,-1.8957,-1.9064,-1.9011,-1.8867,-1.8753,-1.8637,-1.8482,-1.8333,-1.8235,-1.8083,-1.7943,-1.7835,-1.7726,-1.7631,-1.7563,-1.7522,1.107,1.0812,1.0297,0.9884,0.9524,0.9103,0.8679,0.8359,0.7937,0.7402,0.691,0.6423,0.5828,0.5281,0.4673,0.4065,0.3401,0.2626,0.1732,0.0838,0.0223,-0.0391,-0.1061,-0.2231,-0.3341,-0.4448,-0.522,-0.5823,-0.6477,-0.7017,-0.7551,-0.8137,-0.8554,-0.903,-0.9551,-0.9917,-1.0438,-1.0943,-1.1309,-1.1755,-1.2246,-1.2545,-1.3025,-1.3595,-1.4294,-1.4892,-1.5242,-1.5688,-1.6101,-1.6618,-1.736,-1.8173,-1.8769,-1.9147,-1.95,-1.9909,-2.0254,-2.0553,-2.086,-2.1087,-2.1309,-2.1565,-2.1675,-2.1794,-2.1911,-2.2089,-2.2126,-2.2175,-2.2195,-2.2243,-2.2243,-2.2215,-2.2203,-2.2118,-2.199,-2.1915,-2.1895,-2.2265,-2.2503,-2.2315,-2.2113,-2.1924,-2.1786,-2.1615,-2.1462,-2.137,-2.1245,-2.1047,-2.0869,-2.0697,-2.053,-2.0334,-2.0212,-2.001,-1.9762,-1.9545,-1.931,-1.9056,-1.876,-1.8574,-1.8567,-1.8443,-1.824,-1.824,-1.8247,-1.8049,-1.7942,-1.7808,-1.7686,-1.7563,-1.7432,-1.7356,-1.7267,-1.7218,-1.7177,1.1669,1.1372,1.0968,1.0561,1.0102,0.9725,0.9364,0.9054,0.8586,0.815,0.7658,0.7071,0.664,0.6039,0.5546,0.4997,0.4176,0.3401,0.2566,0.201,0.1452,0.0837,0.0223,-0.0558,-0.1561,-0.3231,-0.4007,-0.4723,-0.5384,-0.5987,-0.6473,-0.7015,-0.7545,-0.8022,-0.8557,-0.8984,-0.9451,-0.9957,-1.0379,-1.0846,-1.1405,-1.171,-1.2246,-1.2972,-1.3489,-1.4003,-1.4463,-1.4926,-1.5394,-1.5957,-1.638,-1.7012,-1.7767,-1.8443,-1.8898,-1.9295,-1.9682,-2.0038,-2.0319,-2.0563,-2.0811,-2.1119,-2.1166,-2.1261,-2.1448,-2.1518,-2.157,-2.1601,-2.1623,-2.1623,-2.1639,-2.1631,-2.1601,-2.154,-2.144,-2.1331,-2.1331,-2.162,-2.165,-2.1697,-2.1527,-2.1311,-2.1244,-2.1127,-2.1007,-2.0877,-2.0753,-2.062,-2.0402,-2.0224,-2.005,-1.9874,-1.9747,-1.9486,-1.9236,-1.9019,-1.8791,-1.8584,-1.8326,-1.8175,-1.8062,-1.7808,-1.772,-1.7902,-1.7909,-1.77,-1.7529,-1.7413,-1.7295,-1.7164,-1.7038,-1.696,-1.6918,-1.6876,-1.6833,1.222,1.1927,1.1523,1.112,1.0714,1.0403,1.0035,0.9669,0.9309,0.8935,0.8564,0.8106,0.7613,0.7171,0.6583,0.5823,0.4891,0.4229,0.3677,0.3123,0.2621,0.2065,0.1508,0.0893,0.0056,-0.0948,-0.2174,-0.3231,-0.4012,-0.4567,-0.5275,-0.5819,-0.6308,-0.6848,-0.7444,-0.7925,-0.8452,-0.8974,-0.9399,-0.9917,-1.0427,-1.0893,-1.1456,-1.2236,-1.2618,-1.3092,-1.3584,-1.4009,-1.4479,-1.4932,-1.5377,-1.5926,-1.6674,-1.7632,-1.8312,-1.8815,-1.9102,-1.9442,-1.976,-1.9949,-2.0124,-2.0337,-2.0506,-2.0622,-2.0763,-2.0869,-2.0901,-2.0942,-2.0942,-2.0942,-2.095,-2.0934,-2.0942,-2.0909,-2.0788,-2.064,-2.0632,-2.0616,-2.0732,-2.0862,-2.075,-2.0694,-2.0649,-2.0605,-2.047,-2.0334,-2.0204,-2.0065,-1.9917,-1.9732,-1.9551,-1.9413,-1.928,-1.9004,-1.8693,-1.8482,-1.8254,-1.8108,-1.7875,-1.772,-1.7523,-1.724,-1.7205,-1.7323,-1.7406,-1.7275,-1.7109,-1.7025,-1.6905,-1.6784,-1.6656,-1.6565,-1.6528,-1.6491,-1.6485,1.2696,1.2442,1.2116,1.1723,1.1322,1.1061,1.0757,1.0344,1.0035,0.9718,0.9302,0.8893,0.8471,0.8031,0.7492,0.6686,0.5875,0.5334,0.4836,0.4283,0.3843,0.3293,0.2681,0.212,0.1507,0.0726,-0.0335,-0.1616,-0.2788,-0.3511,-0.4064,-0.4615,-0.5164,-0.571,-0.6256,-0.674,-0.7334,-0.7871,-0.8405,-0.8928,-0.9499,-1.0016,-1.074,-1.1246,-1.1733,-1.2115,-1.2657,-1.315,-1.3621,-1.4133,-1.4549,-1.5068,-1.5694,-1.6435,-1.7319,-1.7981,-1.8408,-1.8755,-1.9072,-1.9273,-1.942,-1.9666,-1.9773,-1.9894,-2.0,-2.0077,-2.0162,-2.0204,-2.0239,-2.0239,-2.0239,-2.0231,-2.0239,-2.0197,-2.0035,-1.9914,-1.9887,-1.9745,-1.9793,-2.0008,-2.0147,-2.0154,-2.0124,-2.0058,-1.996,-1.9826,-1.9654,-1.9501,-1.9384,-1.9184,-1.899,-1.8846,-1.8662,-1.8422,-1.814,-1.7962,-1.7767,-1.7591,-1.7421,-1.7221,-1.7018,-1.6772,-1.665,-1.6686,-1.6729,-1.668,-1.6693,-1.6607,-1.6485,-1.6405,-1.6269,-1.6182,-1.6144,-1.61,-1.6138,1.3213,1.2919,1.2749,1.2372,1.1927,1.1723,1.1473,1.112,1.0761,1.0446,1.0075,0.9618,0.9256,0.8834,0.8243,0.7605,0.6858,0.6482,0.5932,0.5382,0.5001,0.4512,0.3903,0.3347,0.2734,0.2177,0.1508,0.0223,-0.1449,-0.2285,-0.2899,-0.3453,-0.4007,-0.4562,-0.5056,-0.5603,-0.6154,-0.6696,-0.7286,-0.7865,-0.8603,-0.9291,-0.9865,-1.0285,-1.0673,-1.1111,-1.1665,-1.2164,-1.2696,-1.3226,-1.3705,-1.4236,-1.4784,-1.5236,-1.5946,-1.6866,-1.7442,-1.7894,-1.8205,-1.8461,-1.864,-1.8848,-1.8938,-1.9058,-1.9162,-1.9185,-1.9236,-1.9361,-1.9361,-1.9354,-1.931,-1.9354,-1.9361,-1.9332,-1.9207,-1.9102,-1.9058,-1.8945,-1.8793,-1.9036,-1.9427,-1.9536,-1.9435,-1.9479,-1.9369,-1.9251,-1.9117,-1.8929,-1.8815,-1.8609,-1.8415,-1.8226,-1.8035,-1.7787,-1.7591,-1.7427,-1.7227,-1.7041,-1.6879,-1.6729,-1.6558,-1.6349,-1.6262,-1.6126,-1.6032,-1.6032,-1.6088,-1.6188,-1.615,-1.6019,-1.5842,-1.5792,-1.5836,-1.5836,-1.583,1.3763,1.3472,1.3218,1.289,1.2578,1.2421,1.2224,1.1923,1.1514,1.1272,1.1006,1.0553,1.0131,0.9655,0.8932,0.8246,0.7821,0.7495,0.7012,0.647,0.615,0.5714,0.5115,0.457,0.4068,0.3511,0.2957,0.1563,0.0111,-0.0724,-0.1506,-0.2119,-0.2675,-0.3235,-0.3844,-0.434,-0.495,-0.5494,-0.6093,-0.6845,-0.77,-0.8293,-0.8718,-0.9134,-0.9544,-1.0005,-1.0559,-1.1061,-1.1602,-1.2155,-1.2648,-1.3188,-1.3711,-1.4091,-1.456,-1.5326,-1.6157,-1.7028,-1.7244,-1.747,-1.768,-1.79,-1.8033,-1.8166,-1.8185,-1.8203,-1.8235,-1.8295,-1.8302,-1.8302,-1.8288,-1.8295,-1.8295,-1.8263,-1.8231,-1.8166,-1.814,-1.812,-1.7974,-1.7974,-1.8341,-1.8588,-1.8679,-1.8769,-1.8815,-1.8693,-1.8539,-1.839,-1.8233,-1.8035,-1.7781,-1.7585,-1.7421,-1.7214,-1.6999,-1.6886,-1.671,-1.649,-1.6331,-1.6219,-1.6001,-1.5824,-1.5641,-1.5552,-1.5463,-1.5463,-1.5558,-1.5653,-1.5715,-1.5671,-1.5531,-1.5525,-1.5564,-1.5519,-1.548,1.4558,1.414,1.38,1.3483,1.319,1.2997,1.2749,1.2491,1.2269,1.2026,1.1723,1.1418,1.0956,1.0383,0.9758,0.9295,0.8873,0.8613,0.814,0.7661,0.7283,0.6904,0.6418,0.5875,0.533,0.4891,0.4281,0.3561,0.2168,0.0947,0.0,-0.0614,-0.1171,-0.1673,-0.2454,-0.2954,-0.3452,-0.4168,-0.4935,-0.581,-0.6517,-0.706,-0.7489,-0.8025,-0.8396,-0.8866,-0.9384,-0.9891,-1.0399,-1.0859,-1.1362,-1.1913,-1.2448,-1.2885,-1.3326,-1.3711,-1.4383,-1.5274,-1.6176,-1.641,-1.6617,-1.6779,-1.6912,-1.6954,-1.7031,-1.7101,-1.7129,-1.7142,-1.7238,-1.7238,-1.7238,-1.732,-1.7361,-1.7327,-1.7258,-1.7271,-1.7242,-1.7208,-1.7166,-1.7214,-1.7256,-1.753,-1.7767,-1.7928,-1.8014,-1.8028,-1.7908,-1.7787,-1.7639,-1.7441,-1.7186,-1.6928,-1.6801,-1.6631,-1.6454,-1.6281,-1.6107,-1.5932,-1.5768,-1.5608,-1.5474,-1.5295,-1.5108,-1.4971,-1.488,-1.4932,-1.5017,-1.5153,-1.5244,-1.5204,-1.517,-1.5165,-1.5165,-1.5131,-1.5091,1.543,1.4932,1.4384,1.4051,1.3863,1.3552,1.3309,1.3117,1.3002,1.2715,1.2412,1.2157,1.171,1.1158,1.0736,1.0328,0.9921,0.9721,0.9305,0.8827,0.8504,0.8131,0.7649,0.7111,0.6681,0.6315,0.5756,0.5148,0.4323,0.322,0.206,0.0893,0.0223,-0.0335,-0.0893,-0.1506,-0.2118,-0.3007,-0.3944,-0.4663,-0.5271,-0.5706,-0.6192,-0.6681,-0.7171,-0.7599,-0.8078,-0.8649,-0.9117,-0.9585,-1.0104,-1.0606,-1.1149,-1.1557,-1.1958,-1.2302,-1.2759,-1.3323,-1.4299,-1.4863,-1.5342,-1.557,-1.5658,-1.569,-1.579,-1.5866,-1.5897,-1.5847,-1.599,-1.6046,-1.6096,-1.6176,-1.6268,-1.6275,-1.6256,-1.6312,-1.6361,-1.6355,-1.6361,-1.6367,-1.6411,-1.6503,-1.6746,-1.6951,-1.7124,-1.7262,-1.7275,-1.7186,-1.7025,-1.682,-1.6601,-1.6293,-1.6126,-1.5988,-1.585,-1.5674,-1.554,-1.5361,-1.5204,-1.5023,-1.4875,-1.4697,-1.4558,-1.4425,-1.4291,-1.4285,-1.4362,-1.4542,-1.4772,-1.4789,-1.48,-1.4765,-1.4725,-1.4684,-1.4684,1.615,1.6013,1.5062,1.4616,1.4523,1.4274,1.4041,1.3858,1.3668,1.3472,1.3223,1.2822,1.2393,1.2013,1.1701,1.1296,1.0901,1.0753,1.0379,1.0012,0.9703,0.9336,0.8911,0.8435,0.801,0.7706,0.721,0.6776,0.6347,0.5582,0.399,0.2339,0.1722,0.1003,0.0335,-0.0223,-0.1059,-0.1895,-0.2781,-0.334,-0.3841,-0.4281,-0.4771,-0.5214,-0.571,-0.6199,-0.673,-0.7264,-0.78,-0.8274,-0.8748,-0.9266,-0.9717,-1.0136,-1.0442,-1.0797,-1.1044,-1.1472,-1.2046,-1.3223,-1.3961,-1.4198,-1.4286,-1.4321,-1.4367,-1.4429,-1.4429,-1.4464,-1.4556,-1.4659,-1.4721,-1.4829,-1.5045,-1.5147,-1.5197,-1.5299,-1.5389,-1.5478,-1.5484,-1.5546,-1.5635,-1.5718,-1.5756,-1.5996,-1.6392,-1.6576,-1.6625,-1.6546,-1.6287,-1.6082,-1.5901,-1.568,-1.5474,-1.5345,-1.5198,-1.5062,-1.4863,-1.472,-1.4547,-1.4408,-1.4217,-1.4087,-1.3947,-1.3863,-1.3726,-1.3668,-1.3663,-1.3782,-1.3982,-1.4318,-1.443,-1.4337,-1.4337,-1.4337,-1.4337,1.6699,1.6577,1.6026,1.5546,1.5114,1.4875,1.4686,1.4547,1.4351,1.4165,1.3994,1.3552,1.3223,1.2982,1.273,1.2428,1.2084,1.1882,1.1525,1.117,1.0859,1.0517,1.0104,0.9743,0.9429,0.9072,0.8695,0.8215,0.7732,0.729,0.6392,0.4978,0.3664,0.2723,0.2005,0.111,0.0223,-0.0501,-0.117,-0.1728,-0.2286,-0.2788,-0.3282,-0.3722,-0.4278,-0.4716,-0.5148,-0.5699,-0.6244,-0.673,-0.7157,-0.7679,-0.8146,-0.8465,-0.8839,-0.9204,-0.9356,-0.9555,-1.0069,-1.1319,-1.2371,-1.2551,-1.2657,-1.2769,-1.2759,-1.2822,-1.2918,-1.3019,-1.3115,-1.321,-1.3469,-1.3669,-1.3915,-1.4025,-1.4124,-1.4264,-1.4398,-1.4525,-1.4669,-1.4766,-1.4897,-1.5028,-1.5073,-1.5073,-1.5522,-1.5882,-1.5894,-1.5856,-1.5635,-1.5424,-1.5244,-1.5057,-1.4891,-1.4645,-1.4496,-1.4362,-1.4176,-1.4035,-1.3899,-1.3747,-1.36,-1.3447,-1.3314,-1.3233,-1.311,-1.2995,-1.2889,-1.2939,-1.3186,-1.3557,-1.3762,-1.3894,-1.3899,-1.3857,-1.392,1.7186,1.7115,1.6892,1.638,1.5774,1.5507,1.5316,1.5164,1.5068,1.4892,1.4645,1.4368,1.4124,1.3925,1.3726,1.3494,1.3203,1.2953,1.2652,1.2355,1.2066,1.1724,1.1379,1.1078,1.0754,1.0411,1.0045,0.9614,0.9297,0.8699,0.7925,0.6964,0.588,0.4741,0.3341,0.2459,0.1593,0.099,0.05,0.0,-0.0613,-0.1116,-0.1615,-0.2058,-0.2612,-0.3058,-0.3498,-0.4048,-0.4548,-0.5042,-0.5479,-0.5912,-0.6338,-0.6763,-0.709,-0.7357,-0.7567,-0.7773,-0.8289,-0.9589,-1.0671,-1.0852,-1.0914,-1.1032,-1.1103,-1.1208,-1.1236,-1.1458,-1.1616,-1.1868,-1.2115,-1.2404,-1.2711,-1.2808,-1.3122,-1.3314,-1.3494,-1.3674,-1.3826,-1.4025,-1.416,-1.4294,-1.4392,-1.4392,-1.476,-1.5124,-1.5277,-1.5187,-1.5,-1.4834,-1.4673,-1.4482,-1.4249,-1.4041,-1.3779,-1.3637,-1.3452,-1.3329,-1.3185,-1.3084,-1.2934,-1.2812,-1.259,-1.2321,-1.2234,-1.2167,-1.2056,-1.1955,-1.2286,-1.2792,-1.2909,-1.296,-1.3134,-1.3093,-1.3319,1.7747,1.7666,1.7516,1.7041,1.6367,1.6219,1.6044,1.5788,1.5782,1.5611,1.535,1.526,1.5028,1.4755,1.4652,1.4474,1.4201,1.4014,1.3815,1.3516,1.3236,1.3001,1.2706,1.2355,1.2106,1.1859,1.149,1.1132,1.0793,1.0043,0.9419,0.8656,0.7522,0.6277,0.4572,0.3641,0.2908,0.2398,0.2027,0.1546,0.1113,0.0613,0.0167,-0.0278,-0.0779,-0.128,-0.1779,-0.2333,-0.283,-0.327,-0.3663,-0.41,-0.4477,-0.4862,-0.5136,-0.5356,-0.5632,-0.5742,-0.5957,-0.7911,-0.8687,-0.9006,-0.9113,-0.9231,-0.9415,-0.9474,-0.9625,-0.9879,-1.0096,-1.0356,-1.0712,-1.1111,-1.1425,-1.1733,-1.2093,-1.2403,-1.2579,-1.2876,-1.3074,-1.3271,-1.3372,-1.3467,-1.361,-1.3752,-1.4077,-1.4362,-1.4569,-1.4518,-1.4316,-1.4129,-1.3962,-1.3784,-1.3536,-1.3329,-1.3069,-1.2914,-1.2774,-1.2608,-1.2471,-1.2363,-1.2209,-1.2094,-1.1792,-1.1468,-1.1308,-1.1208,-1.1045,-1.0821,-1.1102,-1.1358,-1.1743,-1.192,-1.2137,-1.2388,-1.2612,1.8273,1.8226,1.8068,1.7834,1.7516,1.7067,1.6735,1.6515,1.6423,1.6324,1.6194,1.6045,1.5864,1.5688,1.5567,1.5433,1.5248,1.5022,1.4829,1.4635,1.4365,1.4075,1.3789,1.3611,1.3379,1.3077,1.2759,1.2287,1.169,1.1169,1.0445,0.9673,0.8685,0.7335,0.597,0.5108,0.4603,0.4301,0.3844,0.335,0.2985,0.2497,0.1999,0.1555,0.1057,0.0612,0.0167,-0.0444,-0.0943,-0.1331,-0.1777,-0.2164,-0.2496,-0.2884,-0.3051,-0.3327,-0.3601,-0.3825,-0.3986,-0.4944,-0.5759,-0.6467,-0.7175,-0.7452,-0.7925,-0.7913,-0.8066,-0.8327,-0.8587,-0.8954,-0.9533,-0.9953,-1.0265,-1.0673,-1.1036,-1.1405,-1.1706,-1.2062,-1.2314,-1.251,-1.2657,-1.2759,-1.2905,-1.2944,-1.3223,-1.3357,-1.351,-1.3605,-1.3505,-1.3304,-1.317,-1.3002,-1.2764,-1.2564,-1.2353,-1.2138,-1.1985,-1.1805,-1.1719,-1.1619,-1.1453,-1.1282,-1.0972,-1.0621,-1.0441,-1.0264,-0.9989,-0.977,-0.9596,-0.9771,-1.0355,-1.0958,-1.1306,-1.1655,-1.1991,1.8853,1.8815,1.87,1.863,1.845,1.7848,1.7454,1.7275,1.7137,1.7047,1.6999,1.6866,1.6685,1.6557,1.6478,1.6411,1.6269,1.6002,1.587,1.5726,1.5416,1.5174,1.4949,1.4784,1.4595,1.4269,1.3855,1.3392,1.283,1.228,1.1399,1.0402,0.9609,0.8802,0.7688,0.6991,0.6165,0.589,0.5502,0.523,0.4965,0.4525,0.4034,0.3597,0.3048,0.2552,0.2109,0.161,0.1111,0.0722,0.0278,-0.0111,-0.0445,-0.0723,-0.0946,-0.1222,-0.1499,-0.1722,-0.1942,-0.205,-0.2923,-0.3749,-0.4741,-0.5525,-0.6036,-0.602,-0.6342,-0.6663,-0.7047,-0.7641,-0.8175,-0.86,-0.9127,-0.9533,-1.0068,-1.0387,-1.0744,-1.1099,-1.1414,-1.1615,-1.1873,-1.2026,-1.218,-1.2229,-1.2314,-1.2358,-1.2398,-1.2491,-1.2584,-1.2535,-1.233,-1.2152,-1.1904,-1.1688,-1.1438,-1.1246,-1.1099,-1.1006,-1.0826,-1.0673,-1.0541,-1.029,-1.0018,-0.9729,-0.9483,-0.9221,-0.8931,-0.8739,-0.872,-0.8873,-0.9249,-0.9856,-1.0465,-1.0907,-1.1269,1.9464,1.9413,1.9413,1.9325,1.9102,1.856,1.8214,1.8021,1.7868,1.7787,1.776,1.7707,1.7571,1.7401,1.7353,1.7277,1.716,1.6944,1.686,1.674,1.6465,1.6281,1.6108,1.594,1.5674,1.5294,1.4835,1.435,1.4013,1.2868,1.1832,1.1205,1.0771,1.0278,0.9578,0.8958,0.8083,0.7724,0.7416,0.7223,0.705,0.6638,0.6203,0.5716,0.5231,0.4687,0.4194,0.3705,0.3268,0.2827,0.2385,0.2111,0.1779,0.1447,0.1224,0.0946,0.0667,0.0445,0.0278,0.0166,-0.0111,-0.0997,-0.2104,-0.3052,-0.3831,-0.4157,-0.4537,-0.5035,-0.5475,-0.6136,-0.6738,-0.7326,-0.7913,-0.8445,-0.9033,-0.9399,-0.9762,-1.0123,-1.0387,-1.0698,-1.1061,-1.1263,-1.141,-1.146,-1.136,-1.1305,-1.1292,-1.1292,-1.1438,-1.1746,-1.1547,-1.1296,-1.104,-1.0754,-1.0539,-1.0257,-1.0073,-0.9891,-0.9687,-0.949,-0.9431,-0.9261,-0.9004,-0.8705,-0.8483,-0.8222,-0.8004,-0.7949,-0.8025,-0.8207,-0.8418,-0.891,-0.9572,-1.0079,-1.053,1.9925,1.9904,1.9848,1.9812,1.9726,1.9545,1.9161,1.8672,1.8539,1.8507,1.8475,1.839,1.8298,1.8219,1.818,1.814,1.8007,1.7874,1.774,1.7619,1.7429,1.7319,1.7188,1.7018,1.6638,1.6166,1.5639,1.5053,1.4134,1.3143,1.2681,1.2241,1.1974,1.1721,1.1496,1.1287,1.048,0.9772,0.9475,0.9342,0.9125,0.8743,0.8319,0.7843,0.7373,0.6833,0.6301,0.5876,0.5441,0.507,0.4691,0.4419,0.3983,0.371,0.349,0.3105,0.2828,0.2609,0.2444,0.2222,0.1945,0.1612,0.0776,-0.0444,-0.1445,-0.2334,-0.2721,-0.3331,-0.4053,-0.4714,-0.5429,-0.6079,-0.673,-0.7329,-0.7919,-0.8402,-0.8761,-0.9127,-0.9447,-0.9877,-1.0237,-1.0383,-1.0533,-1.0533,-1.0431,-1.0281,-1.0178,-1.0174,-1.0328,-1.0584,-1.0639,-1.0387,-1.0074,-0.9762,-0.9479,-0.9194,-0.8985,-0.8754,-0.8565,-0.8392,-0.8326,-0.8146,-0.7937,-0.7678,-0.7446,-0.7277,-0.7068,-0.7143,-0.7273,-0.7405,-0.7591,-0.8108,-0.8619,-0.9177,-0.972,2.0436,2.0462,2.0402,2.0402,2.0376,2.0357,2.007,1.9694,1.9406,1.9273,1.9184,1.9132,1.9058,1.9027,1.8997,1.8959,1.8959,1.8741,1.8612,1.8542,1.8362,1.8245,1.8159,1.8004,1.7532,1.7014,1.6393,1.5785,1.4748,1.4003,1.3518,1.3403,1.3221,1.3032,1.2981,1.319,1.3138,1.2383,1.1811,1.1479,1.119,1.0839,1.0436,0.9968,0.9456,0.894,0.8472,0.8106,0.7741,0.7278,0.6956,0.6635,0.6203,0.5939,0.5565,0.5235,0.5019,0.4749,0.4477,0.4258,0.3931,0.3549,0.322,0.2276,0.0944,-0.0111,-0.1001,-0.1836,-0.2616,-0.3341,-0.4114,-0.4831,-0.5544,-0.6204,-0.6745,-0.7343,-0.7762,-0.8181,-0.861,-0.9044,-0.9302,-0.9451,-0.9499,-0.9503,-0.9454,-0.9302,-0.9141,-0.8981,-0.9183,-0.9488,-0.9547,-0.935,-0.9091,-0.8805,-0.8481,-0.8105,-0.7853,-0.7615,-0.7374,-0.7214,-0.7167,-0.7033,-0.6751,-0.6609,-0.6492,-0.6334,-0.6292,-0.6386,-0.6556,-0.6644,-0.6771,-0.7129,-0.768,-0.8379,-0.8925,2.0991,2.1031,2.1023,2.0991,2.1023,2.0958,2.0926,2.0893,2.035,2.0038,1.9894,1.9894,1.9831,1.9767,1.9775,1.9782,1.9703,1.9565,1.9442,1.9464,1.9244,1.9088,1.9021,1.8897,1.823,1.7684,1.7006,1.6282,1.569,1.5029,1.4606,1.4575,1.4414,1.4308,1.449,1.5054,1.5201,1.5063,1.434,1.3856,1.3336,1.2959,1.2604,1.2192,1.1693,1.1197,1.0701,1.0296,0.9987,0.9478,0.912,0.8847,0.8384,0.8016,0.7647,0.7337,0.7119,0.686,0.6541,0.6267,0.584,0.541,0.5042,0.438,0.321,0.1555,0.0445,-0.0334,-0.1113,-0.195,-0.2671,-0.3507,-0.4226,-0.4942,-0.5599,-0.6199,-0.6686,-0.7165,-0.7709,-0.8087,-0.8299,-0.8452,-0.8508,-0.8504,-0.8396,-0.8306,-0.815,-0.7931,-0.7812,-0.8171,-0.8231,-0.8187,-0.8097,-0.7789,-0.7357,-0.7031,-0.6747,-0.6457,-0.6203,-0.6005,-0.596,-0.5786,-0.5588,-0.5496,-0.5422,-0.5542,-0.5564,-0.5653,-0.5739,-0.5825,-0.5953,-0.6176,-0.6689,-0.7335,-0.8072,2.1362,2.1385,2.1393,2.1376,2.1385,2.1354,2.1362,2.1354,2.1229,2.0926,2.0597,2.0579,2.0545,2.0504,2.0504,2.0512,2.0478,2.0311,2.0227,2.0158,2.0027,1.9949,1.975,1.9432,1.8808,1.8049,1.7378,1.6668,1.6164,1.5797,1.5649,1.5606,1.5498,1.5514,1.5969,1.6626,1.6947,1.7185,1.7181,1.634,1.5561,1.4952,1.4518,1.4158,1.373,1.3261,1.2819,1.2431,1.2053,1.1581,1.1347,1.0902,1.041,1.0085,0.9834,0.9585,0.9109,0.8744,0.8469,0.8097,0.7629,0.7186,0.6717,0.6131,0.5035,0.3219,0.1893,0.1169,0.039,-0.0446,-0.134,-0.212,-0.2902,-0.3676,-0.4396,-0.4999,-0.5605,-0.6204,-0.6802,-0.7071,-0.7289,-0.7396,-0.745,-0.745,-0.7292,-0.7182,-0.7071,-0.6853,-0.6416,-0.6514,-0.6673,-0.6679,-0.6999,-0.672,-0.6272,-0.5843,-0.5572,-0.5309,-0.5029,-0.4857,-0.4748,-0.4699,-0.4604,-0.4432,-0.4393,-0.452,-0.4696,-0.4785,-0.4872,-0.4959,-0.5132,-0.5305,-0.5526,-0.6076,-0.6989,2.1802,2.184,2.1869,2.1899,2.1899,2.192,2.194,2.1949,2.194,2.1811,2.1501,2.1285,2.1095,2.1087,2.1127,2.1127,2.1095,2.095,2.0902,2.0837,2.0797,2.0747,2.047,2.002,1.938,1.8651,1.761,1.6899,1.6617,1.6596,1.6546,1.652,1.6496,1.6756,1.735,1.7889,1.8446,1.8933,1.944,1.8951,1.7807,1.7128,1.6393,1.6065,1.567,1.5213,1.4737,1.4311,1.3707,1.3102,1.2574,1.2018,1.1524,1.1236,1.1055,1.0772,1.0456,1.0287,1.0055,0.9679,0.9278,0.8934,0.8472,0.7879,0.7146,0.5439,0.3929,0.3154,0.1947,0.1057,0.0112,-0.0725,-0.1451,-0.2228,-0.3006,-0.367,-0.4446,-0.5166,-0.5603,-0.5878,-0.6041,-0.6204,-0.6256,-0.6197,-0.6091,-0.5875,-0.5821,-0.5542,-0.5162,-0.4833,-0.4997,-0.5095,-0.5295,-0.5438,-0.5126,-0.4711,-0.4361,-0.4088,-0.3862,-0.38,-0.3725,-0.3706,-0.3644,-0.3514,-0.3514,-0.3602,-0.3734,-0.3822,-0.3913,-0.4001,-0.422,-0.4437,-0.4659,-0.4886,-0.5658,2.1904,2.2078,2.2209,2.2298,2.2332,2.248,2.2533,2.2533,2.2533,2.2542,2.2434,2.1903,2.1688,2.1606,2.1606,2.1637,2.1606,2.1552,2.1529,2.1507,2.1507,2.146,2.118,2.0677,1.9753,1.8843,1.7889,1.7543,1.736,1.7358,1.7365,1.7343,1.7558,1.7798,1.8423,1.9023,1.9662,2.0302,2.0716,2.0855,2.0107,1.9257,1.831,1.7771,1.7458,1.7059,1.6453,1.5846,1.5165,1.4423,1.3716,1.313,1.2733,1.2498,1.2225,1.1937,1.1675,1.15,1.132,1.1023,1.0851,1.0585,1.0152,0.9566,0.8776,0.7662,0.6206,0.4967,0.3818,0.2559,0.1615,0.067,-0.0056,-0.0837,-0.1616,-0.2397,-0.3287,-0.4065,-0.4343,-0.4618,-0.4781,-0.4944,-0.4944,-0.4886,-0.4778,-0.4617,-0.4341,-0.4064,-0.3785,-0.3507,-0.345,-0.3377,-0.3412,-0.3514,-0.3783,-0.3551,-0.3154,-0.307,-0.2873,-0.2787,-0.2679,-0.2676,-0.2674,-0.2676,-0.2677,-0.2676,-0.2763,-0.285,-0.2898,-0.3031,-0.3251,-0.3471,-0.3713,-0.3991,-0.4337,2.0769,2.0887,2.1471,2.1788,2.1934,2.2513,2.2851,2.2842,2.2842,2.2833,2.2808,2.2756,2.2526,2.2287,2.2296,2.2287,2.2226,2.2172,2.2127,2.2136,2.2127,2.2127,2.1784,2.0993,1.9591,1.8694,1.8163,1.8117,1.7997,1.8048,1.8125,1.8138,1.8784,1.9278,1.9964,2.0576,2.1156,2.1706,2.1879,2.1958,2.1497,2.0639,1.9793,1.933,1.909,1.8387,1.7702,1.7232,1.6481,1.5673,1.4911,1.4333,1.3957,1.3688,1.3413,1.3054,1.2772,1.2748,1.258,1.2323,1.218,1.2247,1.176,1.109,1.0367,0.9611,0.8273,0.7175,0.5873,0.4208,0.3107,0.2059,0.1225,0.0335,-0.0502,-0.1283,-0.2065,-0.2621,-0.301,-0.3175,-0.3338,-0.3449,-0.3506,-0.3449,-0.3338,-0.3175,-0.3007,-0.273,-0.2341,-0.212,-0.1898,-0.1776,-0.1654,-0.216,-0.2592,-0.2344,-0.2052,-0.1992,-0.1871,-0.1704,-0.1661,-0.17,-0.1699,-0.1697,-0.1699,-0.1699,-0.1743,-0.1828,-0.1917,-0.2051,-0.223,-0.2457,-0.2741,-0.3016,-0.3382]}]]